Wetterdaten: Donnerstag, 19.04.2018
Datum Zeit Temp. A. Pool Temp. Feuchte A. Luftdruck Regen Wind Richtung Richtung Sonnenschein ET UV Solar Taupunkt Windchill Windben Empfang
19.04.2018 00:00 11,2 C 12,2 C 79 % 1029,9 hPa 0,0 l/m 3,5 km/h (1 Bft) S-SW 200 0 min 0,000 mm 0,0 UV-I 0 W/m 7,7 C 11,2 C 4,8 km/h (1 Bft) 100,00 %
19.04.2018 00:02 11,3 C 12,2 C 78 % 1029,9 hPa 0,0 l/m 2,4 km/h (1 Bft) S-SW 200 0 min 0,000 mm 0,0 UV-I 0 W/m 7,6 C 11,3 C 4,8 km/h (1 Bft) 97,50 %
19.04.2018 00:03 11,3 C 12,2 C 78 % 1029,9 hPa 0,0 l/m 0,1 km/h (0 Bft) S-SW 200 0 min 0,000 mm 0,0 UV-I 0 W/m 7,6 C 11,3 C 1,6 km/h (1 Bft) 100,00 %
19.04.2018 00:04 11,3 C 12,2 C 78 % 1029,9 hPa 0,0 l/m 0,5 km/h (0 Bft) S-SW 200 0 min 0,000 mm 0,0 UV-I 0 W/m 7,6 C 11,3 C 1,6 km/h (1 Bft) 100,00 %
19.04.2018 00:05 11,2 C 12,2 C 78 % 1029,9 hPa 0,0 l/m 2,7 km/h (1 Bft) S-SW 200 0 min 0,000 mm 0,0 UV-I 0 W/m 7,5 C 11,2 C 4,8 km/h (1 Bft) 100,00 %
19.04.2018 00:06 11,1 C 12,2 C 79 % 1029,9 hPa 0,0 l/m 4,2 km/h (1 Bft) S-SW 200 0 min 0,000 mm 0,0 UV-I 0 W/m 7,6 C 11,1 C 4,8 km/h (1 Bft) 100,00 %
19.04.2018 00:07 11,0 C 12,2 C 79 % 1029,9 hPa 0,0 l/m 4,4 km/h (1 Bft) S-SW 200 0 min 0,000 mm 0,0 UV-I 0 W/m 7,5 C 11,0 C 4,8 km/h (1 Bft) 100,00 %
19.04.2018 00:08 10,9 C 12,2 C 79 % 1029,9 hPa 0,0 l/m 4,5 km/h (1 Bft) S-SW 200 0 min 0,000 mm 0,0 UV-I 0 W/m 7,4 C 10,9 C 4,8 km/h (1 Bft) 100,00 %
19.04.2018 00:09 10,7 C 12,2 C 79 % 1030,0 hPa 0,0 l/m 4,6 km/h (1 Bft) S-SW 200 0 min 0,000 mm 0,0 UV-I 0 W/m 7,2 C 10,7 C 4,8 km/h (1 Bft) 100,00 %
19.04.2018 00:10 10,7 C 12,2 C 80 % 1029,9 hPa 0,0 l/m 4,8 km/h (1 Bft) S-SW 200 0 min 0,000 mm 0,0 UV-I 0 W/m 7,4 C 10,7 C 4,8 km/h (1 Bft) 100,00 %
19.04.2018 00:11 10,7 C 12,2 C 80 % 1030,0 hPa 0,0 l/m 4,2 km/h (1 Bft) S-SW 200 0 min 0,000 mm 0,0 UV-I 0 W/m 7,4 C 10,7 C 4,8 km/h (1 Bft) 95,83 %
19.04.2018 00:12 10,7 C 12,2 C 80 % 1029,9 hPa 0,0 l/m 3,7 km/h (1 Bft) S-SW 200 0 min 0,000 mm 0,0 UV-I 0 W/m 7,4 C 10,7 C 4,8 km/h (1 Bft) 100,00 %
19.04.2018 00:13 10,8 C 12,2 C 80 % 1029,9 hPa 0,0 l/m 4,0 km/h (1 Bft) S-SW 200 0 min 0,000 mm 0,0 UV-I 0 W/m 7,5 C 10,8 C 4,8 km/h (1 Bft) 100,00 %
19.04.2018 00:14 10,7 C 12,2 C 80 % 1030,0 hPa 0,0 l/m 4,0 km/h (1 Bft) S-SW 200 0 min 0,000 mm 0,0 UV-I 0 W/m 7,4 C 10,7 C 4,8 km/h (1 Bft) 100,00 %
19.04.2018 00:15 10,7 C 12,2 C 80 % 1030,0 hPa 0,0 l/m 4,5 km/h (1 Bft) S-SW 200 0 min 0,000 mm 0,0 UV-I 0 W/m 7,4 C 10,7 C 4,8 km/h (1 Bft) 100,00 %
19.04.2018 00:16 10,7 C 12,2 C 80 % 1030,0 hPa 0,0 l/m 3,5 km/h (1 Bft) S-SW 200 0 min 0,000 mm 0,0 UV-I 0 W/m 7,4 C 10,7 C 4,8 km/h (1 Bft) 100,00 %
19.04.2018 00:17 10,7 C 12,2 C 80 % 1029,9 hPa 0,0 l/m 4,3 km/h (1 Bft) S-SW 200 0 min 0,000 mm 0,0 UV-I 0 W/m 7,4 C 10,7 C 4,8 km/h (1 Bft) 100,00 %
19.04.2018 00:18 10,7 C 12,2 C 80 % 1029,9 hPa 0,0 l/m 4,4 km/h (1 Bft) S-SW 200 0 min 0,000 mm 0,0 UV-I 0 W/m 7,4 C 10,7 C 4,8 km/h (1 Bft) 100,00 %
19.04.2018 00:19 10,7 C 12,2 C 80 % 1030,0 hPa 0,0 l/m 4,8 km/h (1 Bft) S-SW 200 0 min 0,000 mm 0,0 UV-I 0 W/m 7,4 C 10,7 C 6,4 km/h (2 Bft) 100,00 %
19.04.2018 00:20 10,7 C 12,2 C 80 % 1029,9 hPa 0,0 l/m 4,4 km/h (1 Bft) S-SW 200 0 min 0,000 mm 0,0 UV-I 0 W/m 7,4 C 10,7 C 6,4 km/h (2 Bft) 100,00 %
19.04.2018 00:21 10,7 C 12,2 C 80 % 1030,0 hPa 0,0 l/m 4,2 km/h (1 Bft) S-SW 200 0 min 0,000 mm 0,0 UV-I 0 W/m 7,4 C 10,7 C 4,8 km/h (1 Bft) 100,00 %
19.04.2018 00:22 10,8 C 12,2 C 80 % 1029,9 hPa 0,0 l/m 3,8 km/h (1 Bft) S-SW 200 0 min 0,000 mm 0,0 UV-I 0 W/m 7,5 C 10,8 C 4,8 km/h (1 Bft) 100,00 %
19.04.2018 00:23 10,8 C 12,2 C 79 % 1029,9 hPa 0,0 l/m 4,6 km/h (1 Bft) S-SW 200 0 min 0,000 mm 0,0 UV-I 0 W/m 7,3 C 10,8 C 4,8 km/h (1 Bft) 96,15 %
19.04.2018 00:24 10,8 C 12,2 C 79 % 1029,9 hPa 0,0 l/m 4,1 km/h (1 Bft) S-SW 200 0 min 0,000 mm 0,0 UV-I 0 W/m 7,3 C 10,8 C 4,8 km/h (1 Bft) 100,00 %
19.04.2018 00:25 10,8 C 12,2 C 79 % 1029,9 hPa 0,0 l/m 4,2 km/h (1 Bft) S-SW 200 0 min 0,000 mm 0,0 UV-I 0 W/m 7,3 C 10,8 C 4,8 km/h (1 Bft) 100,00 %
19.04.2018 00:26 10,8 C 12,2 C 79 % 1029,9 hPa 0,0 l/m 4,8 km/h (1 Bft) S-SW 200 0 min 0,000 mm 0,0 UV-I 0 W/m 7,3 C 10,8 C 4,8 km/h (1 Bft) 100,00 %
19.04.2018 00:27 10,8 C 12,2 C 79 % 1029,9 hPa 0,0 l/m 4,6 km/h (1 Bft) S-SW 200 0 min 0,000 mm 0,0 UV-I 0 W/m 7,3 C 10,8 C 4,8 km/h (1 Bft) 100,00 %
19.04.2018 00:28 10,8 C 12,2 C 79 % 1029,9 hPa 0,0 l/m 3,6 km/h (1 Bft) S-SW 200 0 min 0,000 mm 0,0 UV-I 0 W/m 7,3 C 10,8 C 4,8 km/h (1 Bft) 100,00 %
19.04.2018 00:29 10,8 C 12,2 C 79 % 1029,9 hPa 0,0 l/m 3,7 km/h (1 Bft) S-SW 200 0 min 0,000 mm 0,0 UV-I 0 W/m 7,3 C 10,8 C 4,8 km/h (1 Bft) 100,00 %
19.04.2018 00:30 10,7 C 12,2 C 79 % 1029,9 hPa 0,0 l/m 3,6 km/h (1 Bft) S-SW 200 0 min 0,000 mm 0,0 UV-I 0 W/m 7,2 C 10,7 C 4,8 km/h (1 Bft) 100,00 %
19.04.2018 00:31 10,6 C 12,2 C 80 % 1029,9 hPa 0,0 l/m 3,8 km/h (1 Bft) S-SW 200 0 min 0,000 mm 0,0 UV-I 0 W/m 7,3 C 10,6 C 4,8 km/h (1 Bft) 95,83 %
19.04.2018 00:32 10,5 C 12,2 C 80 % 1029,9 hPa 0,0 l/m 3,2 km/h (1 Bft) S-SW 200 0 min 0,000 mm 0,0 UV-I 0 W/m 7,2 C 10,5 C 3,2 km/h (1 Bft) 100,00 %
19.04.2018 00:33 10,4 C 12,2 C 80 % 1029,9 hPa 0,0 l/m 3,4 km/h (1 Bft) S-SW 200 0 min 0,000 mm 0,0 UV-I 0 W/m 7,1 C 10,4 C 4,8 km/h (1 Bft) 100,00 %
19.04.2018 00:34 10,4 C 12,2 C 80 % 1029,9 hPa 0,0 l/m 3,6 km/h (1 Bft) S-SW 200 0 min 0,000 mm 0,0 UV-I 0 W/m 7,1 C 10,4 C 4,8 km/h (1 Bft) 100,00 %
19.04.2018 00:35 10,4 C 12,2 C 80 % 1029,9 hPa 0,0 l/m 3,5 km/h (1 Bft) S-SW 200 0 min 0,000 mm 0,0 UV-I 0 W/m 7,1 C 10,4 C 4,8 km/h (1 Bft) 100,00 %
19.04.2018 00:36 10,6 C 12,2 C 80 % 1029,9 hPa 0,0 l/m 3,2 km/h (1 Bft) S-SW 200 0 min 0,000 mm 0,0 UV-I 0 W/m 7,3 C 10,6 C 4,8 km/h (1 Bft) 100,00 %
19.04.2018 00:37 10,7 C 12,2 C 80 % 1030,0 hPa 0,0 l/m 3,4 km/h (1 Bft) S-SW 200 0 min 0,000 mm 0,0 UV-I 0 W/m 7,4 C 10,7 C 4,8 km/h (1 Bft) 100,00 %
19.04.2018 00:38 10,8 C 12,2 C 79 % 1030,0 hPa 0,0 l/m 4,0 km/h (1 Bft) S-SW 200 0 min 0,000 mm 0,0 UV-I 0 W/m 7,3 C 10,8 C 4,8 km/h (1 Bft) 100,00 %
19.04.2018 00:39 10,7 C 12,2 C 79 % 1030,0 hPa 0,0 l/m 4,3 km/h (1 Bft) S-SW 200 0 min 0,000 mm 0,0 UV-I 0 W/m 7,2 C 10,7 C 4,8 km/h (1 Bft) 100,00 %
19.04.2018 00:40 10,7 C 12,2 C 79 % 1030,0 hPa 0,0 l/m 4,5 km/h (1 Bft) S-SW 200 0 min 0,000 mm 0,0 UV-I 0 W/m 7,2 C 10,7 C 4,8 km/h (1 Bft) 100,00 %
19.04.2018 00:41 10,5 C 12,2 C 80 % 1030,0 hPa 0,0 l/m 4,0 km/h (1 Bft) S-SW 200 0 min 0,000 mm 0,0 UV-I 0 W/m 7,2 C 10,5 C 4,8 km/h (1 Bft) 100,00 %
19.04.2018 00:42 10,4 C 12,2 C 80 % 1030,0 hPa 0,0 l/m 3,9 km/h (1 Bft) S-SW 200 0 min 0,000 mm 0,0 UV-I 0 W/m 7,1 C 10,4 C 4,8 km/h (1 Bft) 100,00 %
19.04.2018 00:43 10,2 C 12,2 C 81 % 1030,0 hPa 0,0 l/m 4,3 km/h (1 Bft) S-SW 200 0 min 0,000 mm 0,0 UV-I 0 W/m 7,1 C 10,2 C 4,8 km/h (1 Bft) 100,00 %
19.04.2018 00:44 10,2 C 12,2 C 81 % 1030,0 hPa 0,0 l/m 4,2 km/h (1 Bft) S-SW 200 0 min 0,000 mm 0,0 UV-I 0 W/m 7,1 C 10,2 C 4,8 km/h (1 Bft) 100,00 %
19.04.2018 00:45 10,0 C 12,2 C 81 % 1030,0 hPa 0,0 l/m 4,7 km/h (1 Bft) S-SW 200 0 min 0,000 mm 0,0 UV-I 0 W/m 6,9 C 10,0 C 4,8 km/h (1 Bft) 100,00 %
19.04.2018 00:46 9,9 C 12,2 C 82 % 1030,0 hPa 0,0 l/m 4,8 km/h (1 Bft) S-SW 200 0 min 0,000 mm 0,0 UV-I 0 W/m 7,0 C 9,9 C 6,4 km/h (2 Bft) 100,00 %
19.04.2018 00:47 9,8 C 12,2 C 82 % 1030,0 hPa 0,0 l/m 4,5 km/h (1 Bft) S-SW 200 0 min 0,000 mm 0,0 UV-I 0 W/m 6,9 C 9,8 C 4,8 km/h (1 Bft) 100,00 %
19.04.2018 00:48 9,8 C 12,2 C 82 % 1030,0 hPa 0,0 l/m 3,8 km/h (1 Bft) S-SW 200 0 min 0,000 mm 0,0 UV-I 0 W/m 6,9 C 9,8 C 4,8 km/h (1 Bft) 100,00 %
19.04.2018 00:49 9,8 C 12,2 C 83 % 1030,1 hPa 0,0 l/m 3,6 km/h (1 Bft) S-SW 200 0 min 0,000 mm 0,0 UV-I 0 W/m 7,1 C 9,8 C 4,8 km/h (1 Bft) 100,00 %
19.04.2018 00:50 9,9 C 12,2 C 82 % 1030,1 hPa 0,0 l/m 3,6 km/h (1 Bft) S-SW 200 0 min 0,000 mm 0,0 UV-I 0 W/m 7,0 C 9,9 C 4,8 km/h (1 Bft) 95,83 %
19.04.2018 00:51 10,0 C 12,2 C 82 % 1030,0 hPa 0,0 l/m 4,0 km/h (1 Bft) S-SW 200 0 min 0,000 mm 0,0 UV-I 0 W/m 7,1 C 10,0 C 4,8 km/h (1 Bft) 100,00 %
19.04.2018 00:52 10,1 C 12,2 C 82 % 1030,0 hPa 0,0 l/m 4,0 km/h (1 Bft) S-SW 200 0 min 0,000 mm 0,0 UV-I 0 W/m 7,2 C 10,1 C 4,8 km/h (1 Bft) 100,00 %
19.04.2018 00:53 10,0 C 12,2 C 81 % 1030,1 hPa 0,0 l/m 4,9 km/h (1 Bft) S-SW 200 0 min 0,000 mm 0,0 UV-I 0 W/m 6,9 C 10,0 C 6,4 km/h (2 Bft) 100,00 %
19.04.2018 00:54 10,0 C 12,2 C 81 % 1030,0 hPa 0,0 l/m 4,7 km/h (1 Bft) S-SW 200 0 min 0,000 mm 0,0 UV-I 0 W/m 6,9 C 10,0 C 6,4 km/h (2 Bft) 100,00 %
19.04.2018 00:55 9,9 C 12,2 C 81 % 1030,1 hPa 0,0 l/m 4,7 km/h (1 Bft) S-SW 200 0 min 0,000 mm 0,0 UV-I 0 W/m 6,8 C 9,9 C 6,4 km/h (2 Bft) 100,00 %
19.04.2018 00:56 9,8 C 12,2 C 81 % 1030,0 hPa 0,0 l/m 4,6 km/h (1 Bft) S-SW 200 0 min 0,000 mm 0,0 UV-I 0 W/m 6,7 C 9,8 C 6,4 km/h (2 Bft) 96,30 %
19.04.2018 00:57 9,8 C 12,2 C 81 % 1030,1 hPa 0,0 l/m 4,4 km/h (1 Bft) S-SW 200 0 min 0,000 mm 0,0 UV-I 0 W/m 6,7 C 9,8 C 4,8 km/h (1 Bft) 100,00 %
19.04.2018 00:58 9,6 C 12,2 C 81 % 1030,1 hPa 0,0 l/m 3,5 km/h (1 Bft) S-SW 200 0 min 0,000 mm 0,0 UV-I 0 W/m 6,5 C 9,6 C 4,8 km/h (1 Bft) 100,00 %
19.04.2018 00:59 9,5 C 12,2 C 82 % 1030,0 hPa 0,0 l/m 3,2 km/h (1 Bft) S-SW 200 0 min 0,000 mm 0,0 UV-I 0 W/m 6,6 C 9,5 C 3,2 km/h (1 Bft) 100,00 %
19.04.2018 01:00 9,5 C 12,2 C 82 % 1030,0 hPa 0,0 l/m 2,4 km/h (1 Bft) S-SW 200 0 min 0,000 mm 0,0 UV-I 0 W/m 6,6 C 9,5 C 3,2 km/h (1 Bft) 95,83 %
19.04.2018 01:01 9,5 C 12,2 C 83 % 1030,0 hPa 0,0 l/m 1,9 km/h (1 Bft) S-SW 200 0 min 0,025 mm 0,0 UV-I 0 W/m 6,8 C 9,5 C 3,2 km/h (1 Bft) 96,15 %
19.04.2018 01:02 9,6 C 12,2 C 83 % 1030,0 hPa 0,0 l/m 2,1 km/h (1 Bft) S-SW 200 0 min 0,000 mm 0,0 UV-I 0 W/m 6,9 C 9,6 C 3,2 km/h (1 Bft) 100,00 %
19.04.2018 01:03 9,8 C 12,2 C 82 % 1030,1 hPa 0,0 l/m 2,0 km/h (1 Bft) S-SW 200 0 min 0,000 mm 0,0 UV-I 0 W/m 6,9 C 9,8 C 3,2 km/h (1 Bft) 100,00 %
19.04.2018 01:04 9,9 C 12,2 C 82 % 1030,1 hPa 0,0 l/m 2,2 km/h (1 Bft) S-SW 200 0 min 0,000 mm 0,0 UV-I 0 W/m 7,0 C 9,9 C 3,2 km/h (1 Bft) 100,00 %
19.04.2018 01:05 10,1 C 12,2 C 82 % 1030,0 hPa 0,0 l/m 2,4 km/h (1 Bft) S-SW 200 0 min 0,000 mm 0,0 UV-I 0 W/m 7,2 C 10,1 C 3,2 km/h (1 Bft) 100,00 %
19.04.2018 01:06 10,1 C 12,2 C 81 % 1030,0 hPa 0,0 l/m 2,3 km/h (1 Bft) S-SW 200 0 min 0,000 mm 0,0 UV-I 0 W/m 7,0 C 10,1 C 3,2 km/h (1 Bft) 100,00 %
19.04.2018 01:07 10,1 C 12,2 C 80 % 1030,0 hPa 0,0 l/m 2,3 km/h (1 Bft) S-SW 200 0 min 0,000 mm 0,0 UV-I 0 W/m 6,8 C 10,1 C 3,2 km/h (1 Bft) 100,00 %
19.04.2018 01:08 10,0 C 12,2 C 80 % 1030,0 hPa 0,0 l/m 2,3 km/h (1 Bft) S-SW 200 0 min 0,000 mm 0,0 UV-I 0 W/m 6,7 C 10,0 C 3,2 km/h (1 Bft) 95,65 %
19.04.2018 01:09 9,9 C 12,2 C 80 % 1030,0 hPa 0,0 l/m 2,6 km/h (1 Bft) S-SW 200 0 min 0,000 mm 0,0 UV-I 0 W/m 6,6 C 9,9 C 3,2 km/h (1 Bft) 100,00 %
19.04.2018 01:10 10,0 C 12,2 C 80 % 1030,0 hPa 0,0 l/m 2,1 km/h (1 Bft) S-SW 200 0 min 0,000 mm 0,0 UV-I 0 W/m 6,7 C 10,0 C 3,2 km/h (1 Bft) 96,55 %
19.04.2018 01:11 10,0 C 12,2 C 80 % 1030,0 hPa 0,0 l/m 1,2 km/h (1 Bft) S-SW 200 0 min 0,000 mm 0,0 UV-I 0 W/m 6,7 C 10,0 C 3,2 km/h (1 Bft) 100,00 %
19.04.2018 01:12 10,1 C 12,2 C 80 % 1030,0 hPa 0,0 l/m 0,1 km/h (0 Bft) S-SW 200 0 min 0,000 mm 0,0 UV-I 0 W/m 6,8 C 10,1 C 1,6 km/h (1 Bft) 100,00 %
19.04.2018 01:13 10,3 C 12,2 C 78 % 1030,0 hPa 0,0 l/m 0,0 km/h (0 Bft) S-SW 200 0 min 0,000 mm 0,0 UV-I 0 W/m 6,6 C 10,3 C 0,0 km/h (0 Bft) 96,30 %
19.04.2018 01:14 10,3 C 12,2 C 78 % 1030,0 hPa 0,0 l/m 0,1 km/h (0 Bft) S-SW 200 0 min 0,000 mm 0,0 UV-I 0 W/m 6,6 C 10,3 C 1,6 km/h (1 Bft) 95,65 %
19.04.2018 01:15 10,2 C 12,2 C 78 % 1030,0 hPa 0,0 l/m 1,9 km/h (1 Bft) S-SW 200 0 min 0,000 mm 0,0 UV-I 0 W/m 6,5 C 10,2 C 3,2 km/h (1 Bft) 100,00 %
19.04.2018 01:16 10,1 C 12,2 C 78 % 1030,0 hPa 0,0 l/m 2,1 km/h (1 Bft) S-SW 200 0 min 0,000 mm 0,0 UV-I 0 W/m 6,4 C 10,1 C 3,2 km/h (1 Bft) 100,00 %
19.04.2018 01:17 9,8 C 12,2 C 79 % 1030,0 hPa 0,0 l/m 2,5 km/h (1 Bft) S-SW 200 0 min 0,000 mm 0,0 UV-I 0 W/m 6,3 C 9,8 C 3,2 km/h (1 Bft) 100,00 %
19.04.2018 01:18 9,6 C 12,2 C 80 % 1030,0 hPa 0,0 l/m 2,4 km/h (1 Bft) S-SW 200 0 min 0,000 mm 0,0 UV-I 0 W/m 6,3 C 9,6 C 3,2 km/h (1 Bft) 100,00 %
19.04.2018 01:19 9,3 C 12,2 C 82 % 1030,0 hPa 0,0 l/m 1,5 km/h (1 Bft) S-SW 200 0 min 0,000 mm 0,0 UV-I 0 W/m 6,4 C 9,3 C 3,2 km/h (1 Bft) 100,00 %
19.04.2018 01:20 9,3 C 12,2 C 82 % 1030,0 hPa 0,0 l/m 0,3 km/h (0 Bft) S-SW 200 0 min 0,000 mm 0,0 UV-I 0 W/m 6,4 C 9,3 C 1,6 km/h (1 Bft) 95,65 %
19.04.2018 01:21 9,3 C 12,2 C 82 % 1030,0 hPa 0,0 l/m 0,0 km/h (0 Bft) S-SW 200 0 min 0,000 mm 0,0 UV-I 0 W/m 6,4 C 9,3 C 0,0 km/h (0 Bft) 100,00 %
19.04.2018 01:22 9,3 C 12,2 C 82 % 1030,0 hPa 0,0 l/m 0,0 km/h (0 Bft) S-SW 200 0 min 0,000 mm 0,0 UV-I 0 W/m 6,4 C 9,3 C 0,0 km/h (0 Bft) 91,67 %
19.04.2018 01:23 9,5 C 12,2 C 82 % 1030,0 hPa 0,0 l/m 0,0 km/h (0 Bft) S-SW 200 0 min 0,000 mm 0,0 UV-I 0 W/m 6,6 C 9,5 C 0,0 km/h (0 Bft) 100,00 %
19.04.2018 01:24 9,6 C 12,2 C 80 % 1030,0 hPa 0,0 l/m 0,0 km/h (0 Bft) S-SW 200 0 min 0,000 mm 0,0 UV-I 0 W/m 6,3 C 9,6 C 0,0 km/h (0 Bft) 100,00 %
19.04.2018 01:25 9,7 C 12,2 C 81 % 1030,0 hPa 0,0 l/m 0,0 km/h (0 Bft) S-SW 200 0 min 0,000 mm 0,0 UV-I 0 W/m 6,6 C 9,7 C 0,0 km/h (0 Bft) 100,00 %
19.04.2018 01:26 9,7 C 12,2 C 81 % 1030,0 hPa 0,0 l/m 0,3 km/h (0 Bft) S-SW 200 0 min 0,000 mm 0,0 UV-I 0 W/m 6,6 C 9,7 C 1,6 km/h (1 Bft) 91,30 %
19.04.2018 01:27 9,7 C 12,2 C 80 % 1030,0 hPa 0,0 l/m 2,2 km/h (1 Bft) S-SW 200 0 min 0,000 mm 0,0 UV-I 0 W/m 6,4 C 9,7 C 3,2 km/h (1 Bft) 100,00 %
19.04.2018 01:28 9,6 C 12,2 C 81 % 1030,0 hPa 0,0 l/m 2,8 km/h (1 Bft) S-SW 200 0 min 0,000 mm 0,0 UV-I 0 W/m 6,5 C 9,6 C 3,2 km/h (1 Bft) 100,00 %
19.04.2018 01:29 9,3 C 12,2 C 80 % 1030,0 hPa 0,0 l/m 2,4 km/h (1 Bft) S-SW 200 0 min 0,000 mm 0,0 UV-I 0 W/m 6,0 C 9,3 C 3,2 km/h (1 Bft) 100,00 %
19.04.2018 01:30 9,0 C 12,2 C 82 % 1030,0 hPa 0,0 l/m 2,9 km/h (1 Bft) S-SW 200 0 min 0,000 mm 0,0 UV-I 0 W/m 6,1 C 9,0 C 3,2 km/h (1 Bft) 100,00 %
19.04.2018 01:31 8,8 C 12,2 C 83 % 1030,0 hPa 0,0 l/m 2,8 km/h (1 Bft) S-SW 200 0 min 0,000 mm 0,0 UV-I 0 W/m 6,1 C 8,8 C 3,2 km/h (1 Bft) 100,00 %
19.04.2018 01:32 8,6 C 12,2 C 83 % 1030,0 hPa 0,0 l/m 2,7 km/h (1 Bft) S-SW 200 0 min 0,000 mm 0,0 UV-I 0 W/m 5,9 C 8,6 C 3,2 km/h (1 Bft) 100,00 %
19.04.2018 01:33 8,4 C 12,2 C 84 % 1030,0 hPa 0,0 l/m 2,3 km/h (1 Bft) S-SW 200 0 min 0,000 mm 0,0 UV-I 0 W/m 5,9 C 8,4 C 3,2 km/h (1 Bft) 100,00 %
19.04.2018 01:34 8,4 C 12,2 C 84 % 1029,9 hPa 0,0 l/m 1,5 km/h (1 Bft) S-SW 200 0 min 0,000 mm 0,0 UV-I 0 W/m 5,9 C 8,4 C 3,2 km/h (1 Bft) 95,83 %
19.04.2018 01:35 8,4 C 12,2 C 84 % 1029,9 hPa 0,0 l/m 1,0 km/h (0 Bft) S-SW 200 0 min 0,000 mm 0,0 UV-I 0 W/m 5,9 C 8,4 C 1,6 km/h (1 Bft) 95,65 %
19.04.2018 01:36 8,5 C 12,2 C 84 % 1030,0 hPa 0,0 l/m 1,5 km/h (1 Bft) S-SW 200 0 min 0,000 mm 0,0 UV-I 0 W/m 6,0 C 8,5 C 1,6 km/h (1 Bft) 100,00 %
19.04.2018 01:37 8,6 C 12,2 C 84 % 1030,0 hPa 0,0 l/m 1,3 km/h (1 Bft) S-SW 200 0 min 0,000 mm 0,0 UV-I 0 W/m 6,1 C 8,6 C 1,6 km/h (1 Bft) 95,65 %
19.04.2018 01:38 8,7 C 12,2 C 84 % 1030,0 hPa 0,0 l/m 1,5 km/h (1 Bft) S-SW 200 0 min 0,000 mm 0,0 UV-I 0 W/m 6,2 C 8,7 C 3,2 km/h (1 Bft) 100,00 %
19.04.2018 01:39 8,8 C 12,2 C 84 % 1030,1 hPa 0,0 l/m 2,1 km/h (1 Bft) S-SW 200 0 min 0,000 mm 0,0 UV-I 0 W/m 6,2 C 8,8 C 3,2 km/h (1 Bft) 92,31 %
19.04.2018 01:40 8,9 C 12,2 C 83 % 1030,1 hPa 0,0 l/m 2,2 km/h (1 Bft) S-SW 200 0 min 0,000 mm 0,0 UV-I 0 W/m 6,2 C 8,9 C 3,2 km/h (1 Bft) 100,00 %
19.04.2018 01:41 8,9 C 12,2 C 83 % 1030,1 hPa 0,0 l/m 2,1 km/h (1 Bft) S-SW 200 0 min 0,000 mm 0,0 UV-I 0 W/m 6,2 C 8,9 C 3,2 km/h (1 Bft) 96,67 %
19.04.2018 01:42 8,9 C 12,2 C 82 % 1030,0 hPa 0,0 l/m 2,2 km/h (1 Bft) S-SW 200 0 min 0,000 mm 0,0 UV-I 0 W/m 6,0 C 8,9 C 3,2 km/h (1 Bft) 95,83 %
19.04.2018 01:43 8,8 C 12,2 C 82 % 1030,0 hPa 0,0 l/m 2,2 km/h (1 Bft) S-SW 200 0 min 0,000 mm 0,0 UV-I 0 W/m 5,9 C 8,8 C 3,2 km/h (1 Bft) 100,00 %
19.04.2018 01:44 8,6 C 12,2 C 83 % 1030,0 hPa 0,0 l/m 1,4 km/h (1 Bft) S-SW 200 0 min 0,000 mm 0,0 UV-I 0 W/m 5,9 C 8,6 C 3,2 km/h (1 Bft) 95,83 %
19.04.2018 01:45 8,5 C 12,2 C 83 % 1030,0 hPa 0,0 l/m 1,9 km/h (1 Bft) S-SW 200 0 min 0,000 mm 0,0 UV-I 0 W/m 5,8 C 8,5 C 3,2 km/h (1 Bft) 100,00 %
19.04.2018 01:46 8,4 C 12,2 C 84 % 1030,0 hPa 0,0 l/m 2,3 km/h (1 Bft) S-SW 200 0 min 0,000 mm 0,0 UV-I 0 W/m 5,9 C 8,4 C 3,2 km/h (1 Bft) 96,15 %
19.04.2018 01:47 8,3 C 12,2 C 84 % 1030,0 hPa 0,0 l/m 3,2 km/h (1 Bft) S-SW 200 0 min 0,000 mm 0,0 UV-I 0 W/m 5,8 C 8,3 C 3,2 km/h (1 Bft) 100,00 %
19.04.2018 01:48 8,3 C 12,2 C 85 % 1030,0 hPa 0,0 l/m 3,0 km/h (1 Bft) S-SW 200 0 min 0,000 mm 0,0 UV-I 0 W/m 5,9 C 8,3 C 3,2 km/h (1 Bft) 95,65 %
19.04.2018 01:49 8,3 C 12,2 C 85 % 1030,0 hPa 0,0 l/m 2,9 km/h (1 Bft) S-SW 200 0 min 0,000 mm 0,0 UV-I 0 W/m 5,9 C 8,3 C 3,2 km/h (1 Bft) 100,00 %
19.04.2018 01:50 8,3 C 12,2 C 85 % 1030,1 hPa 0,0 l/m 2,3 km/h (1 Bft) S-SW 200 0 min 0,000 mm 0,0 UV-I 0 W/m 5,9 C 8,3 C 3,2 km/h (1 Bft) 96,15 %
19.04.2018 01:51 8,3 C 12,2 C 85 % 1030,0 hPa 0,0 l/m 2,4 km/h (1 Bft) S-SW 200 0 min 0,000 mm 0,0 UV-I 0 W/m 5,9 C 8,3 C 3,2 km/h (1 Bft) 95,83 %
19.04.2018 01:52 8,4 C 12,2 C 85 % 1030,0 hPa 0,0 l/m 2,8 km/h (1 Bft) S-SW 200 0 min 0,000 mm 0,0 UV-I 0 W/m 6,0 C 8,4 C 3,2 km/h (1 Bft) 95,65 %
19.04.2018 01:53 8,3 C 12,2 C 85 % 1030,0 hPa 0,0 l/m 2,9 km/h (1 Bft) S-SW 200 0 min 0,000 mm 0,0 UV-I 0 W/m 5,9 C 8,3 C 3,2 km/h (1 Bft) 96,67 %
19.04.2018 01:54 8,3 C 12,2 C 85 % 1030,0 hPa 0,0 l/m 2,8 km/h (1 Bft) S-SW 200 0 min 0,000 mm 0,0 UV-I 0 W/m 5,9 C 8,3 C 3,2 km/h (1 Bft) 100,00 %
19.04.2018 01:55 8,2 C 12,2 C 85 % 1030,0 hPa 0,0 l/m 3,1 km/h (1 Bft) S-SW 200 0 min 0,000 mm 0,0 UV-I 0 W/m 5,8 C 8,2 C 3,2 km/h (1 Bft) 96,30 %
19.04.2018 01:56 8,2 C 12,2 C 85 % 1030,0 hPa 0,0 l/m 2,3 km/h (1 Bft) S-SW 200 0 min 0,000 mm 0,0 UV-I 0 W/m 5,8 C 8,2 C 3,2 km/h (1 Bft) 95,65 %
19.04.2018 01:57 8,1 C 12,2 C 85 % 1030,1 hPa 0,0 l/m 1,9 km/h (1 Bft) S-SW 200 0 min 0,000 mm 0,0 UV-I 0 W/m 5,7 C 8,1 C 3,2 km/h (1 Bft) 95,83 %
19.04.2018 01:58 8,1 C 12,2 C 86 % 1030,0 hPa 0,0 l/m 2,3 km/h (1 Bft) S-SW 200 0 min 0,000 mm 0,0 UV-I 0 W/m 5,9 C 8,1 C 3,2 km/h (1 Bft) 96,55 %
19.04.2018 01:59 8,1 C 12,2 C 86 % 1030,0 hPa 0,0 l/m 2,4 km/h (1 Bft) S-SW 200 0 min 0,000 mm 0,0 UV-I 0 W/m 5,9 C 8,1 C 3,2 km/h (1 Bft) 100,00 %
19.04.2018 02:00 8,1 C 12,2 C 86 % 1030,0 hPa 0,0 l/m 2,9 km/h (1 Bft) S-SW 200 0 min 0,000 mm 0,0 UV-I 0 W/m 5,9 C 8,1 C 3,2 km/h (1 Bft) 95,65 %
19.04.2018 02:01 8,1 C 12,2 C 86 % 1030,0 hPa 0,0 l/m 2,5 km/h (1 Bft) S-SW 200 0 min 0,000 mm 0,0 UV-I 0 W/m 5,9 C 8,1 C 3,2 km/h (1 Bft) 100,00 %
19.04.2018 02:02 8,2 C 12,2 C 86 % 1030,0 hPa 0,0 l/m 2,8 km/h (1 Bft) S-SW 200 0 min 0,000 mm 0,0 UV-I 0 W/m 6,0 C 8,2 C 3,2 km/h (1 Bft) 100,00 %
19.04.2018 02:03 8,2 C 12,2 C 86 % 1030,0 hPa 0,0 l/m 3,0 km/h (1 Bft) S-SW 200 0 min 0,000 mm 0,0 UV-I 0 W/m 6,0 C 8,2 C 3,2 km/h (1 Bft) 90,91 %
19.04.2018 02:04 8,1 C 12,2 C 86 % 1030,0 hPa 0,0 l/m 2,2 km/h (1 Bft) S-SW 200 0 min 0,000 mm 0,0 UV-I 0 W/m 5,9 C 8,1 C 3,2 km/h (1 Bft) 91,67 %
19.04.2018 02:05 8,2 C 12,2 C 86 % 1030,0 hPa 0,0 l/m 2,5 km/h (1 Bft) S-SW 200 0 min 0,000 mm 0,0 UV-I 0 W/m 6,0 C 8,2 C 3,2 km/h (1 Bft) 100,00 %
19.04.2018 02:06 8,3 C 12,2 C 86 % 1030,0 hPa 0,0 l/m 2,7 km/h (1 Bft) S-SW 200 0 min 0,000 mm 0,0 UV-I 0 W/m 6,1 C 8,3 C 3,2 km/h (1 Bft) 92,31 %
19.04.2018 02:07 8,3 C 12,2 C 86 % 1030,0 hPa 0,0 l/m 2,5 km/h (1 Bft) S-SW 200 0 min 0,000 mm 0,0 UV-I 0 W/m 6,1 C 8,3 C 3,2 km/h (1 Bft) 95,83 %
19.04.2018 02:08 8,3 C 12,2 C 85 % 1030,0 hPa 0,0 l/m 2,7 km/h (1 Bft) S-SW 200 0 min 0,000 mm 0,0 UV-I 0 W/m 5,9 C 8,3 C 3,2 km/h (1 Bft) 95,83 %
19.04.2018 02:09 8,2 C 12,2 C 85 % 1030,0 hPa 0,0 l/m 2,3 km/h (1 Bft) S-SW 200 0 min 0,000 mm 0,0 UV-I 0 W/m 5,8 C 8,2 C 3,2 km/h (1 Bft) 86,96 %
19.04.2018 02:10 8,3 C 12,2 C 86 % 1030,0 hPa 0,0 l/m 2,0 km/h (1 Bft) S-SW 200 0 min 0,000 mm 0,0 UV-I 0 W/m 6,1 C 8,3 C 3,2 km/h (1 Bft) 100,00 %
19.04.2018 02:11 8,3 C 12,2 C 85 % 1030,0 hPa 0,0 l/m 1,2 km/h (1 Bft) S-SW 200 0 min 0,000 mm 0,0 UV-I 0 W/m 5,9 C 8,3 C 1,6 km/h (1 Bft) 92,31 %
19.04.2018 02:12 8,4 C 12,2 C 85 % 1030,0 hPa 0,0 l/m 1,7 km/h (1 Bft) S-SW 200 0 min 0,000 mm 0,0 UV-I 0 W/m 6,0 C 8,4 C 3,2 km/h (1 Bft) 95,83 %
19.04.2018 02:13 8,4 C 12,2 C 85 % 1029,9 hPa 0,0 l/m 2,3 km/h (1 Bft) S-SW 200 0 min 0,000 mm 0,0 UV-I 0 W/m 6,0 C 8,4 C 3,2 km/h (1 Bft) 91,30 %
19.04.2018 02:14 8,4 C 12,2 C 85 % 1029,9 hPa 0,0 l/m 2,6 km/h (1 Bft) S-SW 200 0 min 0,000 mm 0,0 UV-I 0 W/m 6,0 C 8,4 C 3,2 km/h (1 Bft) 100,00 %
19.04.2018 02:15 8,5 C 12,2 C 85 % 1029,9 hPa 0,0 l/m 3,1 km/h (1 Bft) S-SW 200 0 min 0,000 mm 0,0 UV-I 0 W/m 6,1 C 8,5 C 3,2 km/h (1 Bft) 89,66 %
19.04.2018 02:16 8,5 C 12,2 C 85 % 1029,9 hPa 0,0 l/m 3,4 km/h (1 Bft) S-SW 200 0 min 0,000 mm 0,0 UV-I 0 W/m 6,1 C 8,5 C 4,8 km/h (1 Bft) 100,00 %
19.04.2018 02:17 8,4 C 12,2 C 84 % 1029,9 hPa 0,0 l/m 3,4 km/h (1 Bft) S-SW 200 0 min 0,000 mm 0,0 UV-I 0 W/m 5,9 C 8,4 C 4,8 km/h (1 Bft) 92,31 %
19.04.2018 02:18 8,3 C 12,2 C 84 % 1029,9 hPa 0,0 l/m 3,2 km/h (1 Bft) S-SW 200 0 min 0,000 mm 0,0 UV-I 0 W/m 5,8 C 8,3 C 3,2 km/h (1 Bft) 95,83 %
19.04.2018 02:19 8,3 C 12,2 C 85 % 1029,9 hPa 0,0 l/m 3,4 km/h (1 Bft) S-SW 200 0 min 0,000 mm 0,0 UV-I 0 W/m 5,9 C 8,3 C 4,8 km/h (1 Bft) 96,15 %
19.04.2018 02:20 8,3 C 12,2 C 85 % 1029,8 hPa 0,0 l/m 3,0 km/h (1 Bft) S-SW 200 0 min 0,000 mm 0,0 UV-I 0 W/m 5,9 C 8,3 C 3,2 km/h (1 Bft) 96,30 %
19.04.2018 02:21 8,4 C 12,2 C 85 % 1029,8 hPa 0,0 l/m 2,7 km/h (1 Bft) S-SW 200 0 min 0,000 mm 0,0 UV-I 0 W/m 6,0 C 8,4 C 3,2 km/h (1 Bft) 100,00 %
19.04.2018 02:22 8,5 C 12,2 C 85 % 1029,8 hPa 0,0 l/m 2,4 km/h (1 Bft) S-SW 200 0 min 0,000 mm 0,0 UV-I 0 W/m 6,1 C 8,5 C 3,2 km/h (1 Bft) 100,00 %
19.04.2018 02:23 8,5 C 12,2 C 84 % 1029,8 hPa 0,0 l/m 2,7 km/h (1 Bft) S-SW 200 0 min 0,000 mm 0,0 UV-I 0 W/m 6,0 C 8,5 C 3,2 km/h (1 Bft) 95,83 %
19.04.2018 02:24 8,5 C 12,2 C 84 % 1029,8 hPa 0,0 l/m 3,1 km/h (1 Bft) S-SW 200 0 min 0,000 mm 0,0 UV-I 0 W/m 6,0 C 8,5 C 3,2 km/h (1 Bft) 96,55 %
19.04.2018 02:25 8,4 C 12,2 C 84 % 1029,8 hPa 0,0 l/m 3,3 km/h (1 Bft) S-SW 200 0 min 0,000 mm 0,0 UV-I 0 W/m 5,9 C 8,4 C 4,8 km/h (1 Bft) 100,00 %
19.04.2018 02:26 8,3 C 12,2 C 84 % 1029,8 hPa 0,0 l/m 4,1 km/h (1 Bft) S-SW 200 0 min 0,000 mm 0,0 UV-I 0 W/m 5,8 C 8,3 C 4,8 km/h (1 Bft) 93,10 %
19.04.2018 02:27 8,2 C 12,2 C 84 % 1029,9 hPa 0,0 l/m 4,8 km/h (1 Bft) S-SW 200 0 min 0,000 mm 0,0 UV-I 0 W/m 5,7 C 8,2 C 6,4 km/h (2 Bft) 100,00 %
19.04.2018 02:28 8,1 C 12,2 C 84 % 1029,8 hPa 0,0 l/m 5,0 km/h (1 Bft) S-SW 200 0 min 0,000 mm 0,0 UV-I 0 W/m 5,6 C 8,1 C 6,4 km/h (2 Bft) 95,65 %
19.04.2018 02:29 7,9 C 12,2 C 84 % 1029,8 hPa 0,0 l/m 4,2 km/h (1 Bft) S-SW 200 0 min 0,000 mm 0,0 UV-I 0 W/m 5,4 C 7,9 C 4,8 km/h (1 Bft) 100,00 %
19.04.2018 02:30 7,9 C 12,2 C 85 % 1029,9 hPa 0,0 l/m 4,0 km/h (1 Bft) S-SW 200 0 min 0,000 mm 0,0 UV-I 0 W/m 5,5 C 7,9 C 4,8 km/h (1 Bft) 92,59 %
19.04.2018 02:31 7,9 C 12,2 C 85 % 1029,9 hPa 0,0 l/m 3,8 km/h (1 Bft) S-SW 200 0 min 0,000 mm 0,0 UV-I 0 W/m 5,5 C 7,9 C 4,8 km/h (1 Bft) 100,00 %
19.04.2018 02:32 8,0 C 12,2 C 85 % 1029,9 hPa 0,0 l/m 3,8 km/h (1 Bft) S-SW 200 0 min 0,000 mm 0,0 UV-I 0 W/m 5,6 C 8,0 C 4,8 km/h (1 Bft) 95,65 %
19.04.2018 02:33 8,1 C 12,2 C 85 % 1029,9 hPa 0,0 l/m 3,9 km/h (1 Bft) S-SW 200 0 min 0,000 mm 0,0 UV-I 0 W/m 5,7 C 8,1 C 4,8 km/h (1 Bft) 100,00 %
19.04.2018 02:34 8,1 C 12,2 C 85 % 1029,9 hPa 0,0 l/m 3,3 km/h (1 Bft) S-SW 200 0 min 0,000 mm 0,0 UV-I 0 W/m 5,7 C 8,1 C 4,8 km/h (1 Bft) 96,15 %
19.04.2018 02:35 8,2 C 12,2 C 85 % 1029,9 hPa 0,0 l/m 3,2 km/h (1 Bft) S-SW 200 0 min 0,000 mm 0,0 UV-I 0 W/m 5,8 C 8,2 C 4,8 km/h (1 Bft) 95,83 %
19.04.2018 02:36 8,3 C 12,2 C 84 % 1029,9 hPa 0,0 l/m 3,3 km/h (1 Bft) S-SW 200 0 min 0,000 mm 0,0 UV-I 0 W/m 5,8 C 8,3 C 4,8 km/h (1 Bft) 96,15 %
19.04.2018 02:37 8,3 C 12,2 C 84 % 1029,9 hPa 0,0 l/m 3,4 km/h (1 Bft) S-SW 200 0 min 0,000 mm 0,0 UV-I 0 W/m 5,8 C 8,3 C 4,8 km/h (1 Bft) 95,83 %
19.04.2018 02:38 8,3 C 12,2 C 84 % 1029,9 hPa 0,0 l/m 3,3 km/h (1 Bft) S-SW 200 0 min 0,000 mm 0,0 UV-I 0 W/m 5,8 C 8,3 C 4,8 km/h (1 Bft) 100,00 %
19.04.2018 02:39 8,4 C 12,2 C 84 % 1029,9 hPa 0,0 l/m 3,5 km/h (1 Bft) S-SW 200 0 min 0,000 mm 0,0 UV-I 0 W/m 5,9 C 8,4 C 4,8 km/h (1 Bft) 95,83 %
19.04.2018 02:40 8,4 C 12,2 C 84 % 1029,9 hPa 0,0 l/m 4,3 km/h (1 Bft) S-SW 200 0 min 0,000 mm 0,0 UV-I 0 W/m 5,9 C 8,4 C 4,8 km/h (1 Bft) 100,00 %
19.04.2018 02:41 8,4 C 12,2 C 83 % 1029,9 hPa 0,0 l/m 4,1 km/h (1 Bft) S-SW 200 0 min 0,000 mm 0,0 UV-I 0 W/m 5,7 C 8,4 C 4,8 km/h (1 Bft) 93,33 %
19.04.2018 02:42 8,4 C 12,2 C 83 % 1029,9 hPa 0,0 l/m 3,8 km/h (1 Bft) S-SW 200 0 min 0,000 mm 0,0 UV-I 0 W/m 5,7 C 8,4 C 4,8 km/h (1 Bft) 100,00 %
19.04.2018 02:43 8,4 C 12,2 C 83 % 1029,8 hPa 0,0 l/m 2,9 km/h (1 Bft) S-SW 200 0 min 0,000 mm 0,0 UV-I 0 W/m 5,7 C 8,4 C 3,2 km/h (1 Bft) 96,15 %
19.04.2018 02:44 8,4 C 12,2 C 83 % 1029,9 hPa 0,0 l/m 2,7 km/h (1 Bft) S-SW 200 0 min 0,000 mm 0,0 UV-I 0 W/m 5,7 C 8,4 C 3,2 km/h (1 Bft) 100,00 %
19.04.2018 02:45 8,4 C 12,2 C 83 % 1029,9 hPa 0,0 l/m 2,8 km/h (1 Bft) S-SW 200 0 min 0,000 mm 0,0 UV-I 0 W/m 5,7 C 8,4 C 3,2 km/h (1 Bft) 95,65 %
19.04.2018 02:46 8,4 C 12,2 C 83 % 1029,8 hPa 0,0 l/m 3,4 km/h (1 Bft) S-SW 200 0 min 0,000 mm 0,0 UV-I 0 W/m 5,7 C 8,4 C 4,8 km/h (1 Bft) 95,83 %
19.04.2018 02:47 8,5 C 12,2 C 83 % 1029,9 hPa 0,0 l/m 3,7 km/h (1 Bft) S-SW 200 0 min 0,000 mm 0,0 UV-I 0 W/m 5,8 C 8,5 C 4,8 km/h (1 Bft) 95,65 %
19.04.2018 02:48 8,5 C 12,2 C 83 % 1029,9 hPa 0,0 l/m 3,9 km/h (1 Bft) S-SW 200 0 min 0,000 mm 0,0 UV-I 0 W/m 5,8 C 8,5 C 4,8 km/h (1 Bft) 100,00 %
19.04.2018 02:49 8,5 C 12,2 C 83 % 1029,8 hPa 0,0 l/m 3,5 km/h (1 Bft) S-SW 200 0 min 0,000 mm 0,0 UV-I 0 W/m 5,8 C 8,5 C 4,8 km/h (1 Bft) 96,55 %
19.04.2018 02:50 8,5 C 12,2 C 82 % 1029,8 hPa 0,0 l/m 3,1 km/h (1 Bft) S-SW 200 0 min 0,000 mm 0,0 UV-I 0 W/m 5,6 C 8,5 C 4,8 km/h (1 Bft) 96,30 %
19.04.2018 02:51 8,5 C 12,2 C 83 % 1029,9 hPa 0,0 l/m 3,0 km/h (1 Bft) S-SW 200 0 min 0,000 mm 0,0 UV-I 0 W/m 5,8 C 8,5 C 4,8 km/h (1 Bft) 100,00 %
19.04.2018 02:52 8,5 C 12,2 C 83 % 1029,9 hPa 0,0 l/m 3,7 km/h (1 Bft) S-SW 200 0 min 0,000 mm 0,0 UV-I 0 W/m 5,8 C 8,5 C 4,8 km/h (1 Bft) 95,83 %
19.04.2018 02:53 8,5 C 12,2 C 82 % 1029,9 hPa 0,0 l/m 4,3 km/h (1 Bft) S-SW 200 0 min 0,000 mm 0,0 UV-I 0 W/m 5,6 C 8,5 C 4,8 km/h (1 Bft) 96,15 %
19.04.2018 02:54 8,5 C 12,2 C 82 % 1029,9 hPa 0,0 l/m 3,1 km/h (1 Bft) S-SW 200 0 min 0,000 mm 0,0 UV-I 0 W/m 5,6 C 8,5 C 4,8 km/h (1 Bft) 91,67 %
19.04.2018 02:55 8,4 C 12,2 C 82 % 1029,9 hPa 0,0 l/m 2,4 km/h (1 Bft) S-SW 200 0 min 0,000 mm 0,0 UV-I 0 W/m 5,5 C 8,4 C 3,2 km/h (1 Bft) 96,30 %
19.04.2018 02:56 8,3 C 12,2 C 82 % 1029,9 hPa 0,0 l/m 2,4 km/h (1 Bft) S-SW 200 0 min 0,000 mm 0,0 UV-I 0 W/m 5,4 C 8,3 C 3,2 km/h (1 Bft) 96,15 %
19.04.2018 02:57 8,3 C 12,2 C 83 % 1029,9 hPa 0,0 l/m 2,7 km/h (1 Bft) S-SW 200 0 min 0,000 mm 0,0 UV-I 0 W/m 5,6 C 8,3 C 3,2 km/h (1 Bft) 95,65 %
19.04.2018 02:58 8,3 C 12,2 C 83 % 1029,8 hPa 0,0 l/m 2,0 km/h (1 Bft) S-SW 200 0 min 0,000 mm 0,0 UV-I 0 W/m 5,6 C 8,3 C 3,2 km/h (1 Bft) 100,00 %
19.04.2018 02:59 8,3 C 12,2 C 83 % 1029,8 hPa 0,0 l/m 1,7 km/h (1 Bft) S-SW 200 0 min 0,000 mm 0,0 UV-I 0 W/m 5,6 C 8,3 C 3,2 km/h (1 Bft) 95,65 %
19.04.2018 03:00 8,3 C 12,2 C 83 % 1029,9 hPa 0,0 l/m 1,3 km/h (1 Bft) S-SW 200 0 min 0,000 mm 0,0 UV-I 0 W/m 5,6 C 8,3 C 1,6 km/h (1 Bft) 100,00 %
19.04.2018 03:01 8,4 C 12,2 C 83 % 1029,9 hPa 0,0 l/m 0,0 km/h (0 Bft) S-SW 200 0 min 0,000 mm 0,0 UV-I 0 W/m 5,7 C 8,4 C 0,0 km/h (0 Bft) 92,59 %
19.04.2018 03:02 8,4 C 12,2 C 83 % 1029,9 hPa 0,0 l/m 0,0 km/h (0 Bft) S-SW 200 0 min 0,000 mm 0,0 UV-I 0 W/m 5,7 C 8,4 C 0,0 km/h (0 Bft) 100,00 %
19.04.2018 03:03 8,4 C 12,2 C 83 % 1029,9 hPa 0,0 l/m 0,0 km/h (0 Bft) S-SW 200 0 min 0,000 mm 0,0 UV-I 0 W/m 5,7 C 8,4 C 0,0 km/h (0 Bft) 100,00 %
19.04.2018 03:04 8,4 C 12,2 C 82 % 1029,9 hPa 0,0 l/m 0,3 km/h (0 Bft) S-SW 200 0 min 0,000 mm 0,0 UV-I 0 W/m 5,5 C 8,4 C 1,6 km/h (1 Bft) 95,65 %
19.04.2018 03:05 8,4 C 12,2 C 82 % 1029,9 hPa 0,0 l/m 1,8 km/h (1 Bft) S-SW 200 0 min 0,000 mm 0,0 UV-I 0 W/m 5,5 C 8,4 C 3,2 km/h (1 Bft) 95,83 %
19.04.2018 03:06 8,4 C 12,2 C 82 % 1029,9 hPa 0,0 l/m 2,3 km/h (1 Bft) S-SW 200 0 min 0,000 mm 0,0 UV-I 0 W/m 5,5 C 8,4 C 3,2 km/h (1 Bft) 96,15 %
19.04.2018 03:07 8,4 C 12,2 C 83 % 1029,9 hPa 0,0 l/m 2,6 km/h (1 Bft) S-SW 200 0 min 0,000 mm 0,0 UV-I 0 W/m 5,7 C 8,4 C 3,2 km/h (1 Bft) 100,00 %
19.04.2018 03:08 8,4 C 12,2 C 83 % 1029,9 hPa 0,0 l/m 2,5 km/h (1 Bft) S-SW 200 0 min 0,000 mm 0,0 UV-I 0 W/m 5,7 C 8,4 C 3,2 km/h (1 Bft) 100,00 %
19.04.2018 03:09 8,3 C 12,2 C 83 % 1029,9 hPa 0,0 l/m 3,1 km/h (1 Bft) S-SW 200 0 min 0,000 mm 0,0 UV-I 0 W/m 5,6 C 8,3 C 3,2 km/h (1 Bft) 100,00 %
19.04.2018 03:10 8,3 C 12,2 C 83 % 1029,8 hPa 0,0 l/m 3,2 km/h (1 Bft) S-SW 200 0 min 0,000 mm 0,0 UV-I 0 W/m 5,6 C 8,3 C 3,2 km/h (1 Bft) 95,65 %
19.04.2018 03:11 8,2 C 12,2 C 83 % 1029,8 hPa 0,0 l/m 3,3 km/h (1 Bft) S-SW 200 0 min 0,000 mm 0,0 UV-I 0 W/m 5,5 C 8,2 C 4,8 km/h (1 Bft) 95,83 %
19.04.2018 03:12 8,2 C 12,2 C 83 % 1029,8 hPa 0,0 l/m 3,0 km/h (1 Bft) S-SW 200 0 min 0,000 mm 0,0 UV-I 0 W/m 5,5 C 8,2 C 3,2 km/h (1 Bft) 100,00 %
19.04.2018 03:13 8,2 C 12,2 C 84 % 1029,8 hPa 0,0 l/m 1,9 km/h (1 Bft) S-SW 200 0 min 0,000 mm 0,0 UV-I 0 W/m 5,7 C 8,2 C 3,2 km/h (1 Bft) 100,00 %
19.04.2018 03:14 8,2 C 12,2 C 84 % 1029,9 hPa 0,0 l/m 2,2 km/h (1 Bft) S-SW 200 0 min 0,000 mm 0,0 UV-I 0 W/m 5,7 C 8,2 C 3,2 km/h (1 Bft) 100,00 %
19.04.2018 03:15 8,2 C 12,2 C 84 % 1029,9 hPa 0,0 l/m 2,3 km/h (1 Bft) S-SW 200 0 min 0,000 mm 0,0 UV-I 0 W/m 5,7 C 8,2 C 3,2 km/h (1 Bft) 100,00 %
19.04.2018 03:16 8,3 C 12,2 C 84 % 1029,9 hPa 0,0 l/m 3,0 km/h (1 Bft) S-SW 200 0 min 0,000 mm 0,0 UV-I 0 W/m 5,8 C 8,3 C 3,2 km/h (1 Bft) 95,65 %
19.04.2018 03:17 8,3 C 12,2 C 84 % 1029,8 hPa 0,0 l/m 3,7 km/h (1 Bft) S-SW 200 0 min 0,000 mm 0,0 UV-I 0 W/m 5,8 C 8,3 C 4,8 km/h (1 Bft) 100,00 %
19.04.2018 03:18 8,3 C 12,2 C 84 % 1029,9 hPa 0,0 l/m 3,8 km/h (1 Bft) S-SW 200 0 min 0,000 mm 0,0 UV-I 0 W/m 5,8 C 8,3 C 4,8 km/h (1 Bft) 100,00 %
19.04.2018 03:19 8,4 C 12,2 C 84 % 1029,9 hPa 0,0 l/m 4,3 km/h (1 Bft) S-SW 200 0 min 0,000 mm 0,0 UV-I 0 W/m 5,9 C 8,4 C 4,8 km/h (1 Bft) 100,00 %
19.04.2018 03:20 8,3 C 12,2 C 83 % 1029,9 hPa 0,0 l/m 4,4 km/h (1 Bft) S-SW 200 0 min 0,000 mm 0,0 UV-I 0 W/m 5,6 C 8,3 C 4,8 km/h (1 Bft) 100,00 %
19.04.2018 03:21 8,2 C 12,2 C 83 % 1029,8 hPa 0,0 l/m 4,1 km/h (1 Bft) S-SW 200 0 min 0,000 mm 0,0 UV-I 0 W/m 5,5 C 8,2 C 4,8 km/h (1 Bft) 100,00 %
19.04.2018 03:22 7,9 C 12,2 C 83 % 1029,8 hPa 0,0 l/m 4,4 km/h (1 Bft) S-SW 200 0 min 0,000 mm 0,0 UV-I 0 W/m 5,2 C 7,9 C 4,8 km/h (1 Bft) 100,00 %
19.04.2018 03:23 7,8 C 12,2 C 84 % 1029,9 hPa 0,0 l/m 3,3 km/h (1 Bft) S-SW 200 0 min 0,000 mm 0,0 UV-I 0 W/m 5,3 C 7,8 C 4,8 km/h (1 Bft) 95,65 %
19.04.2018 03:24 7,7 C 12,2 C 84 % 1029,9 hPa 0,0 l/m 2,6 km/h (1 Bft) S-SW 200 0 min 0,000 mm 0,0 UV-I 0 W/m 5,2 C 7,7 C 3,2 km/h (1 Bft) 95,83 %
19.04.2018 03:25 7,8 C 12,2 C 85 % 1029,9 hPa 0,0 l/m 2,3 km/h (1 Bft) S-SW 200 0 min 0,000 mm 0,0 UV-I 0 W/m 5,4 C 7,8 C 3,2 km/h (1 Bft) 100,00 %
19.04.2018 03:26 7,8 C 12,2 C 85 % 1029,9 hPa 0,0 l/m 2,5 km/h (1 Bft) S-SW 200 0 min 0,000 mm 0,0 UV-I 0 W/m 5,4 C 7,8 C 3,2 km/h (1 Bft) 100,00 %
19.04.2018 03:27 7,8 C 12,2 C 85 % 1029,9 hPa 0,0 l/m 2,9 km/h (1 Bft) S-SW 200 0 min 0,000 mm 0,0 UV-I 0 W/m 5,4 C 7,8 C 4,8 km/h (1 Bft) 100,00 %
19.04.2018 03:28 7,9 C 12,2 C 85 % 1029,9 hPa 0,0 l/m 3,8 km/h (1 Bft) S-SW 200 0 min 0,000 mm 0,0 UV-I 0 W/m 5,5 C 7,9 C 4,8 km/h (1 Bft) 100,00 %
19.04.2018 03:29 7,9 C 12,2 C 84 % 1029,9 hPa 0,0 l/m 4,0 km/h (1 Bft) S-SW 200 0 min 0,000 mm 0,0 UV-I 0 W/m 5,4 C 7,9 C 4,8 km/h (1 Bft) 100,00 %
19.04.2018 03:30 8,0 C 12,2 C 84 % 1029,9 hPa 0,0 l/m 3,6 km/h (1 Bft) S-SW 200 0 min 0,000 mm 0,0 UV-I 0 W/m 5,5 C 8,0 C 4,8 km/h (1 Bft) 100,00 %
19.04.2018 03:31 8,0 C 12,2 C 84 % 1029,9 hPa 0,0 l/m 3,3 km/h (1 Bft) S-SW 200 0 min 0,000 mm 0,0 UV-I 0 W/m 5,5 C 8,0 C 4,8 km/h (1 Bft) 100,00 %
19.04.2018 03:32 8,0 C 12,2 C 84 % 1029,9 hPa 0,0 l/m 2,0 km/h (1 Bft) S-SW 200 0 min 0,000 mm 0,0 UV-I 0 W/m 5,5 C 8,0 C 3,2 km/h (1 Bft) 100,00 %
19.04.2018 03:33 8,0 C 12,2 C 84 % 1029,9 hPa 0,0 l/m 1,6 km/h (1 Bft) S-SW 200 0 min 0,000 mm 0,0 UV-I 0 W/m 5,5 C 8,0 C 1,6 km/h (1 Bft) 100,00 %
19.04.2018 03:34 8,1 C 12,2 C 84 % 1029,9 hPa 0,0 l/m 1,9 km/h (1 Bft) S-SW 200 0 min 0,000 mm 0,0 UV-I 0 W/m 5,6 C 8,1 C 3,2 km/h (1 Bft) 96,30 %
19.04.2018 03:35 8,1 C 12,2 C 84 % 1030,0 hPa 0,0 l/m 1,9 km/h (1 Bft) S-SW 200 0 min 0,000 mm 0,0 UV-I 0 W/m 5,6 C 8,1 C 3,2 km/h (1 Bft) 100,00 %
19.04.2018 03:36 8,2 C 12,2 C 84 % 1030,0 hPa 0,0 l/m 2,3 km/h (1 Bft) S-SW 200 0 min 0,000 mm 0,0 UV-I 0 W/m 5,7 C 8,2 C 3,2 km/h (1 Bft) 100,00 %
19.04.2018 03:37 8,2 C 12,2 C 83 % 1029,9 hPa 0,0 l/m 2,3 km/h (1 Bft) S-SW 200 0 min 0,000 mm 0,0 UV-I 0 W/m 5,5 C 8,2 C 3,2 km/h (1 Bft) 100,00 %
19.04.2018 03:38 8,2 C 12,2 C 83 % 1029,9 hPa 0,0 l/m 2,5 km/h (1 Bft) S-SW 200 0 min 0,000 mm 0,0 UV-I 0 W/m 5,5 C 8,2 C 3,2 km/h (1 Bft) 96,55 %
19.04.2018 03:39 8,2 C 12,2 C 83 % 1029,9 hPa 0,0 l/m 2,9 km/h (1 Bft) S-SW 200 0 min 0,000 mm 0,0 UV-I 0 W/m 5,5 C 8,2 C 3,2 km/h (1 Bft) 100,00 %
19.04.2018 03:40 8,1 C 12,2 C 83 % 1030,0 hPa 0,0 l/m 3,2 km/h (1 Bft) S-SW 200 0 min 0,000 mm 0,0 UV-I 0 W/m 5,4 C 8,1 C 3,2 km/h (1 Bft) 96,55 %
19.04.2018 03:41 8,0 C 12,2 C 84 % 1030,0 hPa 0,0 l/m 3,0 km/h (1 Bft) S-SW 200 0 min 0,000 mm 0,0 UV-I 0 W/m 5,5 C 8,0 C 3,2 km/h (1 Bft) 100,00 %
19.04.2018 03:42 7,9 C 12,2 C 84 % 1029,9 hPa 0,0 l/m 3,2 km/h (1 Bft) S-SW 200 0 min 0,000 mm 0,0 UV-I 0 W/m 5,4 C 7,9 C 3,2 km/h (1 Bft) 100,00 %
19.04.2018 03:43 7,9 C 12,2 C 84 % 1029,9 hPa 0,0 l/m 3,3 km/h (1 Bft) S-SW 200 0 min 0,000 mm 0,0 UV-I 0 W/m 5,4 C 7,9 C 4,8 km/h (1 Bft) 100,00 %
19.04.2018 03:44 7,8 C 12,2 C 84 % 1029,9 hPa 0,0 l/m 2,3 km/h (1 Bft) S-SW 200 0 min 0,000 mm 0,0 UV-I 0 W/m 5,3 C 7,8 C 3,2 km/h (1 Bft) 100,00 %
19.04.2018 03:45 7,6 C 12,2 C 84 % 1029,9 hPa 0,0 l/m 1,3 km/h (1 Bft) S-SW 200 0 min 0,000 mm 0,0 UV-I 0 W/m 5,1 C 7,6 C 1,6 km/h (1 Bft) 91,67 %
19.04.2018 03:46 7,4 C 12,2 C 85 % 1029,9 hPa 0,0 l/m 0,9 km/h (0 Bft) S-SW 200 0 min 0,000 mm 0,0 UV-I 0 W/m 5,0 C 7,4 C 1,6 km/h (1 Bft) 100,00 %
19.04.2018 03:47 7,2 C 12,2 C 85 % 1029,9 hPa 0,0 l/m 0,5 km/h (0 Bft) S-SW 200 0 min 0,000 mm 0,0 UV-I 0 W/m 4,9 C 7,2 C 1,6 km/h (1 Bft) 96,30 %
19.04.2018 03:48 7,2 C 12,2 C 86 % 1029,9 hPa 0,0 l/m 0,0 km/h (0 Bft) S-SW 200 0 min 0,000 mm 0,0 UV-I 0 W/m 5,0 C 7,2 C 0,0 km/h (0 Bft) 100,00 %
19.04.2018 03:49 7,2 C 12,2 C 86 % 1029,9 hPa 0,0 l/m 0,2 km/h (0 Bft) S-SW 200 0 min 0,000 mm 0,0 UV-I 0 W/m 5,0 C 7,2 C 1,6 km/h (1 Bft) 100,00 %
19.04.2018 03:50 7,3 C 12,2 C 86 % 1029,9 hPa 0,0 l/m 0,1 km/h (0 Bft) S-SW 200 0 min 0,000 mm 0,0 UV-I 0 W/m 5,1 C 7,3 C 1,6 km/h (1 Bft) 100,00 %
19.04.2018 03:51 7,4 C 12,2 C 85 % 1029,9 hPa 0,0 l/m 0,0 km/h (0 Bft) S-SW 200 0 min 0,000 mm 0,0 UV-I 0 W/m 5,0 C 7,4 C 0,0 km/h (0 Bft) 100,00 %
19.04.2018 03:52 7,6 C 12,2 C 85 % 1029,9 hPa 0,0 l/m 0,5 km/h (0 Bft) S-SW 200 0 min 0,000 mm 0,0 UV-I 0 W/m 5,2 C 7,6 C 1,6 km/h (1 Bft) 100,00 %
19.04.2018 03:53 7,8 C 12,2 C 85 % 1029,9 hPa 0,0 l/m 0,0 km/h (0 Bft) S-SW 200 0 min 0,000 mm 0,0 UV-I 0 W/m 5,4 C 7,8 C 0,0 km/h (0 Bft) 100,00 %
19.04.2018 03:54 7,9 C 12,2 C 84 % 1029,8 hPa 0,0 l/m 0,0 km/h (0 Bft) S-SW 200 0 min 0,000 mm 0,0 UV-I 0 W/m 5,4 C 7,9 C 0,0 km/h (0 Bft) 100,00 %
19.04.2018 03:55 8,0 C 12,2 C 84 % 1029,9 hPa 0,0 l/m 0,0 km/h (0 Bft) S-SW 200 0 min 0,000 mm 0,0 UV-I 0 W/m 5,5 C 8,0 C 0,0 km/h (0 Bft) 100,00 %
19.04.2018 03:56 8,1 C 12,2 C 84 % 1029,8 hPa 0,0 l/m 0,0 km/h (0 Bft) S-SW 200 0 min 0,000 mm 0,0 UV-I 0 W/m 5,6 C 8,1 C 0,0 km/h (0 Bft) 100,00 %
19.04.2018 03:57 8,1 C 12,2 C 83 % 1029,8 hPa 0,0 l/m 0,0 km/h (0 Bft) S-SW 200 0 min 0,000 mm 0,0 UV-I 0 W/m 5,4 C 8,1 C 0,0 km/h (0 Bft) 100,00 %
19.04.2018 03:58 8,1 C 12,2 C 83 % 1029,8 hPa 0,0 l/m 0,0 km/h (0 Bft) S-SW 200 0 min 0,000 mm 0,0 UV-I 0 W/m 5,4 C 8,1 C 0,0 km/h (0 Bft) 100,00 %
19.04.2018 03:59 7,8 C 12,2 C 83 % 1029,8 hPa 0,0 l/m 0,8 km/h (0 Bft) S-SW 200 0 min 0,000 mm 0,0 UV-I 0 W/m 5,1 C 7,8 C 1,6 km/h (1 Bft) 100,00 %
19.04.2018 04:00 7,7 C 12,2 C 83 % 1029,8 hPa 0,0 l/m 1,3 km/h (1 Bft) S-SW 200 0 min 0,000 mm 0,0 UV-I 0 W/m 5,0 C 7,7 C 1,6 km/h (1 Bft) 100,00 %
19.04.2018 04:03 7,1 C 12,2 C 85 % 1029,8 hPa 0,0 l/m 1,6 km/h (1 Bft) S-SW 200 0 min 0,000 mm 0,0 UV-I 0 W/m 4,8 C 7,1 C 3,2 km/h (1 Bft) 100,00 %
19.04.2018 04:04 7,0 C 12,2 C 85 % 1029,8 hPa 0,0 l/m 1,9 km/h (1 Bft) S-SW 200 0 min 0,000 mm 0,0 UV-I 0 W/m 4,7 C 7,0 C 3,2 km/h (1 Bft) 95,83 %
19.04.2018 04:05 6,9 C 12,2 C 86 % 1029,8 hPa 0,0 l/m 1,0 km/h (0 Bft) S-SW 200 0 min 0,000 mm 0,0 UV-I 0 W/m 4,7 C 6,9 C 1,6 km/h (1 Bft) 100,00 %
19.04.2018 04:06 6,9 C 12,2 C 86 % 1029,8 hPa 0,0 l/m 0,0 km/h (0 Bft) S-SW 200 0 min 0,000 mm 0,0 UV-I 0 W/m 4,7 C 6,9 C 0,0 km/h (0 Bft) 96,30 %
19.04.2018 04:07 7,1 C 12,2 C 87 % 1029,8 hPa 0,0 l/m 0,0 km/h (0 Bft) S-SW 200 0 min 0,000 mm 0,0 UV-I 0 W/m 5,1 C 7,1 C 0,0 km/h (0 Bft) 95,65 %
19.04.2018 04:08 7,3 C 12,2 C 86 % 1029,8 hPa 0,0 l/m 0,0 km/h (0 Bft) S-SW 200 0 min 0,000 mm 0,0 UV-I 0 W/m 5,1 C 7,3 C 0,0 km/h (0 Bft) 100,00 %
19.04.2018 04:09 7,4 C 12,2 C 85 % 1029,8 hPa 0,0 l/m 0,0 km/h (0 Bft) S-SW 200 0 min 0,000 mm 0,0 UV-I 0 W/m 5,0 C 7,4 C 0,0 km/h (0 Bft) 100,00 %
19.04.2018 04:10 7,5 C 12,2 C 85 % 1029,8 hPa 0,0 l/m 0,1 km/h (0 Bft) S-SW 200 0 min 0,000 mm 0,0 UV-I 0 W/m 5,1 C 7,5 C 1,6 km/h (1 Bft) 95,83 %
19.04.2018 04:11 7,6 C 12,2 C 84 % 1029,8 hPa 0,0 l/m 0,0 km/h (0 Bft) S-SW 200 0 min 0,000 mm 0,0 UV-I 0 W/m 5,1 C 7,6 C 0,0 km/h (0 Bft) 100,00 %
19.04.2018 04:12 7,7 C 12,2 C 84 % 1029,8 hPa 0,0 l/m 0,0 km/h (0 Bft) S-SW 200 0 min 0,000 mm 0,0 UV-I 0 W/m 5,2 C 7,7 C 0,0 km/h (0 Bft) 100,00 %
19.04.2018 04:13 7,7 C 12,2 C 84 % 1029,8 hPa 0,0 l/m 0,0 km/h (0 Bft) S-SW 200 0 min 0,000 mm 0,0 UV-I 0 W/m 5,2 C 7,7 C 0,0 km/h (0 Bft) 95,65 %
19.04.2018 04:14 7,8 C 12,2 C 84 % 1029,8 hPa 0,0 l/m 0,0 km/h (0 Bft) S-SW 200 0 min 0,000 mm 0,0 UV-I 0 W/m 5,3 C 7,8 C 0,0 km/h (0 Bft) 100,00 %
19.04.2018 04:15 7,8 C 12,2 C 84 % 1029,8 hPa 0,0 l/m 0,0 km/h (0 Bft) S-SW 200 0 min 0,000 mm 0,0 UV-I 0 W/m 5,3 C 7,8 C 0,0 km/h (0 Bft) 100,00 %
19.04.2018 04:16 7,8 C 12,2 C 84 % 1029,8 hPa 0,0 l/m 0,0 km/h (0 Bft) S-SW 200 0 min 0,000 mm 0,0 UV-I 0 W/m 5,3 C 7,8 C 0,0 km/h (0 Bft) 100,00 %
19.04.2018 04:17 7,8 C 12,2 C 84 % 1029,8 hPa 0,0 l/m 0,0 km/h (0 Bft) S-SW 200 0 min 0,000 mm 0,0 UV-I 0 W/m 5,3 C 7,8 C 0,0 km/h (0 Bft) 100,00 %
19.04.2018 04:18 7,7 C 12,2 C 84 % 1029,8 hPa 0,0 l/m 0,0 km/h (0 Bft) S-SW 200 0 min 0,000 mm 0,0 UV-I 0 W/m 5,2 C 7,7 C 0,0 km/h (0 Bft) 100,00 %
19.04.2018 04:19 7,7 C 12,2 C 84 % 1029,8 hPa 0,0 l/m 0,0 km/h (0 Bft) S-SW 200 0 min 0,000 mm 0,0 UV-I 0 W/m 5,2 C 7,7 C 0,0 km/h (0 Bft) 100,00 %
19.04.2018 04:20 7,6 C 12,2 C 84 % 1029,8 hPa 0,0 l/m 0,0 km/h (0 Bft) S-SW 200 0 min 0,000 mm 0,0 UV-I 0 W/m 5,1 C 7,6 C 0,0 km/h (0 Bft) 100,00 %
19.04.2018 04:21 7,6 C 12,2 C 84 % 1029,7 hPa 0,0 l/m 0,0 km/h (0 Bft) S-SW 200 0 min 0,000 mm 0,0 UV-I 0 W/m 5,1 C 7,6 C 0,0 km/h (0 Bft) 100,00 %
19.04.2018 04:22 7,4 C 12,2 C 85 % 1029,7 hPa 0,0 l/m 0,0 km/h (0 Bft) S-SW 200 0 min 0,000 mm 0,0 UV-I 0 W/m 5,0 C 7,4 C 0,0 km/h (0 Bft) 100,00 %
19.04.2018 04:23 7,4 C 12,2 C 85 % 1029,8 hPa 0,0 l/m 0,0 km/h (0 Bft) S-SW 200 0 min 0,000 mm 0,0 UV-I 0 W/m 5,0 C 7,4 C 0,0 km/h (0 Bft) 100,00 %
19.04.2018 04:24 7,3 C 12,2 C 85 % 1029,8 hPa 0,0 l/m 0,0 km/h (0 Bft) S-SW 200 0 min 0,000 mm 0,0 UV-I 0 W/m 4,9 C 7,3 C 0,0 km/h (0 Bft) 95,65 %
19.04.2018 04:25 7,3 C 12,2 C 86 % 1029,8 hPa 0,0 l/m 0,0 km/h (0 Bft) S-SW 200 0 min 0,000 mm 0,0 UV-I 0 W/m 5,1 C 7,3 C 0,0 km/h (0 Bft) 98,89 %
19.04.2018 04:26 7,4 C 12,2 C 86 % 1029,7 hPa 0,0 l/m 0,0 km/h (0 Bft) S-SW 200 0 min 0,000 mm 0,0 UV-I 0 W/m 5,2 C 7,4 C 0,0 km/h (0 Bft) 98,00 %
19.04.2018 04:28 7,4 C 12,2 C 86 % 1029,7 hPa 0,0 l/m 0,0 km/h (0 Bft) S-SW 200 0 min 0,000 mm 0,0 UV-I 0 W/m 5,2 C 7,4 C 0,0 km/h (0 Bft) 95,45 %
19.04.2018 04:29 7,4 C 12,2 C 86 % 1029,7 hPa 0,0 l/m 0,0 km/h (0 Bft) S-SW 200 0 min 0,000 mm 0,0 UV-I 0 W/m 5,2 C 7,4 C 0,0 km/h (0 Bft) 95,83 %
19.04.2018 04:30 7,3 C 12,2 C 86 % 1029,7 hPa 0,0 l/m 0,0 km/h (0 Bft) S-SW 200 0 min 0,000 mm 0,0 UV-I 0 W/m 5,1 C 7,3 C 0,0 km/h (0 Bft) 100,00 %
19.04.2018 04:31 7,1 C 12,2 C 85 % 1029,7 hPa 0,0 l/m 0,0 km/h (0 Bft) S-SW 200 0 min 0,000 mm 0,0 UV-I 0 W/m 4,8 C 7,1 C 0,0 km/h (0 Bft) 95,83 %
19.04.2018 04:32 6,9 C 12,2 C 85 % 1029,8 hPa 0,0 l/m 1,1 km/h (1 Bft) S-SW 200 0 min 0,000 mm 0,0 UV-I 0 W/m 4,6 C 6,9 C 3,2 km/h (1 Bft) 98,44 %
19.04.2018 04:33 6,7 C 12,2 C 86 % 1029,7 hPa 0,0 l/m 3,2 km/h (1 Bft) S-SW 200 0 min 0,000 mm 0,0 UV-I 0 W/m 4,5 C 6,7 C 3,2 km/h (1 Bft) 95,45 %
19.04.2018 04:34 6,5 C 12,2 C 86 % 1029,7 hPa 0,0 l/m 3,0 km/h (1 Bft) S-SW 200 0 min 0,000 mm 0,0 UV-I 0 W/m 4,3 C 6,5 C 3,2 km/h (1 Bft) 96,15 %
19.04.2018 04:35 6,4 C 12,2 C 87 % 1029,7 hPa 0,0 l/m 2,8 km/h (1 Bft) S-SW 200 0 min 0,000 mm 0,0 UV-I 0 W/m 4,4 C 6,4 C 3,2 km/h (1 Bft) 100,00 %
19.04.2018 04:36 6,3 C 12,2 C 88 % 1029,7 hPa 0,0 l/m 2,9 km/h (1 Bft) S-SW 200 0 min 0,000 mm 0,0 UV-I 0 W/m 4,5 C 6,3 C 3,2 km/h (1 Bft) 100,00 %
19.04.2018 04:37 6,4 C 12,2 C 88 % 1029,7 hPa 0,0 l/m 2,7 km/h (1 Bft) S-SW 200 0 min 0,000 mm 0,0 UV-I 0 W/m 4,6 C 6,4 C 3,2 km/h (1 Bft) 96,15 %
19.04.2018 04:38 6,6 C 12,2 C 89 % 1029,7 hPa 0,0 l/m 3,1 km/h (1 Bft) S-SW 200 0 min 0,000 mm 0,0 UV-I 0 W/m 4,9 C 6,6 C 3,2 km/h (1 Bft) 95,83 %
19.04.2018 04:39 6,8 C 12,2 C 88 % 1029,7 hPa 0,0 l/m 3,1 km/h (1 Bft) S-SW 200 0 min 0,000 mm 0,0 UV-I 0 W/m 5,0 C 6,8 C 3,2 km/h (1 Bft) 100,00 %
19.04.2018 04:40 6,9 C 12,2 C 87 % 1029,7 hPa 0,0 l/m 3,5 km/h (1 Bft) S-SW 199 0 min 0,000 mm 0,0 UV-I 0 W/m 4,9 C 6,9 C 4,8 km/h (1 Bft) 96,30 %
19.04.2018 04:41 7,0 C 12,2 C 87 % 1029,7 hPa 0,0 l/m 3,9 km/h (1 Bft) SO 134 0 min 0,000 mm 0,0 UV-I 0 W/m 5,0 C 7,0 C 4,8 km/h (1 Bft) 100,00 %
19.04.2018 04:42 7,2 C 12,2 C 87 % 1029,7 hPa 0,0 l/m 4,0 km/h (1 Bft) O 87 0 min 0,000 mm 0,0 UV-I 0 W/m 5,2 C 7,2 C 4,8 km/h (1 Bft) 96,30 %
19.04.2018 04:43 7,4 C 12,2 C 87 % 1029,7 hPa 0,0 l/m 5,3 km/h (1 Bft) O 87 0 min 0,000 mm 0,0 UV-I 0 W/m 5,4 C 7,4 C 6,4 km/h (2 Bft) 96,15 %
19.04.2018 04:44 7,9 C 12,2 C 85 % 1029,7 hPa 0,0 l/m 4,8 km/h (1 Bft) O 87 0 min 0,000 mm 0,0 UV-I 0 W/m 5,5 C 7,9 C 6,4 km/h (2 Bft) 100,00 %
19.04.2018 04:45 8,2 C 12,2 C 84 % 1029,7 hPa 0,0 l/m 4,5 km/h (1 Bft) O 87 0 min 0,000 mm 0,0 UV-I 0 W/m 5,7 C 8,2 C 4,8 km/h (1 Bft) 100,00 %
19.04.2018 04:46 8,4 C 12,2 C 83 % 1029,7 hPa 0,0 l/m 4,4 km/h (1 Bft) O 87 0 min 0,000 mm 0,0 UV-I 0 W/m 5,7 C 8,4 C 4,8 km/h (1 Bft) 96,30 %
19.04.2018 04:47 8,4 C 12,2 C 82 % 1029,7 hPa 0,0 l/m 4,1 km/h (1 Bft) O 87 0 min 0,000 mm 0,0 UV-I 0 W/m 5,5 C 8,4 C 4,8 km/h (1 Bft) 95,65 %
19.04.2018 04:48 8,4 C 12,2 C 81 % 1029,7 hPa 0,0 l/m 3,4 km/h (1 Bft) O 87 0 min 0,000 mm 0,0 UV-I 0 W/m 5,3 C 8,4 C 4,8 km/h (1 Bft) 100,00 %
19.04.2018 04:49 8,4 C 12,2 C 81 % 1029,7 hPa 0,0 l/m 3,0 km/h (1 Bft) O 87 0 min 0,000 mm 0,0 UV-I 0 W/m 5,3 C 8,4 C 4,8 km/h (1 Bft) 96,15 %
19.04.2018 04:50 8,4 C 12,2 C 81 % 1029,6 hPa 0,0 l/m 2,1 km/h (1 Bft) O 87 0 min 0,000 mm 0,0 UV-I 0 W/m 5,3 C 8,4 C 3,2 km/h (1 Bft) 91,67 %
19.04.2018 04:51 8,4 C 12,2 C 81 % 1029,7 hPa 0,0 l/m 1,3 km/h (1 Bft) O 87 0 min 0,000 mm 0,0 UV-I 0 W/m 5,3 C 8,4 C 1,6 km/h (1 Bft) 95,65 %
19.04.2018 04:52 8,1 C 12,2 C 81 % 1029,7 hPa 0,0 l/m 0,0 km/h (0 Bft) O 87 0 min 0,000 mm 0,0 UV-I 0 W/m 5,0 C 8,1 C 0,0 km/h (0 Bft) 100,00 %
19.04.2018 04:53 7,8 C 12,2 C 81 % 1029,7 hPa 0,0 l/m 0,2 km/h (0 Bft) O 87 0 min 0,000 mm 0,0 UV-I 0 W/m 4,7 C 7,8 C 1,6 km/h (1 Bft) 96,15 %
19.04.2018 04:54 7,5 C 12,2 C 82 % 1029,7 hPa 0,0 l/m 1,0 km/h (0 Bft) O 87 0 min 0,000 mm 0,0 UV-I 0 W/m 4,6 C 7,5 C 1,6 km/h (1 Bft) 91,67 %
19.04.2018 04:55 7,3 C 12,2 C 83 % 1029,6 hPa 0,0 l/m 1,4 km/h (1 Bft) O 87 0 min 0,000 mm 0,0 UV-I 0 W/m 4,6 C 7,3 C 3,2 km/h (1 Bft) 100,00 %
19.04.2018 04:56 7,2 C 12,2 C 84 % 1029,6 hPa 0,0 l/m 1,2 km/h (1 Bft) O 87 0 min 0,000 mm 0,0 UV-I 0 W/m 4,7 C 7,2 C 1,6 km/h (1 Bft) 96,15 %
19.04.2018 04:57 7,1 C 12,2 C 85 % 1029,6 hPa 0,0 l/m 0,0 km/h (0 Bft) O 87 0 min 0,000 mm 0,0 UV-I 0 W/m 4,8 C 7,1 C 0,0 km/h (0 Bft) 92,59 %
19.04.2018 04:58 6,9 C 12,2 C 85 % 1029,6 hPa 0,0 l/m 0,0 km/h (0 Bft) O 87 0 min 0,000 mm 0,0 UV-I 0 W/m 4,6 C 6,9 C 0,0 km/h (0 Bft) 91,30 %
19.04.2018 04:59 6,8 C 12,2 C 86 % 1029,6 hPa 0,0 l/m 0,0 km/h (0 Bft) O 87 0 min 0,000 mm 0,0 UV-I 0 W/m 4,6 C 6,8 C 0,0 km/h (0 Bft) 100,00 %
19.04.2018 05:00 6,7 C 12,2 C 86 % 1029,6 hPa 0,0 l/m 1,4 km/h (1 Bft) O 87 0 min 0,000 mm 0,0 UV-I 0 W/m 4,5 C 6,7 C 3,2 km/h (1 Bft) 96,15 %
19.04.2018 05:01 6,6 C 12,2 C 87 % 1029,6 hPa 0,0 l/m 2,3 km/h (1 Bft) O 87 0 min 0,000 mm 0,0 UV-I 0 W/m 4,6 C 6,6 C 3,2 km/h (1 Bft) 95,83 %
19.04.2018 05:02 6,5 C 12,2 C 87 % 1029,6 hPa 0,0 l/m 2,2 km/h (1 Bft) S-SO 153 0 min 0,000 mm 0,0 UV-I 0 W/m 4,5 C 6,5 C 3,2 km/h (1 Bft) 100,00 %
19.04.2018 05:03 6,4 C 12,2 C 87 % 1029,7 hPa 0,0 l/m 1,9 km/h (1 Bft) S-SO 153 0 min 0,000 mm 0,0 UV-I 0 W/m 4,4 C 6,4 C 3,2 km/h (1 Bft) 95,83 %
19.04.2018 05:04 6,3 C 12,2 C 87 % 1029,7 hPa 0,0 l/m 1,7 km/h (1 Bft) S-SO 153 0 min 0,000 mm 0,0 UV-I 0 W/m 4,3 C 6,3 C 3,2 km/h (1 Bft) 100,00 %
19.04.2018 05:05 6,3 C 12,2 C 88 % 1029,7 hPa 0,0 l/m 1,4 km/h (1 Bft) S-SO 153 0 min 0,000 mm 0,0 UV-I 0 W/m 4,5 C 6,3 C 1,6 km/h (1 Bft) 96,30 %
19.04.2018 05:06 6,3 C 12,2 C 88 % 1029,6 hPa 0,0 l/m 1,4 km/h (1 Bft) S-SO 153 0 min 0,000 mm 0,0 UV-I 0 W/m 4,5 C 6,3 C 3,2 km/h (1 Bft) 100,00 %
19.04.2018 05:07 6,3 C 12,2 C 89 % 1029,6 hPa 0,0 l/m 2,0 km/h (1 Bft) S-SO 153 0 min 0,000 mm 0,0 UV-I 0 W/m 4,6 C 6,3 C 3,2 km/h (1 Bft) 91,67 %
19.04.2018 05:08 6,4 C 12,2 C 89 % 1029,6 hPa 0,0 l/m 1,7 km/h (1 Bft) S-SO 153 0 min 0,000 mm 0,0 UV-I 0 W/m 4,7 C 6,4 C 3,2 km/h (1 Bft) 100,00 %
19.04.2018 05:09 6,5 C 12,2 C 89 % 1029,6 hPa 0,0 l/m 0,6 km/h (0 Bft) S-SO 153 0 min 0,000 mm 0,0 UV-I 0 W/m 4,8 C 6,5 C 1,6 km/h (1 Bft) 100,00 %
19.04.2018 05:10 6,5 C 12,2 C 89 % 1029,6 hPa 0,0 l/m 0,0 km/h (0 Bft) S-SO 153 0 min 0,000 mm 0,0 UV-I 0 W/m 4,8 C 6,5 C 0,0 km/h (0 Bft) 100,00 %
19.04.2018 05:11 6,6 C 12,2 C 89 % 1029,6 hPa 0,0 l/m 0,0 km/h (0 Bft) S-SO 153 0 min 0,000 mm 0,0 UV-I 0 W/m 4,9 C 6,6 C 0,0 km/h (0 Bft) 100,00 %
19.04.2018 05:12 6,6 C 12,2 C 89 % 1029,6 hPa 0,0 l/m 0,0 km/h (0 Bft) S-SO 153 0 min 0,000 mm 0,0 UV-I 0 W/m 4,9 C 6,6 C 0,0 km/h (0 Bft) 100,00 %
19.04.2018 05:13 6,7 C 12,2 C 88 % 1029,6 hPa 0,0 l/m 0,0 km/h (0 Bft) S-SO 153 0 min 0,000 mm 0,0 UV-I 0 W/m 4,9 C 6,7 C 0,0 km/h (0 Bft) 95,83 %
19.04.2018 05:14 6,7 C 12,2 C 88 % 1029,6 hPa 0,0 l/m 0,0 km/h (0 Bft) S-SO 153 0 min 0,000 mm 0,0 UV-I 0 W/m 4,9 C 6,7 C 0,0 km/h (0 Bft) 100,00 %
19.04.2018 05:15 6,6 C 12,2 C 88 % 1029,6 hPa 0,0 l/m 0,1 km/h (0 Bft) S-SO 153 0 min 0,000 mm 0,0 UV-I 0 W/m 4,8 C 6,6 C 1,6 km/h (1 Bft) 100,00 %
19.04.2018 05:16 6,5 C 12,2 C 87 % 1029,6 hPa 0,0 l/m 1,3 km/h (1 Bft) S-SO 153 0 min 0,000 mm 0,0 UV-I 0 W/m 4,5 C 6,5 C 1,6 km/h (1 Bft) 96,15 %
19.04.2018 05:17 6,4 C 12,2 C 87 % 1029,5 hPa 0,0 l/m 1,1 km/h (1 Bft) S-SO 153 0 min 0,000 mm 0,0 UV-I 0 W/m 4,4 C 6,4 C 1,6 km/h (1 Bft) 100,00 %
19.04.2018 05:18 6,3 C 12,2 C 88 % 1029,6 hPa 0,0 l/m 1,4 km/h (1 Bft) S-SO 153 0 min 0,000 mm 0,0 UV-I 0 W/m 4,5 C 6,3 C 1,6 km/h (1 Bft) 95,83 %
19.04.2018 05:19 6,3 C 12,2 C 88 % 1029,5 hPa 0,0 l/m 1,3 km/h (1 Bft) S-SO 153 0 min 0,000 mm 0,0 UV-I 0 W/m 4,5 C 6,3 C 1,6 km/h (1 Bft) 100,00 %
19.04.2018 05:20 6,2 C 12,2 C 88 % 1029,5 hPa 0,0 l/m 0,3 km/h (0 Bft) S-SO 153 0 min 0,000 mm 0,0 UV-I 0 W/m 4,4 C 6,2 C 1,6 km/h (1 Bft) 100,00 %
19.04.2018 05:21 6,2 C 12,2 C 88 % 1029,5 hPa 0,0 l/m 0,0 km/h (0 Bft) S-SO 153 0 min 0,000 mm 0,0 UV-I 0 W/m 4,4 C 6,2 C 0,0 km/h (0 Bft) 100,00 %
19.04.2018 05:22 6,1 C 12,2 C 89 % 1029,5 hPa 0,0 l/m 0,0 km/h (0 Bft) S-SO 153 0 min 0,000 mm 0,0 UV-I 0 W/m 4,4 C 6,1 C 0,0 km/h (0 Bft) 100,00 %
19.04.2018 05:23 6,1 C 12,2 C 89 % 1029,5 hPa 0,0 l/m 0,0 km/h (0 Bft) S-SO 153 0 min 0,000 mm 0,0 UV-I 0 W/m 4,4 C 6,1 C 0,0 km/h (0 Bft) 100,00 %
19.04.2018 05:24 6,1 C 12,2 C 89 % 1029,5 hPa 0,0 l/m 0,0 km/h (0 Bft) S-SO 153 0 min 0,000 mm 0,0 UV-I 0 W/m 4,4 C 6,1 C 0,0 km/h (0 Bft) 100,00 %
19.04.2018 05:25 6,0 C 12,2 C 89 % 1029,5 hPa 0,0 l/m 0,0 km/h (0 Bft) S-SO 153 0 min 0,000 mm 0,0 UV-I 0 W/m 4,3 C 6,0 C 0,0 km/h (0 Bft) 96,15 %
19.04.2018 05:26 6,1 C 12,2 C 89 % 1029,5 hPa 0,0 l/m 0,0 km/h (0 Bft) S-SO 153 0 min 0,000 mm 0,0 UV-I 0 W/m 4,4 C 6,1 C 0,0 km/h (0 Bft) 100,00 %
19.04.2018 05:27 6,1 C 12,2 C 89 % 1029,5 hPa 0,0 l/m 0,0 km/h (0 Bft) S-SO 153 0 min 0,000 mm 0,0 UV-I 0 W/m 4,4 C 6,1 C 0,0 km/h (0 Bft) 95,65 %
19.04.2018 05:28 6,1 C 12,2 C 89 % 1029,5 hPa 0,0 l/m 0,0 km/h (0 Bft) S-SO 153 0 min 0,000 mm 0,0 UV-I 0 W/m 4,4 C 6,1 C 0,0 km/h (0 Bft) 95,83 %
19.04.2018 05:29 6,2 C 12,2 C 89 % 1029,6 hPa 0,0 l/m 0,0 km/h (0 Bft) S-SO 153 0 min 0,000 mm 0,0 UV-I 0 W/m 4,5 C 6,2 C 0,0 km/h (0 Bft) 95,65 %
19.04.2018 05:30 6,2 C 12,2 C 89 % 1029,6 hPa 0,0 l/m 0,0 km/h (0 Bft) S-SO 153 0 min 0,000 mm 0,0 UV-I 0 W/m 4,5 C 6,2 C 0,0 km/h (0 Bft) 100,00 %
19.04.2018 05:31 6,3 C 12,2 C 89 % 1029,6 hPa 0,0 l/m 0,0 km/h (0 Bft) S-SO 153 0 min 0,000 mm 0,0 UV-I 0 W/m 4,6 C 6,3 C 0,0 km/h (0 Bft) 91,30 %
19.04.2018 05:32 6,3 C 12,2 C 89 % 1029,6 hPa 0,0 l/m 0,0 km/h (0 Bft) S-SO 153 0 min 0,000 mm 0,0 UV-I 0 W/m 4,6 C 6,3 C 0,0 km/h (0 Bft) 95,83 %
19.04.2018 05:33 6,3 C 12,2 C 89 % 1029,6 hPa 0,0 l/m 2,5 km/h (1 Bft) S-SO 152 0 min 0,000 mm 0,0 UV-I 0 W/m 4,6 C 6,3 C 4,8 km/h (1 Bft) 95,65 %
19.04.2018 05:34 6,3 C 12,2 C 89 % 1029,6 hPa 0,0 l/m 2,8 km/h (1 Bft) S-SO 152 0 min 0,000 mm 0,0 UV-I 0 W/m 4,6 C 6,3 C 3,2 km/h (1 Bft) 95,83 %
19.04.2018 05:35 6,3 C 12,2 C 88 % 1029,6 hPa 0,0 l/m 2,7 km/h (1 Bft) S-SO 152 0 min 0,000 mm 0,0 UV-I 0 W/m 4,5 C 6,3 C 3,2 km/h (1 Bft) 100,00 %
19.04.2018 05:36 6,3 C 12,2 C 88 % 1029,5 hPa 0,0 l/m 1,6 km/h (1 Bft) S-SO 152 0 min 0,000 mm 0,0 UV-I 0 W/m 4,5 C 6,3 C 3,2 km/h (1 Bft) 100,00 %
19.04.2018 05:37 6,3 C 12,2 C 88 % 1029,6 hPa 0,0 l/m 0,0 km/h (0 Bft) S-SO 152 0 min 0,000 mm 0,0 UV-I 0 W/m 4,5 C 6,3 C 0,0 km/h (0 Bft) 91,67 %
19.04.2018 05:38 6,3 C 12,2 C 89 % 1029,6 hPa 0,0 l/m 0,0 km/h (0 Bft) S-SO 152 0 min 0,000 mm 0,0 UV-I 0 W/m 4,6 C 6,3 C 0,0 km/h (0 Bft) 95,65 %
19.04.2018 05:39 6,3 C 12,2 C 89 % 1029,6 hPa 0,0 l/m 0,0 km/h (0 Bft) S-SO 152 0 min 0,000 mm 0,0 UV-I 0 W/m 4,6 C 6,3 C 0,0 km/h (0 Bft) 100,00 %
19.04.2018 05:40 6,3 C 12,2 C 89 % 1029,6 hPa 0,0 l/m 0,0 km/h (0 Bft) S-SO 152 0 min 0,000 mm 0,0 UV-I 0 W/m 4,6 C 6,3 C 0,0 km/h (0 Bft) 96,00 %
19.04.2018 05:41 6,4 C 12,2 C 89 % 1029,6 hPa 0,0 l/m 0,0 km/h (0 Bft) S-SO 152 0 min 0,000 mm 0,0 UV-I 0 W/m 4,7 C 6,4 C 0,0 km/h (0 Bft) 100,00 %
19.04.2018 05:42 6,4 C 12,2 C 89 % 1029,6 hPa 0,0 l/m 0,0 km/h (0 Bft) S-SO 152 0 min 0,000 mm 0,0 UV-I 0 W/m 4,7 C 6,4 C 0,0 km/h (0 Bft) 96,15 %
19.04.2018 05:43 6,5 C 12,2 C 88 % 1029,6 hPa 0,0 l/m 0,0 km/h (0 Bft) S-SO 152 0 min 0,000 mm 0,0 UV-I 0 W/m 4,7 C 6,5 C 0,0 km/h (0 Bft) 96,30 %
19.04.2018 05:44 6,5 C 12,2 C 88 % 1029,6 hPa 0,0 l/m 0,0 km/h (0 Bft) S-SO 152 0 min 0,000 mm 0,0 UV-I 0 W/m 4,7 C 6,5 C 0,0 km/h (0 Bft) 100,00 %
19.04.2018 05:45 6,5 C 12,2 C 88 % 1029,6 hPa 0,0 l/m 0,0 km/h (0 Bft) S-SO 152 0 min 0,000 mm 0,0 UV-I 0 W/m 4,7 C 6,5 C 0,0 km/h (0 Bft) 93,33 %
19.04.2018 05:46 6,6 C 12,2 C 88 % 1029,6 hPa 0,0 l/m 0,0 km/h (0 Bft) S-SO 152 0 min 0,000 mm 0,0 UV-I 0 W/m 4,8 C 6,6 C 0,0 km/h (0 Bft) 97,37 %
19.04.2018 05:47 6,7 C 12,2 C 88 % 1029,6 hPa 0,0 l/m 0,3 km/h (0 Bft) S-SO 152 0 min 0,000 mm 0,0 UV-I 0 W/m 4,9 C 6,7 C 1,6 km/h (1 Bft) 95,83 %
19.04.2018 05:48 6,7 C 12,2 C 88 % 1029,6 hPa 0,0 l/m 1,3 km/h (1 Bft) S-SO 152 0 min 0,000 mm 0,0 UV-I 0 W/m 4,9 C 6,7 C 3,2 km/h (1 Bft) 100,00 %
19.04.2018 05:49 6,7 C 12,2 C 88 % 1029,6 hPa 0,0 l/m 2,4 km/h (1 Bft) S-SO 152 0 min 0,000 mm 0,0 UV-I 0 W/m 4,9 C 6,7 C 3,2 km/h (1 Bft) 95,83 %
19.04.2018 05:50 6,7 C 12,2 C 87 % 1029,6 hPa 0,0 l/m 2,5 km/h (1 Bft) S-SO 152 0 min 0,000 mm 0,0 UV-I 0 W/m 4,7 C 6,7 C 3,2 km/h (1 Bft) 95,65 %
19.04.2018 05:51 6,7 C 12,2 C 87 % 1029,6 hPa 0,0 l/m 3,2 km/h (1 Bft) S-SO 152 0 min 0,000 mm 0,0 UV-I 0 W/m 4,7 C 6,7 C 3,2 km/h (1 Bft) 93,33 %
19.04.2018 05:52 6,7 C 12,2 C 87 % 1029,6 hPa 0,0 l/m 3,1 km/h (1 Bft) S-SO 152 0 min 0,000 mm 0,0 UV-I 0 W/m 4,7 C 6,7 C 3,2 km/h (1 Bft) 100,00 %
19.04.2018 05:53 6,7 C 12,2 C 87 % 1029,6 hPa 0,0 l/m 3,0 km/h (1 Bft) S-SO 152 0 min 0,000 mm 0,0 UV-I 0 W/m 4,7 C 6,7 C 3,2 km/h (1 Bft) 95,65 %
19.04.2018 05:54 6,8 C 12,2 C 88 % 1029,6 hPa 0,0 l/m 2,3 km/h (1 Bft) S-SO 152 0 min 0,000 mm 0,0 UV-I 4 W/m 5,0 C 6,8 C 3,2 km/h (1 Bft) 100,00 %
19.04.2018 05:55 6,8 C 12,2 C 88 % 1029,6 hPa 0,0 l/m 2,3 km/h (1 Bft) S-SO 152 0 min 0,000 mm 0,0 UV-I 5 W/m 5,0 C 6,8 C 3,2 km/h (1 Bft) 96,15 %
19.04.2018 05:56 7,1 C 12,2 C 88 % 1029,6 hPa 0,0 l/m 2,1 km/h (1 Bft) S-SO 152 0 min 0,000 mm 0,0 UV-I 5 W/m 5,2 C 7,1 C 3,2 km/h (1 Bft) 96,30 %
19.04.2018 05:57 7,2 C 12,2 C 88 % 1029,6 hPa 0,0 l/m 3,3 km/h (1 Bft) S-SO 152 0 min 0,000 mm 0,0 UV-I 5 W/m 5,3 C 7,2 C 4,8 km/h (1 Bft) 100,00 %
19.04.2018 05:58 7,3 C 12,2 C 87 % 1029,7 hPa 0,0 l/m 3,1 km/h (1 Bft) S-SO 152 0 min 0,000 mm 0,0 UV-I 5 W/m 5,3 C 7,3 C 4,8 km/h (1 Bft) 88,89 %
19.04.2018 05:59 7,3 C 12,2 C 87 % 1029,7 hPa 0,0 l/m 3,1 km/h (1 Bft) S-SO 152 0 min 0,000 mm 0,0 UV-I 5 W/m 5,3 C 7,3 C 4,8 km/h (1 Bft) 100,00 %
19.04.2018 06:00 7,3 C 12,2 C 87 % 1029,7 hPa 0,0 l/m 3,0 km/h (1 Bft) S-SO 152 0 min 0,000 mm 0,0 UV-I 5 W/m 5,3 C 7,3 C 4,8 km/h (1 Bft) 95,83 %
19.04.2018 06:01 7,3 C 12,2 C 86 % 1029,6 hPa 0,0 l/m 3,2 km/h (1 Bft) S-SO 152 0 min 0,000 mm 0,0 UV-I 5 W/m 5,1 C 7,3 C 4,8 km/h (1 Bft) 95,65 %
19.04.2018 06:02 7,3 C 12,2 C 86 % 1029,6 hPa 0,0 l/m 3,3 km/h (1 Bft) S-SO 152 0 min 0,000 mm 0,0 UV-I 7 W/m 5,1 C 7,3 C 4,8 km/h (1 Bft) 96,30 %
19.04.2018 06:03 7,4 C 12,2 C 87 % 1029,7 hPa 0,0 l/m 3,3 km/h (1 Bft) S-SO 152 0 min 0,000 mm 0,0 UV-I 7 W/m 5,4 C 7,4 C 4,8 km/h (1 Bft) 100,00 %
19.04.2018 06:04 7,4 C 12,2 C 86 % 1029,7 hPa 0,0 l/m 3,0 km/h (1 Bft) S-SO 152 0 min 0,000 mm 0,0 UV-I 7 W/m 5,2 C 7,4 C 4,8 km/h (1 Bft) 93,33 %
19.04.2018 06:05 7,4 C 12,2 C 86 % 1029,7 hPa 0,0 l/m 2,8 km/h (1 Bft) S-SO 152 0 min 0,000 mm 0,0 UV-I 7 W/m 5,2 C 7,4 C 3,2 km/h (1 Bft) 100,00 %
19.04.2018 06:06 7,4 C 12,2 C 86 % 1029,7 hPa 0,0 l/m 3,1 km/h (1 Bft) S-SO 152 0 min 0,000 mm 0,0 UV-I 7 W/m 5,2 C 7,4 C 3,2 km/h (1 Bft) 96,30 %
19.04.2018 06:07 7,4 C 12,2 C 86 % 1029,7 hPa 0,0 l/m 2,5 km/h (1 Bft) S-SO 152 0 min 0,000 mm 0,0 UV-I 7 W/m 5,2 C 7,4 C 3,2 km/h (1 Bft) 100,00 %
19.04.2018 06:08 7,3 C 12,2 C 86 % 1029,7 hPa 0,0 l/m 2,5 km/h (1 Bft) S-SO 152 0 min 0,000 mm 0,0 UV-I 9 W/m 5,1 C 7,3 C 3,2 km/h (1 Bft) 93,33 %
19.04.2018 06:09 7,3 C 12,2 C 86 % 1029,7 hPa 0,0 l/m 3,0 km/h (1 Bft) S-SO 152 0 min 0,000 mm 0,0 UV-I 9 W/m 5,1 C 7,3 C 4,8 km/h (1 Bft) 94,74 %
19.04.2018 06:10 7,4 C 12,2 C 86 % 1029,7 hPa 0,0 l/m 3,2 km/h (1 Bft) S-SO 152 0 min 0,000 mm 0,0 UV-I 9 W/m 5,2 C 7,4 C 4,8 km/h (1 Bft) 100,00 %
19.04.2018 06:11 7,4 C 12,2 C 86 % 1029,7 hPa 0,0 l/m 3,6 km/h (1 Bft) S-SO 152 0 min 0,000 mm 0,0 UV-I 10 W/m 5,2 C 7,4 C 4,8 km/h (1 Bft) 96,67 %
19.04.2018 06:12 7,5 C 12,2 C 86 % 1029,7 hPa 0,0 l/m 3,2 km/h (1 Bft) S-SO 152 0 min 0,000 mm 0,0 UV-I 11 W/m 5,3 C 7,5 C 4,8 km/h (1 Bft) 100,00 %
19.04.2018 06:13 7,6 C 12,2 C 85 % 1029,7 hPa 0,0 l/m 2,5 km/h (1 Bft) S-SO 152 0 min 0,000 mm 0,0 UV-I 11 W/m 5,2 C 7,6 C 3,2 km/h (1 Bft) 91,67 %
19.04.2018 06:14 7,6 C 12,2 C 86 % 1029,7 hPa 0,0 l/m 2,5 km/h (1 Bft) S-SO 152 0 min 0,000 mm 0,0 UV-I 12 W/m 5,4 C 7,6 C 3,2 km/h (1 Bft) 100,00 %
19.04.2018 06:15 7,7 C 12,2 C 85 % 1029,7 hPa 0,0 l/m 2,7 km/h (1 Bft) S-SO 152 0 min 0,000 mm 0,0 UV-I 12 W/m 5,3 C 7,7 C 3,2 km/h (1 Bft) 96,30 %
19.04.2018 06:16 7,7 C 12,2 C 85 % 1029,8 hPa 0,0 l/m 3,0 km/h (1 Bft) S-SO 152 0 min 0,000 mm 0,0 UV-I 13 W/m 5,3 C 7,7 C 3,2 km/h (1 Bft) 100,00 %
19.04.2018 06:17 7,6 C 12,2 C 85 % 1029,7 hPa 0,0 l/m 3,3 km/h (1 Bft) S-SO 152 0 min 0,000 mm 0,0 UV-I 14 W/m 5,2 C 7,6 C 4,8 km/h (1 Bft) 95,83 %
19.04.2018 06:18 7,6 C 12,2 C 85 % 1029,7 hPa 0,0 l/m 2,7 km/h (1 Bft) S-SO 152 1 min 0,000 mm 0,0 UV-I 14 W/m 5,2 C 7,6 C 3,2 km/h (1 Bft) 96,15 %
19.04.2018 06:19 7,4 C 12,2 C 84 % 1029,8 hPa 0,0 l/m 2,5 km/h (1 Bft) S-SO 152 1 min 0,000 mm 0,0 UV-I 16 W/m 4,9 C 7,4 C 3,2 km/h (1 Bft) 100,00 %
19.04.2018 06:20 7,2 C 12,2 C 84 % 1029,8 hPa 0,0 l/m 2,1 km/h (1 Bft) S-SO 152 1 min 0,000 mm 0,0 UV-I 16 W/m 4,7 C 7,2 C 3,2 km/h (1 Bft) 100,00 %
19.04.2018 06:21 7,2 C 12,2 C 85 % 1029,8 hPa 0,0 l/m 2,0 km/h (1 Bft) S-SO 152 1 min 0,000 mm 0,0 UV-I 18 W/m 4,9 C 7,2 C 3,2 km/h (1 Bft) 96,30 %
19.04.2018 06:22 7,1 C 12,2 C 85 % 1029,7 hPa 0,0 l/m 2,1 km/h (1 Bft) S-SO 152 1 min 0,000 mm 0,0 UV-I 19 W/m 4,8 C 7,1 C 3,2 km/h (1 Bft) 95,65 %
19.04.2018 06:23 6,9 C 12,2 C 86 % 1029,7 hPa 0,0 l/m 1,7 km/h (1 Bft) S-SO 152 1 min 0,000 mm 0,0 UV-I 20 W/m 4,7 C 6,9 C 3,2 km/h (1 Bft) 100,00 %
19.04.2018 06:24 6,8 C 12,2 C 86 % 1029,8 hPa 0,0 l/m 2,2 km/h (1 Bft) S-SO 152 1 min 0,000 mm 0,0 UV-I 21 W/m 4,6 C 6,8 C 3,2 km/h (1 Bft) 95,65 %
19.04.2018 06:25 6,7 C 12,2 C 86 % 1029,8 hPa 0,0 l/m 2,7 km/h (1 Bft) S-SO 152 1 min 0,000 mm 0,0 UV-I 23 W/m 4,5 C 6,7 C 3,2 km/h (1 Bft) 100,00 %
19.04.2018 06:26 6,6 C 12,2 C 87 % 1029,8 hPa 0,0 l/m 2,5 km/h (1 Bft) S-SO 152 1 min 0,000 mm 0,0 UV-I 23 W/m 4,6 C 6,6 C 3,2 km/h (1 Bft) 94,44 %
19.04.2018 06:27 6,7 C 12,2 C 87 % 1029,8 hPa 0,0 l/m 2,8 km/h (1 Bft) S-SO 152 1 min 0,000 mm 0,0 UV-I 24 W/m 4,7 C 6,7 C 3,2 km/h (1 Bft) 100,00 %
19.04.2018 06:28 6,8 C 12,2 C 88 % 1029,8 hPa 0,0 l/m 1,9 km/h (1 Bft) S-SO 152 1 min 0,000 mm 0,0 UV-I 26 W/m 5,0 C 6,8 C 3,2 km/h (1 Bft) 100,00 %
19.04.2018 06:29 6,9 C 12,2 C 87 % 1029,8 hPa 0,0 l/m 1,8 km/h (1 Bft) S-SO 152 1 min 0,000 mm 0,0 UV-I 27 W/m 4,9 C 6,9 C 3,2 km/h (1 Bft) 100,00 %
19.04.2018 06:30 6,9 C 12,2 C 87 % 1029,8 hPa 0,0 l/m 1,5 km/h (1 Bft) S-SO 152 1 min 0,000 mm 0,0 UV-I 28 W/m 4,9 C 6,9 C 3,2 km/h (1 Bft) 95,65 %
19.04.2018 06:31 7,1 C 12,2 C 87 % 1029,8 hPa 0,0 l/m 2,6 km/h (1 Bft) S-SO 152 0 min 0,000 mm 0,0 UV-I 28 W/m 5,1 C 7,1 C 4,8 km/h (1 Bft) 100,00 %
19.04.2018 06:32 7,2 C 12,2 C 87 % 1029,8 hPa 0,0 l/m 2,3 km/h (1 Bft) S-SO 152 0 min 0,000 mm 0,0 UV-I 28 W/m 5,2 C 7,2 C 3,2 km/h (1 Bft) 100,00 %
19.04.2018 06:33 7,3 C 12,2 C 87 % 1029,8 hPa 0,0 l/m 1,5 km/h (1 Bft) S-SO 152 0 min 0,000 mm 0,0 UV-I 28 W/m 5,3 C 7,3 C 3,2 km/h (1 Bft) 100,00 %
19.04.2018 06:34 7,4 C 12,2 C 86 % 1029,8 hPa 0,0 l/m 1,4 km/h (1 Bft) S-SO 152 0 min 0,000 mm 0,0 UV-I 30 W/m 5,2 C 7,4 C 3,2 km/h (1 Bft) 100,00 %
19.04.2018 06:35 7,4 C 12,2 C 86 % 1029,8 hPa 0,0 l/m 0,6 km/h (0 Bft) S-SO 152 0 min 0,000 mm 0,0 UV-I 32 W/m 5,2 C 7,4 C 1,6 km/h (1 Bft) 100,00 %
19.04.2018 06:36 7,2 C 12,2 C 85 % 1029,8 hPa 0,0 l/m 0,0 km/h (0 Bft) S-SO 152 0 min 0,000 mm 0,0 UV-I 30 W/m 4,9 C 7,2 C 0,0 km/h (0 Bft) 100,00 %
19.04.2018 06:37 7,1 C 12,2 C 85 % 1029,8 hPa 0,0 l/m 0,0 km/h (0 Bft) S-SO 152 0 min 0,000 mm 0,0 UV-I 28 W/m 4,8 C 7,1 C 0,0 km/h (0 Bft) 100,00 %
19.04.2018 06:38 6,9 C 12,2 C 86 % 1029,9 hPa 0,0 l/m 0,0 km/h (0 Bft) S-SO 152 0 min 0,000 mm 0,0 UV-I 28 W/m 4,7 C 6,9 C 0,0 km/h (0 Bft) 100,00 %
19.04.2018 06:39 6,8 C 12,2 C 87 % 1029,8 hPa 0,0 l/m 0,0 km/h (0 Bft) S-SO 152 0 min 0,000 mm 0,0 UV-I 28 W/m 4,8 C 6,8 C 0,0 km/h (0 Bft) 100,00 %
19.04.2018 06:40 6,7 C 12,2 C 87 % 1029,8 hPa 0,0 l/m 0,0 km/h (0 Bft) S-SO 152 0 min 0,000 mm 0,0 UV-I 29 W/m 4,7 C 6,7 C 0,0 km/h (0 Bft) 100,00 %
19.04.2018 06:41 6,6 C 12,2 C 87 % 1029,8 hPa 0,0 l/m 0,0 km/h (0 Bft) S-SO 152 0 min 0,000 mm 0,0 UV-I 30 W/m 4,6 C 6,6 C 0,0 km/h (0 Bft) 100,00 %
19.04.2018 06:42 6,5 C 12,2 C 88 % 1029,9 hPa 0,0 l/m 0,0 km/h (0 Bft) S-SO 152 0 min 0,000 mm 0,0 UV-I 32 W/m 4,7 C 6,5 C 0,0 km/h (0 Bft) 100,00 %
19.04.2018 06:43 6,4 C 12,2 C 88 % 1029,9 hPa 0,0 l/m 0,0 km/h (0 Bft) S-SO 152 0 min 0,000 mm 0,0 UV-I 43 W/m 4,6 C 6,4 C 0,0 km/h (0 Bft) 100,00 %
19.04.2018 06:44 6,4 C 12,2 C 88 % 1029,9 hPa 0,0 l/m 0,0 km/h (0 Bft) S-SO 152 1 min 0,000 mm 0,0 UV-I 55 W/m 4,6 C 6,4 C 0,0 km/h (0 Bft) 100,00 %
19.04.2018 06:45 6,3 C 12,2 C 88 % 1029,9 hPa 0,0 l/m 0,2 km/h (0 Bft) S-SO 152 1 min 0,000 mm 0,0 UV-I 61 W/m 4,5 C 6,3 C 1,6 km/h (1 Bft) 100,00 %
19.04.2018 06:46 6,3 C 12,2 C 88 % 1029,9 hPa 0,0 l/m 0,1 km/h (0 Bft) S-SO 152 1 min 0,000 mm 0,0 UV-I 63 W/m 4,5 C 6,3 C 1,6 km/h (1 Bft) 100,00 %
19.04.2018 06:47 6,3 C 12,2 C 89 % 1029,8 hPa 0,0 l/m 0,0 km/h (0 Bft) S-SO 152 1 min 0,000 mm 0,0 UV-I 64 W/m 4,6 C 6,3 C 0,0 km/h (0 Bft) 96,30 %
19.04.2018 06:48 6,3 C 12,2 C 89 % 1029,8 hPa 0,0 l/m 1,4 km/h (1 Bft) S-SO 152 1 min 0,000 mm 0,0 UV-I 67 W/m 4,6 C 6,3 C 3,2 km/h (1 Bft) 100,00 %
19.04.2018 06:49 6,4 C 12,2 C 89 % 1029,8 hPa 0,0 l/m 2,0 km/h (1 Bft) S-SO 152 1 min 0,000 mm 0,0 UV-I 69 W/m 4,7 C 6,4 C 3,2 km/h (1 Bft) 100,00 %
19.04.2018 06:50 6,4 C 12,2 C 89 % 1029,8 hPa 0,0 l/m 2,8 km/h (1 Bft) S-SO 152 1 min 0,000 mm 0,0 UV-I 71 W/m 4,7 C 6,4 C 3,2 km/h (1 Bft) 100,00 %
19.04.2018 06:51 6,4 C 12,2 C 89 % 1029,8 hPa 0,0 l/m 4,2 km/h (1 Bft) O-SO 113 1 min 0,000 mm 0,0 UV-I 73 W/m 4,7 C 6,4 C 4,8 km/h (1 Bft) 96,30 %
19.04.2018 06:52 6,6 C 12,2 C 89 % 1029,8 hPa 0,0 l/m 3,9 km/h (1 Bft) O-SO 107 1 min 0,000 mm 0,0 UV-I 75 W/m 4,9 C 6,6 C 4,8 km/h (1 Bft) 96,15 %
19.04.2018 06:53 6,7 C 12,2 C 89 % 1029,8 hPa 0,0 l/m 3,6 km/h (1 Bft) O-SO 107 1 min 0,000 mm 0,0 UV-I 76 W/m 5,0 C 6,7 C 4,8 km/h (1 Bft) 100,00 %
19.04.2018 06:54 6,6 C 12,2 C 88 % 1029,8 hPa 0,0 l/m 4,1 km/h (1 Bft) O-SO 107 1 min 0,000 mm 0,0 UV-I 76 W/m 4,8 C 6,6 C 4,8 km/h (1 Bft) 100,00 %
19.04.2018 06:55 6,5 C 12,2 C 88 % 1029,8 hPa 0,0 l/m 3,7 km/h (1 Bft) O-SO 107 1 min 0,000 mm 0,0 UV-I 78 W/m 4,7 C 6,5 C 4,8 km/h (1 Bft) 96,30 %
19.04.2018 06:56 6,4 C 12,2 C 88 % 1029,8 hPa 0,0 l/m 3,9 km/h (1 Bft) O-SO 107 1 min 0,000 mm 0,0 UV-I 83 W/m 4,6 C 6,4 C 4,8 km/h (1 Bft) 95,65 %
19.04.2018 06:57 6,4 C 12,2 C 89 % 1029,8 hPa 0,0 l/m 4,4 km/h (1 Bft) O-SO 107 1 min 0,000 mm 0,0 UV-I 85 W/m 4,7 C 6,4 C 6,4 km/h (2 Bft) 100,00 %
19.04.2018 06:58 6,4 C 12,2 C 89 % 1029,8 hPa 0,0 l/m 3,7 km/h (1 Bft) O-SO 107 1 min 0,000 mm 0,0 UV-I 87 W/m 4,7 C 6,4 C 6,4 km/h (2 Bft) 95,65 %
19.04.2018 06:59 6,5 C 12,2 C 89 % 1029,8 hPa 0,0 l/m 2,4 km/h (1 Bft) O-SO 107 1 min 0,000 mm 0,0 UV-I 89 W/m 4,8 C 6,5 C 3,2 km/h (1 Bft) 100,00 %
19.04.2018 07:00 6,7 C 12,2 C 90 % 1029,8 hPa 0,0 l/m 3,0 km/h (1 Bft) O-SO 107 1 min 0,026 mm 0,0 UV-I 91 W/m 5,2 C 6,7 C 4,8 km/h (1 Bft) 95,65 %
19.04.2018 07:01 6,8 C 12,2 C 90 % 1029,8 hPa 0,0 l/m 4,2 km/h (1 Bft) O 81 1 min 0,000 mm 0,0 UV-I 93 W/m 5,3 C 6,8 C 6,4 km/h (2 Bft) 95,83 %
19.04.2018 07:02 7,1 C 12,2 C 89 % 1029,8 hPa 0,0 l/m 4,1 km/h (1 Bft) O 90 1 min 0,000 mm 0,0 UV-I 96 W/m 5,4 C 7,1 C 4,8 km/h (1 Bft) 92,31 %
19.04.2018 07:03 7,2 C 12,2 C 89 % 1029,8 hPa 0,0 l/m 2,5 km/h (1 Bft) O 90 1 min 0,000 mm 0,0 UV-I 98 W/m 5,5 C 7,2 C 4,8 km/h (1 Bft) 95,83 %
19.04.2018 07:04 7,3 C 12,2 C 88 % 1029,8 hPa 0,0 l/m 3,0 km/h (1 Bft) O 90 1 min 0,000 mm 0,0 UV-I 100 W/m 5,4 C 7,3 C 4,8 km/h (1 Bft) 100,00 %
19.04.2018 07:05 7,4 C 12,2 C 88 % 1029,8 hPa 0,0 l/m 1,7 km/h (1 Bft) O 90 1 min 0,000 mm 0,0 UV-I 104 W/m 5,5 C 7,4 C 3,2 km/h (1 Bft) 95,83 %
19.04.2018 07:06 7,4 C 12,2 C 88 % 1029,8 hPa 0,0 l/m 1,3 km/h (1 Bft) O 90 1 min 0,000 mm 0,0 UV-I 105 W/m 5,5 C 7,4 C 3,2 km/h (1 Bft) 100,00 %
19.04.2018 07:07 7,5 C 12,2 C 87 % 1029,8 hPa 0,0 l/m 2,8 km/h (1 Bft) O 91 1 min 0,000 mm 0,0 UV-I 107 W/m 5,5 C 7,5 C 4,8 km/h (1 Bft) 96,55 %
19.04.2018 07:08 7,5 C 12,2 C 87 % 1029,8 hPa 0,0 l/m 2,7 km/h (1 Bft) O 97 1 min 0,000 mm 0,0 UV-I 110 W/m 5,5 C 7,5 C 4,8 km/h (1 Bft) 100,00 %
19.04.2018 07:09 7,6 C 12,2 C 87 % 1029,8 hPa 0,0 l/m 2,5 km/h (1 Bft) O 97 1 min 0,000 mm 0,0 UV-I 112 W/m 5,6 C 7,6 C 3,2 km/h (1 Bft) 92,31 %
19.04.2018 07:10 7,7 C 12,2 C 87 % 1029,8 hPa 0,0 l/m 1,1 km/h (1 Bft) O 97 1 min 0,000 mm 0,0 UV-I 114 W/m 5,7 C 7,7 C 3,2 km/h (1 Bft) 96,30 %
19.04.2018 07:11 7,6 C 12,2 C 87 % 1029,8 hPa 0,0 l/m 4,5 km/h (1 Bft) SO 129 1 min 0,000 mm 0,0 UV-I 117 W/m 5,6 C 7,6 C 6,4 km/h (2 Bft) 92,31 %
19.04.2018 07:12 7,7 C 12,2 C 87 % 1029,8 hPa 0,0 l/m 3,8 km/h (1 Bft) SO 126 1 min 0,000 mm 0,0 UV-I 120 W/m 5,7 C 7,7 C 4,8 km/h (1 Bft) 95,83 %
19.04.2018 07:13 7,8 C 12,2 C 88 % 1029,9 hPa 0,0 l/m 2,8 km/h (1 Bft) SO 128 1 min 0,000 mm 0,0 UV-I 122 W/m 5,9 C 7,8 C 4,8 km/h (1 Bft) 100,00 %
19.04.2018 07:14 7,9 C 12,2 C 88 % 1029,8 hPa 0,0 l/m 4,3 km/h (1 Bft) SO 126 1 min 0,000 mm 0,0 UV-I 126 W/m 6,0 C 7,9 C 6,4 km/h (2 Bft) 93,33 %
19.04.2018 07:15 8,1 C 12,2 C 87 % 1029,8 hPa 0,0 l/m 1,5 km/h (1 Bft) SO 126 1 min 0,000 mm 0,0 UV-I 128 W/m 6,1 C 8,1 C 4,8 km/h (1 Bft) 100,00 %
19.04.2018 07:16 8,3 C 12,2 C 86 % 1029,8 hPa 0,0 l/m 1,6 km/h (1 Bft) SO 126 1 min 0,000 mm 0,0 UV-I 129 W/m 6,1 C 8,3 C 3,2 km/h (1 Bft) 95,83 %
19.04.2018 07:17 8,4 C 12,2 C 85 % 1029,8 hPa 0,0 l/m 1,7 km/h (1 Bft) SO 127 1 min 0,000 mm 0,0 UV-I 132 W/m 6,0 C 8,4 C 3,2 km/h (1 Bft) 95,65 %
19.04.2018 07:18 8,6 C 12,2 C 85 % 1029,9 hPa 0,0 l/m 1,2 km/h (1 Bft) SO 127 1 min 0,000 mm 0,0 UV-I 135 W/m 6,2 C 8,6 C 3,2 km/h (1 Bft) 96,30 %
19.04.2018 07:19 8,6 C 12,2 C 85 % 1029,9 hPa 0,0 l/m 0,0 km/h (0 Bft) SO 127 1 min 0,000 mm 0,0 UV-I 137 W/m 6,2 C 8,6 C 0,0 km/h (0 Bft) 95,65 %
19.04.2018 07:20 8,7 C 12,2 C 84 % 1029,8 hPa 0,0 l/m 0,0 km/h (0 Bft) SO 126 1 min 0,000 mm 0,0 UV-I 140 W/m 6,2 C 8,7 C 0,0 km/h (0 Bft) 96,30 %
19.04.2018 07:21 8,6 C 12,2 C 83 % 1029,9 hPa 0,0 l/m 0,2 km/h (0 Bft) SO 127 1 min 0,000 mm 0,0 UV-I 141 W/m 5,9 C 8,6 C 1,6 km/h (1 Bft) 97,60 %
19.04.2018 07:22 8,5 C 12,2 C 83 % 1029,8 hPa 0,0 l/m 0,9 km/h (0 Bft) SO 126 1 min 0,000 mm 0,0 UV-I 143 W/m 5,8 C 8,5 C 1,6 km/h (1 Bft) 95,12 %
19.04.2018 07:23 8,4 C 12,2 C 84 % 1029,9 hPa 0,0 l/m 0,8 km/h (0 Bft) SO 127 1 min 0,000 mm 0,0 UV-I 146 W/m 5,9 C 8,4 C 1,6 km/h (1 Bft) 96,55 %
19.04.2018 07:24 8,4 C 12,2 C 84 % 1029,9 hPa 0,0 l/m 1,0 km/h (0 Bft) SO 126 1 min 0,000 mm 0,0 UV-I 148 W/m 5,9 C 8,4 C 1,6 km/h (1 Bft) 100,00 %
19.04.2018 07:25 8,3 C 12,2 C 84 % 1029,9 hPa 0,0 l/m 2,0 km/h (1 Bft) SO 126 1 min 0,000 mm 0,0 UV-I 149 W/m 5,8 C 8,3 C 3,2 km/h (1 Bft) 91,67 %
19.04.2018 07:26 8,4 C 12,2 C 85 % 1029,9 hPa 0,0 l/m 2,0 km/h (1 Bft) SO 126 1 min 0,000 mm 0,0 UV-I 152 W/m 6,0 C 8,4 C 3,2 km/h (1 Bft) 100,00 %
19.04.2018 07:27 8,4 C 12,2 C 85 % 1029,9 hPa 0,0 l/m 2,4 km/h (1 Bft) SO 126 1 min 0,000 mm 0,0 UV-I 154 W/m 6,0 C 8,4 C 3,2 km/h (1 Bft) 95,83 %
19.04.2018 07:28 8,6 C 12,2 C 85 % 1029,9 hPa 0,0 l/m 2,3 km/h (1 Bft) SO 126 1 min 0,000 mm 0,0 UV-I 157 W/m 6,2 C 8,6 C 3,2 km/h (1 Bft) 95,65 %
19.04.2018 07:29 8,6 C 12,2 C 85 % 1029,9 hPa 0,0 l/m 2,4 km/h (1 Bft) SO 126 1 min 0,000 mm 0,0 UV-I 160 W/m 6,2 C 8,6 C 3,2 km/h (1 Bft) 95,83 %
19.04.2018 07:30 8,7 C 12,2 C 85 % 1029,9 hPa 0,0 l/m 2,5 km/h (1 Bft) SO 126 1 min 0,000 mm 0,0 UV-I 162 W/m 6,3 C 8,7 C 3,2 km/h (1 Bft) 96,15 %
19.04.2018 07:31 8,8 C 12,2 C 84 % 1029,9 hPa 0,0 l/m 2,1 km/h (1 Bft) SO 126 1 min 0,000 mm 0,0 UV-I 164 W/m 6,2 C 8,8 C 3,2 km/h (1 Bft) 100,00 %
19.04.2018 07:32 8,8 C 12,2 C 84 % 1029,9 hPa 0,0 l/m 2,8 km/h (1 Bft) SO 126 1 min 0,000 mm 0,0 UV-I 166 W/m 6,2 C 8,8 C 3,2 km/h (1 Bft) 95,65 %
19.04.2018 07:33 8,9 C 12,2 C 84 % 1029,9 hPa 0,0 l/m 1,5 km/h (1 Bft) SO 126 1 min 0,000 mm 0,0 UV-I 168 W/m 6,3 C 8,9 C 3,2 km/h (1 Bft) 100,00 %
19.04.2018 07:34 9,1 C 12,2 C 84 % 1029,9 hPa 0,0 l/m 2,4 km/h (1 Bft) SO 126 1 min 0,000 mm 0,0 UV-I 170 W/m 6,5 C 9,1 C 3,2 km/h (1 Bft) 95,65 %
19.04.2018 07:35 9,2 C 12,2 C 83 % 1029,9 hPa 0,0 l/m 1,5 km/h (1 Bft) SO 126 1 min 0,000 mm 0,0 UV-I 172 W/m 6,5 C 9,2 C 3,2 km/h (1 Bft) 100,00 %
19.04.2018 07:36 9,3 C 12,2 C 84 % 1029,9 hPa 0,0 l/m 1,6 km/h (1 Bft) SO 126 1 min 0,000 mm 0,0 UV-I 174 W/m 6,7 C 9,3 C 3,2 km/h (1 Bft) 96,15 %
19.04.2018 07:37 9,3 C 12,2 C 83 % 1030,0 hPa 0,0 l/m 1,7 km/h (1 Bft) SO 126 1 min 0,000 mm 0,0 UV-I 177 W/m 6,6 C 9,3 C 3,2 km/h (1 Bft) 95,83 %
19.04.2018 07:38 9,4 C 12,2 C 83 % 1030,0 hPa 0,0 l/m 2,0 km/h (1 Bft) SO 126 1 min 0,000 mm 0,0 UV-I 180 W/m 6,7 C 9,4 C 3,2 km/h (1 Bft) 100,00 %
19.04.2018 07:39 9,5 C 12,2 C 83 % 1029,9 hPa 0,0 l/m 1,3 km/h (1 Bft) SO 126 1 min 0,000 mm 0,0 UV-I 184 W/m 6,8 C 9,5 C 1,6 km/h (1 Bft) 96,30 %
19.04.2018 07:40 9,6 C 12,2 C 83 % 1029,9 hPa 0,0 l/m 2,0 km/h (1 Bft) SO 126 1 min 0,000 mm 0,0 UV-I 186 W/m 6,9 C 9,6 C 3,2 km/h (1 Bft) 100,00 %
19.04.2018 07:41 9,6 C 12,2 C 82 % 1029,9 hPa 0,0 l/m 1,3 km/h (1 Bft) SO 126 1 min 0,000 mm 0,0 UV-I 188 W/m 6,7 C 9,6 C 3,2 km/h (1 Bft) 100,00 %
19.04.2018 07:42 9,7 C 12,2 C 82 % 1029,9 hPa 0,0 l/m 2,1 km/h (1 Bft) SO 126 1 min 0,000 mm 0,0 UV-I 191 W/m 6,8 C 9,7 C 3,2 km/h (1 Bft) 100,00 %
19.04.2018 07:43 9,7 C 12,2 C 82 % 1029,9 hPa 0,0 l/m 2,2 km/h (1 Bft) SO 126 1 min 0,000 mm 0,0 UV-I 194 W/m 6,8 C 9,7 C 4,8 km/h (1 Bft) 100,00 %
19.04.2018 07:44 9,7 C 12,2 C 82 % 1029,9 hPa 0,0 l/m 3,2 km/h (1 Bft) SO 126 1 min 0,000 mm 0,0 UV-I 196 W/m 6,8 C 9,7 C 3,2 km/h (1 Bft) 100,00 %
19.04.2018 07:45 9,8 C 12,2 C 82 % 1029,9 hPa 0,0 l/m 3,1 km/h (1 Bft) SO 126 1 min 0,000 mm 0,0 UV-I 198 W/m 6,9 C 9,8 C 4,8 km/h (1 Bft) 100,00 %
19.04.2018 07:46 9,8 C 12,2 C 82 % 1029,9 hPa 0,0 l/m 3,0 km/h (1 Bft) O-SO 115 1 min 0,000 mm 0,0 UV-I 200 W/m 6,9 C 9,8 C 4,8 km/h (1 Bft) 100,00 %
19.04.2018 07:47 9,8 C 12,2 C 82 % 1029,9 hPa 0,0 l/m 3,7 km/h (1 Bft) O 101 1 min 0,000 mm 0,0 UV-I 204 W/m 6,9 C 9,8 C 4,8 km/h (1 Bft) 100,00 %
19.04.2018 07:48 9,9 C 12,2 C 82 % 1029,9 hPa 0,0 l/m 3,9 km/h (1 Bft) O-NO 63 1 min 0,000 mm 0,0 UV-I 207 W/m 7,0 C 9,9 C 4,8 km/h (1 Bft) 100,00 %
19.04.2018 07:49 9,9 C 12,2 C 82 % 1029,9 hPa 0,0 l/m 3,7 km/h (1 Bft) O-NO 63 1 min 0,000 mm 0,0 UV-I 210 W/m 7,0 C 9,9 C 6,4 km/h (2 Bft) 95,65 %
19.04.2018 07:50 9,9 C 12,2 C 82 % 1029,9 hPa 0,0 l/m 3,3 km/h (1 Bft) O-NO 63 1 min 0,000 mm 0,0 UV-I 212 W/m 7,0 C 9,9 C 4,8 km/h (1 Bft) 100,00 %
19.04.2018 07:51 9,9 C 12,2 C 82 % 1029,9 hPa 0,0 l/m 3,6 km/h (1 Bft) O-NO 63 1 min 0,000 mm 0,0 UV-I 215 W/m 7,0 C 9,9 C 4,8 km/h (1 Bft) 100,00 %
19.04.2018 07:52 10,1 C 12,2 C 82 % 1029,8 hPa 0,0 l/m 4,6 km/h (1 Bft) O-NO 63 1 min 0,000 mm 0,0 UV-I 220 W/m 7,2 C 10,1 C 6,4 km/h (2 Bft) 100,00 %
19.04.2018 07:53 10,1 C 12,2 C 82 % 1029,8 hPa 0,0 l/m 4,3 km/h (1 Bft) O-NO 63 1 min 0,000 mm 0,0 UV-I 220 W/m 7,2 C 10,1 C 4,8 km/h (1 Bft) 95,65 %
19.04.2018 07:54 10,1 C 12,2 C 82 % 1029,9 hPa 0,0 l/m 3,6 km/h (1 Bft) O-NO 63 1 min 0,000 mm 0,0 UV-I 225 W/m 7,2 C 10,1 C 4,8 km/h (1 Bft) 100,00 %
19.04.2018 07:55 10,2 C 12,2 C 82 % 1029,9 hPa 0,0 l/m 4,4 km/h (1 Bft) NO 51 1 min 0,000 mm 0,0 UV-I 228 W/m 7,3 C 10,2 C 6,4 km/h (2 Bft) 100,00 %
19.04.2018 07:56 10,2 C 12,2 C 82 % 1029,8 hPa 0,0 l/m 4,7 km/h (1 Bft) NO 55 1 min 0,000 mm 0,0 UV-I 230 W/m 7,3 C 10,2 C 6,4 km/h (2 Bft) 100,00 %
19.04.2018 07:57 10,3 C 12,2 C 81 % 1029,8 hPa 0,0 l/m 5,6 km/h (1 Bft) O-NO 59 1 min 0,000 mm 0,0 UV-I 231 W/m 7,2 C 10,3 C 8,0 km/h (2 Bft) 100,00 %
19.04.2018 07:58 10,3 C 12,2 C 81 % 1029,9 hPa 0,0 l/m 4,9 km/h (1 Bft) O-NO 59 1 min 0,000 mm 0,0 UV-I 235 W/m 7,2 C 10,3 C 6,4 km/h (2 Bft) 100,00 %
19.04.2018 07:59 10,3 C 12,2 C 81 % 1029,9 hPa 0,0 l/m 4,0 km/h (1 Bft) O-NO 59 1 min 0,000 mm 0,0 UV-I 237 W/m 7,2 C 10,3 C 4,8 km/h (1 Bft) 100,00 %
19.04.2018 08:00 10,3 C 12,2 C 81 % 1029,9 hPa 0,0 l/m 6,1 km/h (2 Bft) O-NO 59 1 min 0,076 mm 0,0 UV-I 242 W/m 7,2 C 10,3 C 8,0 km/h (2 Bft) 100,00 %
19.04.2018 08:01 10,4 C 12,2 C 81 % 1029,8 hPa 0,0 l/m 6,6 km/h (2 Bft) O-NO 69 1 min 0,000 mm 0,0 UV-I 245 W/m 7,3 C 10,3 C 8,0 km/h (2 Bft) 97,73 %
19.04.2018 08:02 10,4 C 12,2 C 82 % 1029,9 hPa 0,0 l/m 6,4 km/h (2 Bft) O-NO 57 1 min 0,000 mm 0,0 UV-I 247 W/m 7,5 C 10,4 C 8,0 km/h (2 Bft) 97,56 %
19.04.2018 08:03 10,4 C 12,2 C 80 % 1029,9 hPa 0,0 l/m 6,2 km/h (2 Bft) O-NO 66 1 min 0,000 mm 0,0 UV-I 249 W/m 7,1 C 10,4 C 8,0 km/h (2 Bft) 100,00 %
19.04.2018 08:04 10,4 C 12,2 C 80 % 1029,9 hPa 0,0 l/m 6,2 km/h (2 Bft) O-NO 75 1 min 0,000 mm 0,0 UV-I 251 W/m 7,1 C 10,4 C 9,7 km/h (2 Bft) 100,00 %
19.04.2018 08:05 10,4 C 12,2 C 80 % 1029,9 hPa 0,0 l/m 6,3 km/h (2 Bft) O-NO 74 1 min 0,000 mm 0,0 UV-I 253 W/m 7,1 C 10,4 C 8,0 km/h (2 Bft) 100,00 %
19.04.2018 08:06 10,4 C 12,2 C 80 % 1029,8 hPa 0,0 l/m 8,3 km/h (2 Bft) O-NO 71 1 min 0,000 mm 0,0 UV-I 257 W/m 7,1 C 9,1 C 11,3 km/h (2 Bft) 100,00 %
19.04.2018 08:07 10,4 C 12,2 C 79 % 1029,9 hPa 0,0 l/m 7,9 km/h (2 Bft) O-NO 60 1 min 0,000 mm 0,0 UV-I 259 W/m 6,9 C 9,3 C 11,3 km/h (2 Bft) 100,00 %
19.04.2018 08:08 10,4 C 12,2 C 79 % 1029,9 hPa 0,0 l/m 6,9 km/h (2 Bft) O-NO 62 1 min 0,000 mm 0,0 UV-I 261 W/m 6,9 C 10,0 C 8,0 km/h (2 Bft) 100,00 %
19.04.2018 08:09 10,5 C 12,2 C 79 % 1029,9 hPa 0,0 l/m 8,4 km/h (2 Bft) O-NO 74 1 min 0,000 mm 0,0 UV-I 265 W/m 7,0 C 9,1 C 12,9 km/h (3 Bft) 100,00 %
19.04.2018 08:10 10,5 C 12,2 C 79 % 1029,8 hPa 0,0 l/m 10,1 km/h (2 Bft) O 82 1 min 0,000 mm 0,4 UV-I 267 W/m 7,0 C 8,1 C 12,9 km/h (3 Bft) 100,00 %
19.04.2018 08:11 10,5 C 12,2 C 79 % 1029,9 hPa 0,0 l/m 8,1 km/h (2 Bft) O 79 1 min 0,000 mm 0,5 UV-I 271 W/m 7,0 C 9,3 C 11,3 km/h (2 Bft) 100,00 %
19.04.2018 08:12 10,5 C 12,2 C 78 % 1029,9 hPa 0,0 l/m 7,5 km/h (2 Bft) O 84 1 min 0,000 mm 0,5 UV-I 272 W/m 6,8 C 9,7 C 11,3 km/h (2 Bft) 100,00 %
19.04.2018 08:13 10,5 C 12,2 C 79 % 1029,8 hPa 0,0 l/m 7,9 km/h (2 Bft) O 80 1 min 0,000 mm 0,5 UV-I 275 W/m 7,0 C 9,4 C 11,3 km/h (2 Bft) 100,00 %
19.04.2018 08:14 10,5 C 12,2 C 79 % 1029,8 hPa 0,0 l/m 8,1 km/h (2 Bft) O-NO 71 1 min 0,000 mm 0,5 UV-I 277 W/m 7,0 C 9,3 C 12,9 km/h (3 Bft) 100,00 %
19.04.2018 08:15 10,6 C 12,2 C 79 % 1029,8 hPa 0,0 l/m 7,8 km/h (2 Bft) O-NO 71 1 min 0,000 mm 0,5 UV-I 280 W/m 7,1 C 9,6 C 11,3 km/h (2 Bft) 100,00 %
19.04.2018 08:16 10,6 C 12,2 C 79 % 1029,8 hPa 0,0 l/m 6,2 km/h (2 Bft) NO 50 1 min 0,000 mm 0,5 UV-I 283 W/m 7,1 C 10,6 C 8,0 km/h (2 Bft) 90,91 %
19.04.2018 08:17 10,6 C 12,2 C 80 % 1029,8 hPa 0,0 l/m 6,0 km/h (2 Bft) NO 51 1 min 0,000 mm 0,5 UV-I 286 W/m 7,3 C 10,6 C 8,0 km/h (2 Bft) 100,00 %
19.04.2018 08:18 10,7 C 12,2 C 80 % 1029,8 hPa 0,0 l/m 7,6 km/h (2 Bft) O-NO 58 1 min 0,000 mm 0,5 UV-I 288 W/m 7,4 C 9,9 C 11,3 km/h (2 Bft) 100,00 %
19.04.2018 08:19 10,7 C 12,2 C 80 % 1029,8 hPa 0,0 l/m 10,1 km/h (2 Bft) O-NO 65 1 min 0,000 mm 0,5 UV-I 291 W/m 7,4 C 8,3 C 14,5 km/h (3 Bft) 100,00 %
19.04.2018 08:20 10,8 C 12,2 C 81 % 1029,8 hPa 0,0 l/m 8,4 km/h (2 Bft) O-NO 62 1 min 0,000 mm 0,5 UV-I 295 W/m 7,7 C 9,4 C 12,9 km/h (3 Bft) 100,00 %
19.04.2018 08:21 10,9 C 12,2 C 80 % 1029,8 hPa 0,0 l/m 8,9 km/h (2 Bft) O-NO 73 1 min 0,000 mm 0,5 UV-I 297 W/m 7,6 C 9,2 C 12,9 km/h (3 Bft) 100,00 %
19.04.2018 08:22 10,9 C 12,2 C 78 % 1029,8 hPa 0,0 l/m 8,6 km/h (2 Bft) O-NO 63 1 min 0,000 mm 0,6 UV-I 301 W/m 7,2 C 9,4 C 12,9 km/h (3 Bft) 100,00 %
19.04.2018 08:23 10,9 C 12,2 C 78 % 1029,8 hPa 0,0 l/m 7,1 km/h (2 Bft) O-NO 70 1 min 0,000 mm 0,6 UV-I 304 W/m 7,2 C 10,4 C 11,3 km/h (2 Bft) 100,00 %
19.04.2018 08:24 10,9 C 12,2 C 78 % 1029,8 hPa 0,0 l/m 7,1 km/h (2 Bft) NO 35 1 min 0,000 mm 0,6 UV-I 307 W/m 7,2 C 10,4 C 9,7 km/h (2 Bft) 100,00 %
19.04.2018 08:25 11,0 C 12,2 C 78 % 1029,8 hPa 0,0 l/m 8,1 km/h (2 Bft) O 82 1 min 0,000 mm 0,6 UV-I 308 W/m 7,3 C 9,8 C 11,3 km/h (2 Bft) 100,00 %
19.04.2018 08:26 11,1 C 12,2 C 77 % 1029,8 hPa 0,0 l/m 10,0 km/h (2 Bft) O-NO 70 1 min 0,000 mm 0,6 UV-I 310 W/m 7,2 C 8,8 C 14,5 km/h (3 Bft) 100,00 %
19.04.2018 08:27 11,1 C 12,2 C 77 % 1029,8 hPa 0,0 l/m 8,4 km/h (2 Bft) O-NO 57 1 min 0,000 mm 0,6 UV-I 314 W/m 7,2 C 9,8 C 11,3 km/h (2 Bft) 100,00 %
19.04.2018 08:28 11,2 C 12,2 C 78 % 1029,8 hPa 0,0 l/m 8,0 km/h (2 Bft) NO 52 1 min 0,000 mm 0,6 UV-I 316 W/m 7,5 C 10,1 C 11,3 km/h (2 Bft) 95,83 %
19.04.2018 08:29 11,3 C 12,2 C 78 % 1029,8 hPa 0,0 l/m 8,6 km/h (2 Bft) O 86 1 min 0,000 mm 0,6 UV-I 320 W/m 7,6 C 9,8 C 11,3 km/h (2 Bft) 100,00 %
19.04.2018 08:30 11,3 C 12,2 C 77 % 1029,8 hPa 0,0 l/m 5,5 km/h (1 Bft) O-NO 66 1 min 0,000 mm 0,6 UV-I 322 W/m 7,4 C 11,3 C 8,0 km/h (2 Bft) 100,00 %
19.04.2018 08:31 11,4 C 12,2 C 77 % 1029,8 hPa 0,0 l/m 4,7 km/h (1 Bft) NO 51 1 min 0,000 mm 0,6 UV-I 325 W/m 7,5 C 11,4 C 6,4 km/h (2 Bft) 100,00 %
19.04.2018 08:32 11,5 C 12,2 C 77 % 1029,8 hPa 0,0 l/m 6,4 km/h (2 Bft) O-NO 67 1 min 0,000 mm 0,6 UV-I 328 W/m 7,6 C 11,5 C 8,0 km/h (2 Bft) 100,00 %
19.04.2018 08:33 11,6 C 12,2 C 76 % 1029,8 hPa 0,0 l/m 7,8 km/h (2 Bft) O-NO 78 1 min 0,000 mm 0,7 UV-I 330 W/m 7,5 C 10,7 C 11,3 km/h (2 Bft) 100,00 %
19.04.2018 08:34 11,6 C 12,2 C 76 % 1029,8 hPa 0,0 l/m 7,4 km/h (2 Bft) O-NO 70 1 min 0,000 mm 0,7 UV-I 334 W/m 7,5 C 10,9 C 11,3 km/h (2 Bft) 100,00 %
19.04.2018 08:35 11,5 C 12,2 C 75 % 1029,8 hPa 0,0 l/m 7,3 km/h (2 Bft) O-NO 72 1 min 0,000 mm 0,7 UV-I 337 W/m 7,2 C 10,9 C 9,7 km/h (2 Bft) 96,55 %
19.04.2018 08:36 11,5 C 12,2 C 75 % 1029,8 hPa 0,0 l/m 9,5 km/h (2 Bft) O-NO 65 1 min 0,000 mm 0,7 UV-I 339 W/m 7,2 C 9,5 C 12,9 km/h (3 Bft) 100,00 %
19.04.2018 08:37 11,5 C 12,2 C 75 % 1029,8 hPa 0,0 l/m 5,9 km/h (2 Bft) O-NO 72 1 min 0,000 mm 0,7 UV-I 343 W/m 7,2 C 11,5 C 8,0 km/h (2 Bft) 96,15 %
19.04.2018 08:38 11,6 C 12,2 C 76 % 1029,8 hPa 0,0 l/m 5,0 km/h (1 Bft) NO 47 1 min 0,000 mm 0,7 UV-I 346 W/m 7,5 C 11,6 C 8,0 km/h (2 Bft) 100,00 %
19.04.2018 08:39 11,6 C 12,2 C 77 % 1029,8 hPa 0,0 l/m 7,3 km/h (2 Bft) O-NO 58 1 min 0,000 mm 0,7 UV-I 348 W/m 7,7 C 11,0 C 8,0 km/h (2 Bft) 100,00 %
19.04.2018 08:40 11,7 C 12,2 C 77 % 1029,8 hPa 0,0 l/m 7,3 km/h (2 Bft) NO 48 1 min 0,000 mm 0,7 UV-I 352 W/m 7,8 C 11,1 C 9,7 km/h (2 Bft) 100,00 %
19.04.2018 08:41 11,7 C 12,2 C 77 % 1029,8 hPa 0,0 l/m 6,8 km/h (2 Bft) O-NO 66 1 min 0,000 mm 0,7 UV-I 354 W/m 7,8 C 11,4 C 8,0 km/h (2 Bft) 100,00 %
19.04.2018 08:42 11,8 C 12,2 C 77 % 1029,8 hPa 0,0 l/m 6,8 km/h (2 Bft) O-NO 65 1 min 0,000 mm 0,7 UV-I 358 W/m 7,9 C 11,5 C 9,7 km/h (2 Bft) 100,00 %
19.04.2018 08:43 11,8 C 12,2 C 75 % 1029,8 hPa 0,0 l/m 10,1 km/h (2 Bft) O-NO 65 1 min 0,000 mm 0,8 UV-I 361 W/m 7,5 C 9,5 C 12,9 km/h (3 Bft) 100,00 %
19.04.2018 08:44 11,9 C 12,2 C 76 % 1029,8 hPa 0,0 l/m 7,1 km/h (2 Bft) NO 52 1 min 0,000 mm 0,8 UV-I 363 W/m 7,8 C 11,4 C 9,7 km/h (2 Bft) 100,00 %
19.04.2018 08:45 12,0 C 12,2 C 76 % 1029,8 hPa 0,0 l/m 6,5 km/h (2 Bft) O-NO 61 1 min 0,000 mm 0,8 UV-I 367 W/m 7,9 C 12,0 C 8,0 km/h (2 Bft) 100,00 %
19.04.2018 08:46 12,1 C 12,2 C 76 % 1029,8 hPa 0,0 l/m 6,3 km/h (2 Bft) NO 53 1 min 0,000 mm 0,8 UV-I 369 W/m 8,0 C 12,1 C 9,7 km/h (2 Bft) 100,00 %
19.04.2018 08:47 12,2 C 12,2 C 76 % 1029,8 hPa 0,0 l/m 10,0 km/h (2 Bft) O 81 1 min 0,000 mm 0,8 UV-I 371 W/m 8,1 C 10,0 C 12,9 km/h (3 Bft) 100,00 %
19.04.2018 08:48 12,1 C 12,2 C 74 % 1029,8 hPa 0,0 l/m 7,5 km/h (2 Bft) O 80 1 min 0,000 mm 0,8 UV-I 374 W/m 7,6 C 11,4 C 9,7 km/h (2 Bft) 100,00 %
19.04.2018 08:49 12,1 C 12,2 C 74 % 1029,7 hPa 0,0 l/m 8,8 km/h (2 Bft) O 91 1 min 0,000 mm 0,8 UV-I 377 W/m 7,6 C 10,6 C 12,9 km/h (3 Bft) 100,00 %
19.04.2018 08:50 12,1 C 12,2 C 74 % 1029,7 hPa 0,0 l/m 7,3 km/h (2 Bft) O-NO 62 1 min 0,000 mm 0,8 UV-I 379 W/m 7,6 C 11,5 C 11,3 km/h (2 Bft) 100,00 %
19.04.2018 08:51 12,1 C 12,2 C 75 % 1029,7 hPa 0,0 l/m 8,7 km/h (2 Bft) O-NO 65 1 min 0,000 mm 0,8 UV-I 381 W/m 7,8 C 10,6 C 12,9 km/h (3 Bft) 96,30 %
19.04.2018 08:52 12,1 C 12,2 C 74 % 1029,7 hPa 0,0 l/m 9,7 km/h (2 Bft) O-NO 78 1 min 0,000 mm 0,9 UV-I 385 W/m 7,6 C 10,1 C 12,9 km/h (3 Bft) 100,00 %
19.04.2018 08:53 12,1 C 12,2 C 74 % 1029,7 hPa 0,0 l/m 8,6 km/h (2 Bft) O-NO 66 1 min 0,000 mm 0,9 UV-I 387 W/m 7,6 C 10,7 C 12,9 km/h (3 Bft) 95,83 %
19.04.2018 08:54 12,2 C 12,2 C 74 % 1029,7 hPa 0,0 l/m 8,1 km/h (2 Bft) O-NO 57 1 min 0,000 mm 0,9 UV-I 389 W/m 7,7 C 11,1 C 11,3 km/h (2 Bft) 100,00 %
19.04.2018 08:55 12,2 C 12,2 C 74 % 1029,7 hPa 0,0 l/m 10,9 km/h (2 Bft) O-NO 67 1 min 0,000 mm 0,9 UV-I 392 W/m 7,7 C 9,6 C 14,5 km/h (3 Bft) 95,83 %
19.04.2018 08:56 12,2 C 12,2 C 73 % 1029,7 hPa 0,0 l/m 10,2 km/h (2 Bft) O-NO 67 1 min 0,000 mm 0,9 UV-I 396 W/m 7,5 C 9,9 C 12,9 km/h (3 Bft) 96,15 %
19.04.2018 08:57 12,2 C 12,2 C 74 % 1029,7 hPa 0,0 l/m 9,6 km/h (2 Bft) O 80 1 min 0,000 mm 0,9 UV-I 397 W/m 7,7 C 10,2 C 12,9 km/h (3 Bft) 100,00 %
19.04.2018 08:58 12,2 C 12,2 C 73 % 1029,7 hPa 0,0 l/m 8,9 km/h (2 Bft) O 97 1 min 0,000 mm 0,9 UV-I 401 W/m 7,5 C 10,6 C 12,9 km/h (3 Bft) 96,15 %
19.04.2018 08:59 12,2 C 12,2 C 72 % 1029,6 hPa 0,0 l/m 11,4 km/h (2 Bft) O-NO 78 1 min 0,000 mm 0,9 UV-I 403 W/m 7,3 C 9,3 C 14,5 km/h (3 Bft) 98,03 %
19.04.2018 09:00 12,2 C 12,2 C 74 % 1029,7 hPa 0,0 l/m 7,6 km/h (2 Bft) O-NO 76 1 min 0,178 mm 0,9 UV-I 406 W/m 7,7 C 11,4 C 12,9 km/h (3 Bft) 95,74 %
19.04.2018 09:01 12,3 C 12,2 C 73 % 1029,7 hPa 0,0 l/m 7,8 km/h (2 Bft) O-SO 103 1 min 0,000 mm 1,0 UV-I 409 W/m 7,6 C 11,4 C 11,3 km/h (2 Bft) 100,00 %
19.04.2018 09:02 12,3 C 12,2 C 73 % 1029,6 hPa 0,0 l/m 8,6 km/h (2 Bft) O-NO 62 1 min 0,000 mm 1,0 UV-I 410 W/m 7,6 C 10,9 C 12,9 km/h (3 Bft) 91,67 %
19.04.2018 09:03 12,3 C 12,2 C 74 % 1029,7 hPa 0,0 l/m 7,8 km/h (2 Bft) O 90 1 min 0,000 mm 1,0 UV-I 414 W/m 7,8 C 11,4 C 11,3 km/h (2 Bft) 100,00 %
19.04.2018 09:04 12,4 C 12,2 C 73 % 1029,7 hPa 0,0 l/m 8,7 km/h (2 Bft) O 94 1 min 0,000 mm 1,0 UV-I 416 W/m 7,7 C 11,0 C 12,9 km/h (3 Bft) 96,97 %
19.04.2018 09:05 12,4 C 12,2 C 74 % 1029,7 hPa 0,0 l/m 8,6 km/h (2 Bft) O 81 1 min 0,000 mm 1,0 UV-I 419 W/m 7,9 C 11,0 C 12,9 km/h (3 Bft) 96,15 %
19.04.2018 09:06 12,4 C 12,2 C 74 % 1029,7 hPa 0,0 l/m 8,9 km/h (2 Bft) O-NO 67 1 min 0,000 mm 1,0 UV-I 421 W/m 7,9 C 10,8 C 12,9 km/h (3 Bft) 100,00 %
19.04.2018 09:07 12,4 C 12,2 C 74 % 1029,7 hPa 0,0 l/m 8,9 km/h (2 Bft) O 86 1 min 0,000 mm 1,0 UV-I 422 W/m 7,9 C 10,8 C 12,9 km/h (3 Bft) 91,30 %
19.04.2018 09:08 12,5 C 12,2 C 74 % 1029,7 hPa 0,0 l/m 10,4 km/h (2 Bft) O 90 1 min 0,000 mm 1,0 UV-I 424 W/m 8,0 C 10,2 C 12,9 km/h (3 Bft) 100,00 %
19.04.2018 09:09 12,5 C 12,2 C 73 % 1029,7 hPa 0,0 l/m 9,2 km/h (2 Bft) O 99 1 min 0,000 mm 1,1 UV-I 429 W/m 7,8 C 10,8 C 12,9 km/h (3 Bft) 95,65 %
19.04.2018 09:10 12,5 C 12,2 C 74 % 1029,7 hPa 0,0 l/m 10,3 km/h (2 Bft) O 101 1 min 0,000 mm 1,1 UV-I 431 W/m 8,0 C 10,2 C 12,9 km/h (3 Bft) 95,83 %
19.04.2018 09:11 12,6 C 12,2 C 73 % 1029,7 hPa 0,0 l/m 9,5 km/h (2 Bft) O 85 1 min 0,000 mm 1,1 UV-I 434 W/m 7,9 C 10,7 C 12,9 km/h (3 Bft) 93,10 %
19.04.2018 09:12 12,6 C 12,2 C 72 % 1029,7 hPa 0,0 l/m 8,5 km/h (2 Bft) O 79 1 min 0,000 mm 1,1 UV-I 436 W/m 7,7 C 11,3 C 14,5 km/h (3 Bft) 91,67 %
19.04.2018 09:13 12,6 C 12,2 C 75 % 1029,7 hPa 0,0 l/m 6,8 km/h (2 Bft) O-NO 75 1 min 0,000 mm 1,1 UV-I 439 W/m 8,3 C 12,4 C 9,7 km/h (2 Bft) 100,00 %
19.04.2018 09:14 12,7 C 12,2 C 73 % 1029,7 hPa 0,0 l/m 7,5 km/h (2 Bft) O-NO 69 1 min 0,000 mm 1,1 UV-I 439 W/m 8,0 C 12,0 C 9,7 km/h (2 Bft) 87,50 %
19.04.2018 09:15 12,8 C 12,2 C 73 % 1029,7 hPa 0,0 l/m 7,9 km/h (2 Bft) O-NO 78 1 min 0,000 mm 1,1 UV-I 443 W/m 8,1 C 11,9 C 12,9 km/h (3 Bft) 100,00 %
19.04.2018 09:16 12,9 C 12,2 C 74 % 1029,6 hPa 0,0 l/m 6,5 km/h (2 Bft) O 101 1 min 0,000 mm 1,1 UV-I 428 W/m 8,4 C 12,9 C 11,3 km/h (2 Bft) 91,67 %
19.04.2018 09:17 12,9 C 12,2 C 74 % 1029,7 hPa 0,0 l/m 9,5 km/h (2 Bft) O 99 1 min 0,000 mm 1,2 UV-I 450 W/m 8,4 C 11,1 C 11,3 km/h (2 Bft) 100,00 %
19.04.2018 09:18 12,9 C 12,2 C 73 % 1029,6 hPa 0,0 l/m 7,7 km/h (2 Bft) O 88 1 min 0,000 mm 1,2 UV-I 453 W/m 8,2 C 12,1 C 11,3 km/h (2 Bft) 93,10 %
19.04.2018 09:19 12,9 C 12,2 C 73 % 1029,7 hPa 0,0 l/m 8,9 km/h (2 Bft) O 82 1 min 0,000 mm 1,2 UV-I 455 W/m 8,2 C 11,4 C 12,9 km/h (3 Bft) 96,15 %
19.04.2018 09:20 13,0 C 12,2 C 75 % 1029,6 hPa 0,0 l/m 9,9 km/h (2 Bft) O 85 1 min 0,000 mm 1,2 UV-I 455 W/m 8,7 C 11,0 C 12,9 km/h (3 Bft) 100,00 %
19.04.2018 09:21 13,1 C 12,2 C 73 % 1029,6 hPa 0,0 l/m 9,1 km/h (2 Bft) O-NO 68 1 min 0,000 mm 1,2 UV-I 459 W/m 8,4 C 11,5 C 14,5 km/h (3 Bft) 100,00 %
19.04.2018 09:22 13,1 C 12,2 C 73 % 1029,6 hPa 0,0 l/m 10,6 km/h (2 Bft) O-NO 66 1 min 0,000 mm 1,2 UV-I 461 W/m 8,4 C 10,7 C 14,5 km/h (3 Bft) 96,15 %
19.04.2018 09:23 13,2 C 12,2 C 73 % 1029,7 hPa 0,0 l/m 10,5 km/h (2 Bft) O-NO 70 1 min 0,000 mm 1,2 UV-I 462 W/m 8,5 C 10,9 C 14,5 km/h (3 Bft) 92,59 %
19.04.2018 09:24 13,3 C 12,2 C 72 % 1029,6 hPa 0,0 l/m 11,1 km/h (2 Bft) O 82 1 min 0,000 mm 1,2 UV-I 422 W/m 8,4 C 10,7 C 12,9 km/h (3 Bft) 100,00 %
19.04.2018 09:25 13,4 C 12,2 C 72 % 1029,6 hPa 0,0 l/m 11,0 km/h (2 Bft) O-NO 63 1 min 0,000 mm 1,2 UV-I 366 W/m 8,5 C 10,9 C 14,5 km/h (3 Bft) 97,62 %
19.04.2018 09:26 13,4 C 12,2 C 71 % 1029,6 hPa 0,0 l/m 11,3 km/h (2 Bft) NO 54 1 min 0,000 mm 1,3 UV-I 449 W/m 8,3 C 10,7 C 14,5 km/h (3 Bft) 95,65 %
19.04.2018 09:27 13,3 C 12,2 C 70 % 1029,6 hPa 0,0 l/m 12,3 km/h (3 Bft) O 91 1 min 0,000 mm 1,3 UV-I 473 W/m 7,9 C 10,2 C 16,1 km/h (3 Bft) 91,67 %
19.04.2018 09:28 13,3 C 12,2 C 70 % 1029,6 hPa 0,0 l/m 11,9 km/h (2 Bft) O-NO 78 1 min 0,000 mm 1,3 UV-I 475 W/m 7,9 C 10,4 C 14,5 km/h (3 Bft) 100,00 %
19.04.2018 09:29 13,4 C 12,2 C 71 % 1029,6 hPa 0,0 l/m 11,8 km/h (2 Bft) O 93 1 min 0,000 mm 1,3 UV-I 478 W/m 8,3 C 10,5 C 14,5 km/h (3 Bft) 96,97 %
19.04.2018 09:30 13,4 C 12,2 C 71 % 1029,7 hPa 0,0 l/m 12,2 km/h (2 Bft) O 95 1 min 0,000 mm 1,3 UV-I 481 W/m 8,3 C 10,3 C 16,1 km/h (3 Bft) 96,15 %
19.04.2018 09:31 13,4 C 12,2 C 71 % 1029,7 hPa 0,0 l/m 12,2 km/h (2 Bft) O-NO 57 1 min 0,000 mm 1,3 UV-I 484 W/m 8,3 C 10,3 C 16,1 km/h (3 Bft) 97,83 %
19.04.2018 09:32 13,5 C 12,2 C 70 % 1029,6 hPa 0,0 l/m 10,8 km/h (2 Bft) O-NO 76 1 min 0,000 mm 1,3 UV-I 487 W/m 8,1 C 11,1 C 16,1 km/h (3 Bft) 100,00 %
19.04.2018 09:33 13,6 C 12,2 C 71 % 1029,6 hPa 0,0 l/m 12,7 km/h (3 Bft) NO 56 1 min 0,000 mm 1,3 UV-I 489 W/m 8,4 C 10,4 C 16,1 km/h (3 Bft) 96,30 %
19.04.2018 09:34 13,8 C 12,2 C 72 % 1029,6 hPa 0,0 l/m 12,2 km/h (2 Bft) NO 55 1 min 0,000 mm 1,3 UV-I 493 W/m 8,8 C 10,8 C 16,1 km/h (3 Bft) 96,15 %
19.04.2018 09:35 14,0 C 12,2 C 73 % 1029,6 hPa 0,0 l/m 10,3 km/h (2 Bft) NO 53 1 min 0,000 mm 1,4 UV-I 495 W/m 9,2 C 11,9 C 12,9 km/h (3 Bft) 100,00 %
19.04.2018 09:36 14,1 C 12,2 C 70 % 1029,6 hPa 0,0 l/m 10,5 km/h (2 Bft) O-NO 57 1 min 0,000 mm 1,4 UV-I 497 W/m 8,7 C 11,9 C 16,1 km/h (3 Bft) 93,33 %
19.04.2018 09:37 14,2 C 12,2 C 72 % 1029,6 hPa 0,0 l/m 13,6 km/h (3 Bft) NO 55 1 min 0,000 mm 1,4 UV-I 498 W/m 9,2 C 10,7 C 19,3 km/h (3 Bft) 100,00 %
19.04.2018 09:38 14,3 C 12,2 C 71 % 1029,6 hPa 0,0 l/m 10,9 km/h (2 Bft) O-NO 73 1 min 0,000 mm 1,4 UV-I 499 W/m 9,1 C 11,9 C 14,5 km/h (3 Bft) 96,55 %
19.04.2018 09:39 14,3 C 12,2 C 69 % 1029,6 hPa 0,0 l/m 11,3 km/h (2 Bft) O-NO 62 1 min 0,000 mm 1,4 UV-I 501 W/m 8,7 C 11,8 C 14,5 km/h (3 Bft) 100,00 %
19.04.2018 09:40 14,4 C 12,2 C 70 % 1029,6 hPa 0,0 l/m 9,7 km/h (2 Bft) NO 53 1 min 0,000 mm 1,4 UV-I 504 W/m 9,0 C 12,6 C 14,5 km/h (3 Bft) 96,30 %
19.04.2018 09:41 14,4 C 12,2 C 68 % 1029,6 hPa 0,0 l/m 11,3 km/h (2 Bft) O-NO 65 1 min 0,000 mm 1,4 UV-I 506 W/m 8,6 C 11,9 C 16,1 km/h (3 Bft) 100,00 %
19.04.2018 09:42 14,4 C 12,2 C 68 % 1029,6 hPa 0,0 l/m 9,1 km/h (2 Bft) NO 51 1 min 0,000 mm 1,4 UV-I 508 W/m 8,6 C 12,9 C 12,9 km/h (3 Bft) 95,83 %
19.04.2018 09:43 14,4 C 12,2 C 68 % 1029,7 hPa 0,0 l/m 12,7 km/h (3 Bft) O-NO 76 1 min 0,000 mm 1,5 UV-I 512 W/m 8,6 C 11,3 C 16,1 km/h (3 Bft) 96,15 %
19.04.2018 09:44 14,4 C 12,2 C 67 % 1029,6 hPa 0,0 l/m 12,5 km/h (3 Bft) O 89 1 min 0,000 mm 1,5 UV-I 513 W/m 8,4 C 11,4 C 14,5 km/h (3 Bft) 100,00 %
19.04.2018 09:45 14,4 C 12,2 C 67 % 1029,6 hPa 0,0 l/m 9,5 km/h (2 Bft) O-NO 57 1 min 0,000 mm 1,5 UV-I 515 W/m 8,4 C 12,7 C 12,9 km/h (3 Bft) 96,15 %
19.04.2018 09:46 14,4 C 12,2 C 68 % 1029,6 hPa 0,0 l/m 7,2 km/h (2 Bft) O-NO 78 1 min 0,000 mm 1,5 UV-I 518 W/m 8,6 C 13,9 C 9,7 km/h (2 Bft) 100,00 %
19.04.2018 09:47 14,5 C 12,2 C 68 % 1029,6 hPa 0,0 l/m 8,5 km/h (2 Bft) O 80 1 min 0,000 mm 1,5 UV-I 519 W/m 8,7 C 13,3 C 12,9 km/h (3 Bft) 92,31 %
19.04.2018 09:48 14,6 C 12,2 C 68 % 1029,6 hPa 0,0 l/m 10,4 km/h (2 Bft) O 89 1 min 0,000 mm 1,5 UV-I 521 W/m 8,8 C 12,5 C 12,9 km/h (3 Bft) 100,00 %
19.04.2018 09:49 14,7 C 12,2 C 67 % 1029,6 hPa 0,0 l/m 14,6 km/h (3 Bft) O-NO 69 1 min 0,000 mm 1,5 UV-I 526 W/m 8,6 C 11,0 C 17,7 km/h (3 Bft) 94,12 %
19.04.2018 09:50 14,8 C 12,2 C 67 % 1029,5 hPa 0,0 l/m 8,9 km/h (2 Bft) O-NO 67 1 min 0,000 mm 1,6 UV-I 527 W/m 8,7 C 13,4 C 12,9 km/h (3 Bft) 100,00 %
19.04.2018 09:51 14,9 C 12,2 C 68 % 1029,5 hPa 0,0 l/m 11,0 km/h (2 Bft) O 90 1 min 0,000 mm 1,6 UV-I 528 W/m 9,0 C 12,6 C 14,5 km/h (3 Bft) 92,31 %
19.04.2018 09:52 14,9 C 12,2 C 67 % 1029,5 hPa 0,0 l/m 10,7 km/h (2 Bft) O-NO 63 1 min 0,000 mm 1,6 UV-I 532 W/m 8,8 C 12,7 C 16,1 km/h (3 Bft) 96,67 %
19.04.2018 09:53 15,0 C 12,2 C 68 % 1029,5 hPa 0,0 l/m 7,5 km/h (2 Bft) O 90 1 min 0,000 mm 1,6 UV-I 534 W/m 9,1 C 14,4 C 9,7 km/h (2 Bft) 100,00 %
19.04.2018 09:54 15,1 C 12,2 C 67 % 1029,5 hPa 0,0 l/m 8,1 km/h (2 Bft) O 79 1 min 0,000 mm 1,6 UV-I 535 W/m 9,0 C 14,2 C 11,3 km/h (2 Bft) 96,15 %
19.04.2018 09:55 15,1 C 12,2 C 66 % 1029,6 hPa 0,0 l/m 9,1 km/h (2 Bft) O-NO 66 1 min 0,000 mm 1,6 UV-I 538 W/m 8,8 C 13,6 C 14,5 km/h (3 Bft) 96,30 %
19.04.2018 09:56 15,1 C 12,2 C 66 % 1029,5 hPa 0,0 l/m 13,9 km/h (3 Bft) NO 53 1 min 0,000 mm 1,6 UV-I 540 W/m 8,8 C 11,7 C 17,7 km/h (3 Bft) 96,15 %
19.04.2018 09:57 15,2 C 12,2 C 67 % 1029,5 hPa 0,0 l/m 14,2 km/h (3 Bft) O-NO 57 1 min 0,000 mm 1,7 UV-I 541 W/m 9,1 C 11,7 C 17,7 km/h (3 Bft) 100,00 %
19.04.2018 09:58 15,3 C 12,2 C 67 % 1029,5 hPa 0,0 l/m 10,9 km/h (2 Bft) O 82 1 min 0,000 mm 1,7 UV-I 544 W/m 9,2 C 13,1 C 16,1 km/h (3 Bft) 96,30 %
19.04.2018 09:59 15,3 C 12,2 C 67 % 1029,5 hPa 0,0 l/m 12,3 km/h (3 Bft) O-NO 72 1 min 0,000 mm 1,7 UV-I 546 W/m 9,2 C 12,5 C 16,1 km/h (3 Bft) 100,00 %
19.04.2018 10:00 15,4 C 12,2 C 66 % 1029,5 hPa 0,0 l/m 12,7 km/h (3 Bft) O 97 1 min 0,279 mm 1,7 UV-I 548 W/m 9,1 C 12,5 C 16,1 km/h (3 Bft) 95,83 %
19.04.2018 10:01 15,4 C 12,2 C 65 % 1029,5 hPa 0,0 l/m 11,5 km/h (2 Bft) O-NO 77 1 min 0,000 mm 1,7 UV-I 550 W/m 8,9 C 12,9 C 14,5 km/h (3 Bft) 100,00 %
19.04.2018 10:02 15,5 C 12,2 C 65 % 1029,5 hPa 0,0 l/m 12,1 km/h (2 Bft) O 97 1 min 0,000 mm 1,7 UV-I 552 W/m 8,9 C 12,8 C 17,7 km/h (3 Bft) 96,55 %
19.04.2018 10:03 15,5 C 12,2 C 65 % 1029,5 hPa 0,0 l/m 9,6 km/h (2 Bft) NO 45 1 min 0,000 mm 1,7 UV-I 554 W/m 8,9 C 13,8 C 14,5 km/h (3 Bft) 100,00 %
19.04.2018 10:04 15,6 C 12,2 C 65 % 1029,5 hPa 0,0 l/m 10,2 km/h (2 Bft) O-NO 61 1 min 0,000 mm 1,7 UV-I 554 W/m 9,0 C 13,7 C 14,5 km/h (3 Bft) 96,15 %
19.04.2018 10:05 15,6 C 12,2 C 66 % 1029,5 hPa 0,0 l/m 7,3 km/h (2 Bft) NO 51 1 min 0,000 mm 1,7 UV-I 556 W/m 9,3 C 15,1 C 12,9 km/h (3 Bft) 100,00 %
19.04.2018 10:06 15,7 C 12,2 C 68 % 1029,5 hPa 0,0 l/m 14,3 km/h (3 Bft) NO 55 1 min 0,000 mm 1,8 UV-I 558 W/m 9,8 C 12,3 C 17,7 km/h (3 Bft) 92,31 %
19.04.2018 10:07 15,9 C 12,2 C 68 % 1029,4 hPa 0,0 l/m 11,7 km/h (2 Bft) O 88 1 min 0,000 mm 1,8 UV-I 560 W/m 10,0 C 13,4 C 16,1 km/h (3 Bft) 100,00 %
19.04.2018 10:08 16,0 C 12,2 C 65 % 1029,5 hPa 0,0 l/m 10,2 km/h (2 Bft) O 92 1 min 0,000 mm 1,8 UV-I 563 W/m 9,4 C 14,1 C 14,5 km/h (3 Bft) 100,00 %
19.04.2018 10:09 16,1 C 12,2 C 65 % 1029,5 hPa 0,0 l/m 9,7 km/h (2 Bft) O 87 1 min 0,000 mm 1,8 UV-I 563 W/m 9,5 C 14,5 C 12,9 km/h (3 Bft) 100,00 %
19.04.2018 10:10 16,1 C 12,2 C 65 % 1029,5 hPa 0,0 l/m 11,4 km/h (2 Bft) O-NO 59 1 min 0,000 mm 1,8 UV-I 565 W/m 9,5 C 13,8 C 16,1 km/h (3 Bft) 100,00 %
19.04.2018 10:11 16,1 C 12,2 C 64 % 1029,5 hPa 0,0 l/m 12,7 km/h (3 Bft) NO 43 1 min 0,000 mm 1,8 UV-I 567 W/m 9,3 C 13,3 C 16,1 km/h (3 Bft) 100,00 %
19.04.2018 10:12 16,1 C 12,2 C 65 % 1029,5 hPa 0,0 l/m 14,6 km/h (3 Bft) NO 55 1 min 0,000 mm 1,9 UV-I 570 W/m 9,5 C 12,6 C 17,7 km/h (3 Bft) 100,00 %
19.04.2018 10:13 16,2 C 12,2 C 65 % 1029,4 hPa 0,0 l/m 14,8 km/h (3 Bft) O-NO 70 1 min 0,000 mm 1,9 UV-I 573 W/m 9,6 C 12,7 C 17,7 km/h (3 Bft) 100,00 %
19.04.2018 10:14 16,2 C 12,2 C 64 % 1029,5 hPa 0,0 l/m 11,9 km/h (2 Bft) O-NO 61 1 min 0,000 mm 1,9 UV-I 575 W/m 9,4 C 13,7 C 16,1 km/h (3 Bft) 100,00 %
19.04.2018 10:15 16,2 C 12,2 C 63 % 1029,5 hPa 0,0 l/m 12,7 km/h (3 Bft) O-NO 69 1 min 0,000 mm 1,9 UV-I 576 W/m 9,1 C 13,4 C 16,1 km/h (3 Bft) 100,00 %
19.04.2018 10:16 16,2 C 12,2 C 62 % 1029,5 hPa 0,0 l/m 13,5 km/h (3 Bft) O 97 1 min 0,000 mm 1,9 UV-I 578 W/m 8,9 C 13,1 C 17,7 km/h (3 Bft) 100,00 %
19.04.2018 10:17 16,2 C 12,2 C 63 % 1029,5 hPa 0,0 l/m 7,9 km/h (2 Bft) NO 44 1 min 0,000 mm 1,9 UV-I 581 W/m 9,1 C 15,4 C 9,7 km/h (2 Bft) 100,00 %
19.04.2018 10:18 16,2 C 12,2 C 65 % 1029,5 hPa 0,0 l/m 11,9 km/h (2 Bft) NO 54 1 min 0,000 mm 1,9 UV-I 583 W/m 9,6 C 13,7 C 16,1 km/h (3 Bft) 100,00 %
19.04.2018 10:19 16,4 C 12,2 C 66 % 1029,5 hPa 0,0 l/m 14,0 km/h (3 Bft) NO 44 1 min 0,000 mm 2,0 UV-I 585 W/m 10,0 C 13,2 C 19,3 km/h (3 Bft) 100,00 %
19.04.2018 10:20 16,5 C 12,2 C 64 % 1029,5 hPa 0,0 l/m 11,6 km/h (2 Bft) O-NO 67 1 min 0,000 mm 2,0 UV-I 585 W/m 9,7 C 14,1 C 14,5 km/h (3 Bft) 100,00 %
19.04.2018 10:21 16,6 C 12,2 C 63 % 1029,5 hPa 0,0 l/m 13,7 km/h (3 Bft) NO 52 1 min 0,000 mm 2,0 UV-I 584 W/m 9,5 C 13,5 C 16,1 km/h (3 Bft) 100,00 %
19.04.2018 10:22 16,7 C 12,2 C 63 % 1029,5 hPa 0,0 l/m 13,6 km/h (3 Bft) NO 43 1 min 0,000 mm 2,0 UV-I 585 W/m 9,6 C 13,7 C 19,3 km/h (3 Bft) 100,00 %
19.04.2018 10:23 16,8 C 12,2 C 64 % 1029,4 hPa 0,0 l/m 13,6 km/h (3 Bft) N-NO 20 1 min 0,000 mm 2,0 UV-I 589 W/m 10,0 C 13,8 C 16,1 km/h (3 Bft) 100,00 %
19.04.2018 10:24 16,8 C 12,2 C 62 % 1029,5 hPa 0,0 l/m 16,7 km/h (3 Bft) O-NO 74 1 min 0,000 mm 2,0 UV-I 594 W/m 9,5 C 12,9 C 19,3 km/h (3 Bft) 97,87 %
19.04.2018 10:25 16,9 C 12,2 C 63 % 1029,4 hPa 0,0 l/m 15,1 km/h (3 Bft) NO 42 1 min 0,000 mm 2,0 UV-I 595 W/m 9,8 C 13,5 C 19,3 km/h (3 Bft) 100,00 %
19.04.2018 10:26 16,9 C 12,2 C 62 % 1029,4 hPa 0,0 l/m 11,1 km/h (2 Bft) O-NO 58 1 min 0,000 mm 2,1 UV-I 599 W/m 9,6 C 14,8 C 19,3 km/h (3 Bft) 100,00 %
19.04.2018 10:27 16,9 C 12,2 C 62 % 1029,5 hPa 0,0 l/m 12,5 km/h (3 Bft) O-NO 59 1 min 0,000 mm 2,1 UV-I 599 W/m 9,6 C 14,3 C 16,1 km/h (3 Bft) 100,00 %
19.04.2018 10:28 17,0 C 12,2 C 63 % 1029,4 hPa 0,0 l/m 15,4 km/h (3 Bft) NO 51 1 min 0,000 mm 2,1 UV-I 602 W/m 9,9 C 13,5 C 19,3 km/h (3 Bft) 100,00 %
19.04.2018 10:29 17,1 C 12,2 C 62 % 1029,4 hPa 0,0 l/m 14,5 km/h (3 Bft) O-NO 59 1 min 0,000 mm 2,1 UV-I 603 W/m 9,8 C 13,9 C 17,7 km/h (3 Bft) 100,00 %
19.04.2018 10:30 17,2 C 12,2 C 60 % 1029,5 hPa 0,0 l/m 8,0 km/h (2 Bft) N-NO 26 1 min 0,000 mm 2,1 UV-I 604 W/m 9,4 C 16,4 C 9,7 km/h (2 Bft) 96,15 %
19.04.2018 10:31 17,2 C 12,2 C 60 % 1029,4 hPa 0,0 l/m 8,4 km/h (2 Bft) NO 56 1 min 0,000 mm 2,1 UV-I 606 W/m 9,4 C 16,2 C 11,3 km/h (2 Bft) 96,15 %
19.04.2018 10:32 17,3 C 12,2 C 64 % 1029,4 hPa 0,0 l/m 15,3 km/h (3 Bft) O-NO 59 1 min 0,000 mm 2,2 UV-I 610 W/m 10,4 C 13,9 C 19,3 km/h (3 Bft) 100,00 %
19.04.2018 10:33 17,4 C 12,2 C 61 % 1029,4 hPa 0,0 l/m 14,6 km/h (3 Bft) O-NO 68 1 min 0,000 mm 2,2 UV-I 610 W/m 9,8 C 14,2 C 19,3 km/h (3 Bft) 93,75 %
19.04.2018 10:34 17,3 C 12,2 C 61 % 1029,5 hPa 0,0 l/m 9,1 km/h (2 Bft) O-NO 69 1 min 0,000 mm 2,2 UV-I 612 W/m 9,7 C 16,0 C 14,5 km/h (3 Bft) 100,00 %
19.04.2018 10:35 17,3 C 12,2 C 59 % 1029,5 hPa 0,0 l/m 11,3 km/h (2 Bft) O-NO 63 1 min 0,000 mm 2,2 UV-I 614 W/m 9,2 C 15,2 C 16,1 km/h (3 Bft) 100,00 %
19.04.2018 10:36 17,3 C 12,2 C 61 % 1029,5 hPa 0,0 l/m 13,8 km/h (3 Bft) O-NO 67 1 min 0,000 mm 2,2 UV-I 616 W/m 9,7 C 14,3 C 19,3 km/h (3 Bft) 97,56 %
19.04.2018 10:37 17,3 C 12,2 C 60 % 1029,4 hPa 0,0 l/m 17,4 km/h (3 Bft) O-NO 62 1 min 0,000 mm 2,2 UV-I 619 W/m 9,5 C 13,3 C 20,9 km/h (4 Bft) 93,33 %
19.04.2018 10:38 17,3 C 12,2 C 59 % 1029,4 hPa 0,0 l/m 13,3 km/h (3 Bft) NO 55 1 min 0,000 mm 2,2 UV-I 621 W/m 9,2 C 14,5 C 16,1 km/h (3 Bft) 100,00 %
19.04.2018 10:39 17,4 C 12,2 C 60 % 1029,4 hPa 0,0 l/m 12,3 km/h (3 Bft) N-NO 29 1 min 0,000 mm 2,2 UV-I 622 W/m 9,6 C 14,9 C 16,1 km/h (3 Bft) 96,30 %
19.04.2018 10:40 17,5 C 12,2 C 62 % 1029,5 hPa 0,0 l/m 12,8 km/h (3 Bft) N-NO 32 1 min 0,000 mm 2,2 UV-I 623 W/m 10,1 C 14,9 C 19,3 km/h (3 Bft) 92,86 %
19.04.2018 10:41 17,6 C 12,2 C 61 % 1029,4 hPa 0,0 l/m 14,3 km/h (3 Bft) NO 46 1 min 0,000 mm 2,3 UV-I 627 W/m 10,0 C 14,5 C 17,7 km/h (3 Bft) 90,91 %
19.04.2018 10:42 17,7 C 12,2 C 61 % 1029,4 hPa 0,0 l/m 15,2 km/h (3 Bft) NO 44 1 min 0,000 mm 2,3 UV-I 628 W/m 10,1 C 14,4 C 19,3 km/h (3 Bft) 95,65 %
19.04.2018 10:43 17,7 C 12,2 C 60 % 1029,4 hPa 0,0 l/m 16,0 km/h (3 Bft) N-NO 26 1 min 0,000 mm 2,3 UV-I 629 W/m 9,8 C 14,2 C 20,9 km/h (4 Bft) 100,00 %
19.04.2018 10:44 17,8 C 12,2 C 60 % 1029,4 hPa 0,0 l/m 13,5 km/h (3 Bft) N-NO 24 1 min 0,000 mm 2,3 UV-I 631 W/m 9,9 C 15,0 C 16,1 km/h (3 Bft) 91,30 %
19.04.2018 10:45 17,8 C 12,2 C 60 % 1029,4 hPa 0,0 l/m 12,7 km/h (3 Bft) NO 54 1 min 0,000 mm 2,3 UV-I 632 W/m 9,9 C 15,3 C 16,1 km/h (3 Bft) 96,30 %
19.04.2018 10:46 17,8 C 12,2 C 60 % 1029,4 hPa 0,0 l/m 10,5 km/h (2 Bft) NO 36 1 min 0,000 mm 2,3 UV-I 634 W/m 9,9 C 16,0 C 14,5 km/h (3 Bft) 92,86 %
19.04.2018 10:47 17,8 C 12,2 C 60 % 1029,5 hPa 0,0 l/m 13,9 km/h (3 Bft) NO 50 1 min 0,000 mm 2,3 UV-I 636 W/m 9,9 C 14,9 C 19,3 km/h (3 Bft) 100,00 %
19.04.2018 10:48 17,9 C 12,2 C 59 % 1029,4 hPa 0,0 l/m 13,6 km/h (3 Bft) NO 38 1 min 0,000 mm 2,4 UV-I 638 W/m 9,8 C 15,1 C 17,7 km/h (3 Bft) 96,15 %
19.04.2018 10:49 17,9 C 12,2 C 59 % 1029,4 hPa 0,0 l/m 15,9 km/h (3 Bft) O 82 1 min 0,000 mm 2,4 UV-I 637 W/m 9,8 C 14,5 C 19,3 km/h (3 Bft) 96,30 %
19.04.2018 10:50 17,8 C 12,2 C 58 % 1029,4 hPa 0,0 l/m 9,1 km/h (2 Bft) NO 44 1 min 0,000 mm 2,4 UV-I 640 W/m 9,4 C 16,6 C 11,3 km/h (2 Bft) 100,00 %
19.04.2018 10:51 17,8 C 12,2 C 59 % 1029,4 hPa 0,0 l/m 14,1 km/h (3 Bft) NO 46 1 min 0,000 mm 2,4 UV-I 642 W/m 9,7 C 14,8 C 20,9 km/h (4 Bft) 96,55 %
19.04.2018 10:52 17,9 C 12,2 C 60 % 1029,4 hPa 0,0 l/m 13,9 km/h (3 Bft) O-NO 78 1 min 0,000 mm 2,4 UV-I 644 W/m 10,0 C 15,0 C 17,7 km/h (3 Bft) 100,00 %
19.04.2018 10:53 17,9 C 12,2 C 60 % 1029,4 hPa 0,0 l/m 13,3 km/h (3 Bft) NO 37 1 min 0,000 mm 2,4 UV-I 646 W/m 10,0 C 15,2 C 19,3 km/h (3 Bft) 96,55 %
19.04.2018 10:54 18,0 C 12,2 C 62 % 1029,4 hPa 0,0 l/m 11,6 km/h (2 Bft) O-NO 61 1 min 0,000 mm 2,4 UV-I 647 W/m 10,6 C 15,9 C 16,1 km/h (3 Bft) 100,00 %
19.04.2018 10:55 18,1 C 12,2 C 60 % 1029,4 hPa 0,0 l/m 13,6 km/h (3 Bft) NO 49 1 min 0,000 mm 2,5 UV-I 647 W/m 10,2 C 15,3 C 16,1 km/h (3 Bft) 96,30 %
19.04.2018 10:56 18,2 C 12,2 C 60 % 1029,4 hPa 0,0 l/m 13,9 km/h (3 Bft) N-NO 18 1 min 0,000 mm 2,5 UV-I 650 W/m 10,3 C 15,4 C 17,7 km/h (3 Bft) 100,00 %
19.04.2018 10:57 18,3 C 12,2 C 61 % 1029,4 hPa 0,0 l/m 14,6 km/h (3 Bft) NO 45 1 min 0,000 mm 2,5 UV-I 652 W/m 10,6 C 15,3 C 19,3 km/h (3 Bft) 100,00 %
19.04.2018 10:58 18,4 C 12,2 C 60 % 1029,4 hPa 0,0 l/m 17,2 km/h (3 Bft) O-NO 63 1 min 0,000 mm 2,5 UV-I 653 W/m 10,5 C 14,8 C 19,3 km/h (3 Bft) 95,83 %
19.04.2018 10:59 18,3 C 12,2 C 58 % 1029,4 hPa 0,0 l/m 11,7 km/h (2 Bft) O-NO 69 1 min 0,000 mm 2,5 UV-I 656 W/m 9,9 C 16,2 C 17,7 km/h (3 Bft) 95,65 %
19.04.2018 11:00 18,3 C 12,2 C 57 % 1029,4 hPa 0,0 l/m 11,3 km/h (2 Bft) O-NO 57 1 min 0,000 mm 2,5 UV-I 657 W/m 9,6 C 16,3 C 16,1 km/h (3 Bft) 91,67 %
19.04.2018 11:02 18,3 C 12,2 C 60 % 1029,4 hPa 0,0 l/m 13,3 km/h (3 Bft) NO 55 2 min 0,381 mm 2,6 UV-I 653 W/m 10,4 C 15,7 C 20,9 km/h (4 Bft) 100,00 %
19.04.2018 11:03 18,3 C 12,2 C 60 % 1029,4 hPa 0,0 l/m 11,5 km/h (2 Bft) O-NO 59 1 min 0,000 mm 2,6 UV-I 633 W/m 10,4 C 16,2 C 14,5 km/h (3 Bft) 100,00 %
19.04.2018 11:04 18,3 C 12,2 C 58 % 1029,4 hPa 0,0 l/m 9,9 km/h (2 Bft) NO 56 1 min 0,000 mm 2,6 UV-I 666 W/m 9,9 C 16,8 C 12,9 km/h (3 Bft) 100,00 %
19.04.2018 11:05 18,4 C 12,2 C 59 % 1029,4 hPa 0,0 l/m 13,9 km/h (3 Bft) NO 53 1 min 0,000 mm 2,7 UV-I 667 W/m 10,2 C 15,6 C 19,3 km/h (3 Bft) 97,84 %
19.04.2018 11:06 18,6 C 12,2 C 61 % 1029,4 hPa 0,0 l/m 16,3 km/h (3 Bft) N-NO 28 1 min 0,000 mm 2,7 UV-I 668 W/m 10,9 C 15,2 C 20,9 km/h (4 Bft) 100,00 %
19.04.2018 11:07 18,7 C 12,2 C 61 % 1029,4 hPa 0,0 l/m 13,7 km/h (3 Bft) O-NO 68 1 min 0,000 mm 2,7 UV-I 670 W/m 11,0 C 16,0 C 17,7 km/h (3 Bft) 100,00 %
19.04.2018 11:08 18,8 C 12,2 C 60 % 1029,4 hPa 0,0 l/m 15,4 km/h (3 Bft) NO 55 1 min 0,000 mm 2,7 UV-I 671 W/m 10,9 C 15,7 C 19,3 km/h (3 Bft) 100,00 %
19.04.2018 11:09 18,8 C 12,2 C 57 % 1029,4 hPa 0,0 l/m 15,5 km/h (3 Bft) NO 51 1 min 0,000 mm 2,7 UV-I 672 W/m 10,1 C 15,7 C 19,3 km/h (3 Bft) 100,00 %
19.04.2018 11:10 18,8 C 12,2 C 57 % 1029,4 hPa 0,0 l/m 16,1 km/h (3 Bft) O-NO 64 1 min 0,000 mm 2,7 UV-I 675 W/m 10,1 C 15,5 C 19,3 km/h (3 Bft) 97,73 %
19.04.2018 11:11 18,8 C 12,2 C 59 % 1029,4 hPa 0,0 l/m 14,8 km/h (3 Bft) NO 55 1 min 0,000 mm 2,8 UV-I 677 W/m 10,6 C 15,8 C 19,3 km/h (3 Bft) 93,33 %
19.04.2018 11:12 18,9 C 12,2 C 60 % 1029,4 hPa 0,0 l/m 17,0 km/h (3 Bft) O-NO 61 1 min 0,000 mm 2,8 UV-I 680 W/m 11,0 C 15,4 C 20,9 km/h (4 Bft) 100,00 %
19.04.2018 11:13 19,0 C 12,2 C 61 % 1029,3 hPa 0,0 l/m 17,1 km/h (3 Bft) O-NO 76 1 min 0,000 mm 2,8 UV-I 682 W/m 11,3 C 15,5 C 20,9 km/h (4 Bft) 100,00 %
19.04.2018 11:14 19,1 C 12,2 C 58 % 1029,4 hPa 0,0 l/m 13,0 km/h (3 Bft) O 91 1 min 0,000 mm 2,8 UV-I 682 W/m 10,6 C 16,7 C 17,7 km/h (3 Bft) 96,88 %
19.04.2018 11:15 19,1 C 12,2 C 58 % 1029,3 hPa 0,0 l/m 13,6 km/h (3 Bft) O 84 1 min 0,000 mm 2,8 UV-I 684 W/m 10,6 C 16,5 C 17,7 km/h (3 Bft) 100,00 %
19.04.2018 11:16 19,1 C 12,2 C 57 % 1029,3 hPa 0,0 l/m 19,4 km/h (3 Bft) O 84 1 min 0,000 mm 2,8 UV-I 684 W/m 10,4 C 15,2 C 24,1 km/h (4 Bft) 100,00 %
19.04.2018 11:17 19,1 C 12,2 C 56 % 1029,3 hPa 0,0 l/m 18,9 km/h (3 Bft) NO 55 1 min 0,000 mm 2,8 UV-I 686 W/m 10,1 C 15,3 C 22,5 km/h (4 Bft) 100,00 %
19.04.2018 11:18 18,9 C 12,2 C 55 % 1029,4 hPa 0,0 l/m 14,9 km/h (3 Bft) O 83 1 min 0,000 mm 2,8 UV-I 686 W/m 9,7 C 15,9 C 19,3 km/h (3 Bft) 100,00 %
19.04.2018 11:19 18,9 C 12,2 C 56 % 1029,4 hPa 0,0 l/m 13,3 km/h (3 Bft) O-SO 110 1 min 0,000 mm 2,8 UV-I 686 W/m 9,9 C 16,4 C 16,1 km/h (3 Bft) 100,00 %
19.04.2018 11:20 18,8 C 12,2 C 57 % 1029,3 hPa 0,0 l/m 13,5 km/h (3 Bft) O 84 1 min 0,000 mm 2,9 UV-I 687 W/m 10,1 C 16,2 C 17,7 km/h (3 Bft) 100,00 %
19.04.2018 11:21 18,8 C 12,2 C 56 % 1029,4 hPa 0,0 l/m 13,8 km/h (3 Bft) NO 47 1 min 0,000 mm 2,9 UV-I 689 W/m 9,8 C 16,1 C 17,7 km/h (3 Bft) 100,00 %
19.04.2018 11:22 18,8 C 12,2 C 57 % 1029,3 hPa 0,0 l/m 13,6 km/h (3 Bft) O-NO 78 1 min 0,000 mm 2,9 UV-I 690 W/m 10,1 C 16,2 C 17,7 km/h (3 Bft) 100,00 %
19.04.2018 11:23 18,8 C 12,2 C 59 % 1029,3 hPa 0,0 l/m 15,1 km/h (3 Bft) NO 51 1 min 0,000 mm 2,9 UV-I 689 W/m 10,6 C 15,8 C 20,9 km/h (4 Bft) 100,00 %
19.04.2018 11:24 18,9 C 12,2 C 58 % 1029,3 hPa 0,0 l/m 16,7 km/h (3 Bft) O-NO 61 1 min 0,000 mm 2,9 UV-I 693 W/m 10,5 C 15,5 C 20,9 km/h (4 Bft) 100,00 %
19.04.2018 11:25 19,0 C 12,2 C 58 % 1029,3 hPa 0,0 l/m 15,7 km/h (3 Bft) NO 48 1 min 0,000 mm 3,0 UV-I 694 W/m 10,5 C 15,9 C 20,9 km/h (4 Bft) 100,00 %
19.04.2018 11:26 19,1 C 12,2 C 57 % 1029,3 hPa 0,0 l/m 12,4 km/h (3 Bft) O-NO 78 1 min 0,000 mm 3,0 UV-I 697 W/m 10,4 C 16,9 C 16,1 km/h (3 Bft) 100,00 %
19.04.2018 11:27 19,1 C 12,2 C 58 % 1029,3 hPa 0,0 l/m 14,6 km/h (3 Bft) O 92 1 min 0,000 mm 3,0 UV-I 699 W/m 10,6 C 16,3 C 19,3 km/h (3 Bft) 100,00 %
19.04.2018 11:28 19,0 C 12,2 C 56 % 1029,3 hPa 0,0 l/m 11,5 km/h (2 Bft) O-NO 78 1 min 0,000 mm 3,0 UV-I 701 W/m 10,0 C 17,0 C 14,5 km/h (3 Bft) 100,00 %
19.04.2018 11:29 19,1 C 12,2 C 57 % 1029,3 hPa 0,0 l/m 10,1 km/h (2 Bft) O-SO 102 1 min 0,000 mm 3,0 UV-I 704 W/m 10,4 C 17,6 C 12,9 km/h (3 Bft) 100,00 %
19.04.2018 11:30 19,2 C 12,2 C 61 % 1029,3 hPa 0,0 l/m 15,8 km/h (3 Bft) O-NO 65 1 min 0,000 mm 3,1 UV-I 703 W/m 11,5 C 16,1 C 20,9 km/h (4 Bft) 100,00 %
19.04.2018 11:31 19,2 C 12,2 C 58 % 1029,3 hPa 0,0 l/m 15,3 km/h (3 Bft) O 82 1 min 0,000 mm 3,1 UV-I 705 W/m 10,7 C 16,2 C 20,9 km/h (4 Bft) 100,00 %
19.04.2018 11:33 19,2 C 12,2 C 57 % 1029,2 hPa 0,0 l/m 14,5 km/h (3 Bft) O 86 2 min 0,000 mm 3,1 UV-I 706 W/m 10,5 C 16,4 C 20,9 km/h (4 Bft) 100,00 %
19.04.2018 11:34 19,2 C 12,2 C 59 % 1029,2 hPa 0,0 l/m 15,7 km/h (3 Bft) O 81 1 min 0,000 mm 3,1 UV-I 707 W/m 11,0 C 16,1 C 19,3 km/h (3 Bft) 91,67 %
19.04.2018 11:35 19,3 C 12,2 C 58 % 1029,2 hPa 0,0 l/m 15,5 km/h (3 Bft) O 84 1 min 0,000 mm 3,1 UV-I 708 W/m 10,8 C 16,3 C 19,3 km/h (3 Bft) 100,00 %
19.04.2018 11:36 19,3 C 12,2 C 58 % 1029,2 hPa 0,0 l/m 17,9 km/h (3 Bft) O-NO 69 1 min 0,000 mm 3,1 UV-I 709 W/m 10,8 C 15,7 C 22,5 km/h (4 Bft) 100,00 %
19.04.2018 11:37 19,3 C 12,2 C 56 % 1029,2 hPa 0,0 l/m 15,1 km/h (3 Bft) O-NO 74 1 min 0,000 mm 3,1 UV-I 712 W/m 10,3 C 16,4 C 19,3 km/h (3 Bft) 97,95 %
19.04.2018 11:38 19,3 C 12,2 C 57 % 1029,2 hPa 0,0 l/m 18,0 km/h (3 Bft) O 90 1 min 0,000 mm 3,1 UV-I 713 W/m 10,6 C 15,7 C 22,5 km/h (4 Bft) 100,00 %
19.04.2018 11:39 19,3 C 12,2 C 56 % 1029,2 hPa 0,0 l/m 16,2 km/h (3 Bft) O-NO 70 1 min 0,000 mm 3,1 UV-I 714 W/m 10,3 C 16,1 C 20,9 km/h (4 Bft) 100,00 %
19.04.2018 11:40 19,2 C 12,2 C 56 % 1029,2 hPa 0,0 l/m 17,6 km/h (3 Bft) O 81 1 min 0,000 mm 3,1 UV-I 714 W/m 10,2 C 15,7 C 22,5 km/h (4 Bft) 100,00 %
19.04.2018 11:41 19,3 C 12,2 C 57 % 1029,2 hPa 0,0 l/m 14,3 km/h (3 Bft) O-NO 67 1 min 0,000 mm 3,1 UV-I 714 W/m 10,6 C 16,6 C 20,9 km/h (4 Bft) 86,96 %
19.04.2018 11:42 19,3 C 12,2 C 58 % 1029,2 hPa 0,0 l/m 15,8 km/h (3 Bft) O 80 1 min 0,000 mm 3,1 UV-I 714 W/m 10,8 C 16,2 C 20,9 km/h (4 Bft) 100,00 %
19.04.2018 11:43 19,4 C 12,2 C 57 % 1029,2 hPa 0,0 l/m 12,2 km/h (2 Bft) O-NO 61 1 min 0,000 mm 3,2 UV-I 715 W/m 10,7 C 17,3 C 16,1 km/h (3 Bft) 97,95 %
19.04.2018 11:44 19,3 C 12,2 C 57 % 1029,2 hPa 0,0 l/m 17,1 km/h (3 Bft) NO 53 1 min 0,000 mm 3,2 UV-I 718 W/m 10,6 C 15,9 C 20,9 km/h (4 Bft) 100,00 %
19.04.2018 11:45 19,4 C 12,2 C 56 % 1029,2 hPa 0,0 l/m 16,2 km/h (3 Bft) O 84 1 min 0,000 mm 3,2 UV-I 717 W/m 10,4 C 16,2 C 20,9 km/h (4 Bft) 100,00 %
19.04.2018 11:46 19,4 C 12,2 C 57 % 1029,2 hPa 0,0 l/m 14,2 km/h (3 Bft) O-NO 65 1 min 0,000 mm 3,2 UV-I 718 W/m 10,7 C 16,7 C 20,9 km/h (4 Bft) 100,00 %
19.04.2018 11:47 19,4 C 12,2 C 56 % 1029,2 hPa 0,0 l/m 16,6 km/h (3 Bft) O-NO 63 1 min 0,000 mm 3,2 UV-I 722 W/m 10,4 C 16,1 C 24,1 km/h (4 Bft) 100,00 %
19.04.2018 11:48 19,4 C 12,2 C 55 % 1029,2 hPa 0,0 l/m 19,5 km/h (3 Bft) NO 53 1 min 0,000 mm 3,2 UV-I 719 W/m 10,1 C 15,5 C 22,5 km/h (4 Bft) 100,00 %
19.04.2018 11:49 19,4 C 12,2 C 55 % 1029,2 hPa 0,0 l/m 18,8 km/h (3 Bft) O-NO 68 1 min 0,000 mm 3,2 UV-I 721 W/m 10,1 C 15,7 C 22,5 km/h (4 Bft) 100,00 %
19.04.2018 11:50 19,5 C 12,2 C 55 % 1029,2 hPa 0,0 l/m 16,8 km/h (3 Bft) O-NO 74 1 min 0,000 mm 3,2 UV-I 722 W/m 10,2 C 16,2 C 20,9 km/h (4 Bft) 100,00 %
19.04.2018 11:51 19,5 C 12,2 C 55 % 1029,1 hPa 0,0 l/m 15,8 km/h (3 Bft) O-NO 60 1 min 0,000 mm 3,2 UV-I 723 W/m 10,2 C 16,5 C 20,9 km/h (4 Bft) 96,30 %
19.04.2018 11:52 19,6 C 12,2 C 55 % 1029,1 hPa 0,0 l/m 17,2 km/h (3 Bft) O-NO 69 1 min 0,000 mm 3,3 UV-I 724 W/m 10,3 C 16,3 C 19,3 km/h (3 Bft) 100,00 %
19.04.2018 11:53 19,6 C 12,2 C 55 % 1029,1 hPa 0,0 l/m 17,9 km/h (3 Bft) O 92 1 min 0,000 mm 3,3 UV-I 724 W/m 10,3 C 16,1 C 20,9 km/h (4 Bft) 100,00 %
19.04.2018 11:54 19,6 C 12,2 C 55 % 1029,1 hPa 0,0 l/m 13,9 km/h (3 Bft) O-NO 74 1 min 0,000 mm 3,3 UV-I 728 W/m 10,3 C 17,0 C 20,9 km/h (4 Bft) 100,00 %
19.04.2018 11:55 19,6 C 12,2 C 55 % 1029,2 hPa 0,0 l/m 18,4 km/h (3 Bft) O 80 1 min 0,000 mm 3,3 UV-I 729 W/m 10,3 C 16,0 C 22,5 km/h (4 Bft) 100,00 %
19.04.2018 11:56 19,6 C 12,2 C 54 % 1029,1 hPa 0,0 l/m 17,9 km/h (3 Bft) O 92 1 min 0,000 mm 3,3 UV-I 733 W/m 10,0 C 16,1 C 22,5 km/h (4 Bft) 100,00 %
19.04.2018 11:57 19,6 C 12,2 C 55 % 1029,1 hPa 0,0 l/m 15,6 km/h (3 Bft) O 94 1 min 0,000 mm 3,3 UV-I 731 W/m 10,3 C 16,6 C 19,3 km/h (3 Bft) 100,00 %
19.04.2018 11:58 19,6 C 12,2 C 54 % 1029,1 hPa 0,0 l/m 18,2 km/h (3 Bft) NO 51 1 min 0,000 mm 3,4 UV-I 734 W/m 10,0 C 16,0 C 24,1 km/h (4 Bft) 100,00 %
19.04.2018 11:59 19,6 C 12,2 C 53 % 1029,1 hPa 0,0 l/m 16,5 km/h (3 Bft) NO 55 1 min 0,000 mm 3,4 UV-I 734 W/m 9,8 C 16,4 C 24,1 km/h (4 Bft) 100,00 %
19.04.2018 12:00 19,7 C 12,2 C 55 % 1029,0 hPa 0,0 l/m 17,3 km/h (3 Bft) O-NO 72 1 min 0,483 mm 3,4 UV-I 740 W/m 10,4 C 16,4 C 22,5 km/h (4 Bft) 100,00 %
19.04.2018 12:01 19,8 C 12,2 C 54 % 1029,0 hPa 0,0 l/m 16,1 km/h (3 Bft) O 86 1 min 0,000 mm 3,4 UV-I 739 W/m 10,2 C 16,7 C 19,3 km/h (3 Bft) 100,00 %
19.04.2018 12:02 19,8 C 12,2 C 53 % 1029,0 hPa 0,0 l/m 17,3 km/h (3 Bft) O-NO 64 1 min 0,000 mm 3,4 UV-I 741 W/m 9,9 C 16,5 C 20,9 km/h (4 Bft) 100,00 %
19.04.2018 12:03 19,9 C 12,2 C 58 % 1029,0 hPa 0,0 l/m 16,6 km/h (3 Bft) O-NO 58 1 min 0,000 mm 3,4 UV-I 739 W/m 11,4 C 16,8 C 25,7 km/h (4 Bft) 100,00 %
19.04.2018 12:04 19,9 C 12,2 C 58 % 1029,0 hPa 0,0 l/m 20,0 km/h (4 Bft) NO 55 1 min 0,000 mm 3,4 UV-I 742 W/m 11,4 C 16,1 C 25,7 km/h (4 Bft) 100,00 %
19.04.2018 12:05 20,1 C 12,2 C 57 % 1029,0 hPa 0,0 l/m 15,7 km/h (3 Bft) NO 49 1 min 0,000 mm 3,5 UV-I 744 W/m 11,3 C 17,2 C 20,9 km/h (4 Bft) 100,00 %
19.04.2018 12:06 20,2 C 12,2 C 55 % 1028,9 hPa 0,0 l/m 17,0 km/h (3 Bft) NO 54 1 min 0,000 mm 3,4 UV-I 740 W/m 10,9 C 17,0 C 20,9 km/h (4 Bft) 100,00 %
19.04.2018 12:07 20,3 C 12,2 C 57 % 1028,9 hPa 0,0 l/m 10,2 km/h (2 Bft) O-NO 63 1 min 0,000 mm 3,5 UV-I 741 W/m 11,5 C 18,9 C 14,5 km/h (3 Bft) 91,67 %
19.04.2018 12:08 20,3 C 12,2 C 56 % 1028,9 hPa 0,0 l/m 19,2 km/h (3 Bft) O-NO 75 1 min 0,000 mm 3,4 UV-I 744 W/m 11,2 C 16,7 C 25,7 km/h (4 Bft) 100,00 %
19.04.2018 12:09 20,3 C 12,2 C 51 % 1029,0 hPa 0,0 l/m 19,0 km/h (3 Bft) O-NO 61 1 min 0,000 mm 3,5 UV-I 748 W/m 9,8 C 16,8 C 24,1 km/h (4 Bft) 100,00 %
19.04.2018 12:10 20,2 C 12,2 C 51 % 1028,9 hPa 0,0 l/m 20,4 km/h (4 Bft) O-NO 64 1 min 0,000 mm 3,5 UV-I 750 W/m 9,7 C 16,4 C 24,1 km/h (4 Bft) 96,67 %
19.04.2018 12:11 20,1 C 12,2 C 51 % 1028,9 hPa 0,0 l/m 15,4 km/h (3 Bft) O-NO 67 1 min 0,000 mm 3,5 UV-I 749 W/m 9,6 C 17,3 C 19,3 km/h (3 Bft) 100,00 %
19.04.2018 12:12 20,1 C 12,2 C 52 % 1028,9 hPa 0,0 l/m 14,1 km/h (3 Bft) O-SO 113 1 min 0,000 mm 3,5 UV-I 746 W/m 9,9 C 17,6 C 17,7 km/h (3 Bft) 93,33 %
19.04.2018 12:13 20,1 C 12,2 C 53 % 1028,9 hPa 0,0 l/m 15,5 km/h (3 Bft) O 94 1 min 0,000 mm 3,5 UV-I 753 W/m 10,2 C 17,3 C 19,3 km/h (3 Bft) 100,00 %
19.04.2018 12:14 20,1 C 12,2 C 53 % 1028,9 hPa 0,0 l/m 15,4 km/h (3 Bft) O-NO 61 1 min 0,000 mm 3,5 UV-I 753 W/m 10,2 C 17,3 C 20,9 km/h (4 Bft) 93,33 %
19.04.2018 12:15 20,2 C 12,2 C 54 % 1028,9 hPa 0,0 l/m 12,5 km/h (3 Bft) NO 53 1 min 0,000 mm 3,5 UV-I 750 W/m 10,6 C 18,1 C 16,1 km/h (3 Bft) 100,00 %
19.04.2018 12:16 20,2 C 12,2 C 54 % 1028,9 hPa 0,0 l/m 11,3 km/h (2 Bft) O-NO 57 1 min 0,000 mm 3,5 UV-I 751 W/m 10,6 C 18,5 C 16,1 km/h (3 Bft) 91,67 %
19.04.2018 12:18 20,4 C 12,2 C 50 % 1028,8 hPa 0,0 l/m 17,2 km/h (3 Bft) O 80 2 min 0,000 mm 3,6 UV-I 748 W/m 9,6 C 17,3 C 24,1 km/h (4 Bft) 98,39 %
19.04.2018 12:19 20,5 C 12,2 C 47 % 1028,8 hPa 0,0 l/m 15,1 km/h (3 Bft) O 86 1 min 0,000 mm 3,6 UV-I 752 W/m 8,8 C 17,8 C 20,9 km/h (4 Bft) 86,96 %
19.04.2018 12:20 20,5 C 12,2 C 47 % 1028,9 hPa 0,0 l/m 22,7 km/h (4 Bft) O 92 1 min 0,000 mm 3,6 UV-I 757 W/m 8,8 C 16,4 C 25,7 km/h (4 Bft) 100,00 %
19.04.2018 12:21 20,4 C 12,2 C 44 % 1028,9 hPa 0,0 l/m 15,9 km/h (3 Bft) O 94 1 min 0,000 mm 3,6 UV-I 758 W/m 7,7 C 17,5 C 19,3 km/h (3 Bft) 96,88 %
19.04.2018 12:22 20,4 C 12,8 C 47 % 1028,8 hPa 0,0 l/m 15,7 km/h (3 Bft) O-SO 107 1 min 0,000 mm 3,6 UV-I 758 W/m 8,7 C 17,6 C 24,1 km/h (4 Bft) 100,00 %
19.04.2018 12:23 20,3 C 12,2 C 48 % 1028,8 hPa 0,0 l/m 15,2 km/h (3 Bft) NO 40 1 min 0,000 mm 3,6 UV-I 754 W/m 8,9 C 17,6 C 19,3 km/h (3 Bft) 96,15 %
19.04.2018 12:24 20,4 C 12,2 C 51 % 1028,8 hPa 0,0 l/m 12,5 km/h (3 Bft) O-NO 67 1 min 0,000 mm 3,6 UV-I 755 W/m 9,9 C 18,4 C 19,3 km/h (3 Bft) 100,00 %
19.04.2018 12:25 20,4 C 12,2 C 49 % 1028,8 hPa 0,0 l/m 15,8 km/h (3 Bft) O 80 1 min 0,000 mm 3,6 UV-I 756 W/m 9,3 C 17,6 C 20,9 km/h (4 Bft) 93,33 %
19.04.2018 12:26 20,4 C 12,2 C 49 % 1028,8 hPa 0,0 l/m 17,7 km/h (3 Bft) O-NO 69 1 min 0,000 mm 3,6 UV-I 758 W/m 9,3 C 17,2 C 20,9 km/h (4 Bft) 97,37 %
19.04.2018 12:28 20,5 C 12,2 C 44 % 1028,8 hPa 0,0 l/m 18,1 km/h (3 Bft) O-NO 65 2 min 0,000 mm 3,6 UV-I 746 W/m 7,8 C 17,2 C 27,4 km/h (4 Bft) 97,87 %
19.04.2018 12:29 20,6 C 12,2 C 47 % 1028,8 hPa 0,0 l/m 16,7 km/h (3 Bft) NO 51 1 min 0,000 mm 3,6 UV-I 753 W/m 8,9 C 17,6 C 22,5 km/h (4 Bft) 100,00 %
19.04.2018 12:30 20,7 C 12,2 C 48 % 1028,7 hPa 0,0 l/m 18,8 km/h (3 Bft) O 85 1 min 0,000 mm 3,6 UV-I 756 W/m 9,3 C 17,3 C 24,1 km/h (4 Bft) 95,65 %
19.04.2018 12:31 20,7 C 12,8 C 43 % 1028,7 hPa 0,0 l/m 17,7 km/h (3 Bft) O-NO 67 1 min 0,000 mm 3,7 UV-I 757 W/m 7,7 C 17,5 C 22,5 km/h (4 Bft) 100,00 %
19.04.2018 12:32 20,7 C 12,2 C 42 % 1028,7 hPa 0,0 l/m 22,5 km/h (4 Bft) O-NO 64 1 min 0,000 mm 3,7 UV-I 757 W/m 7,3 C 16,7 C 27,4 km/h (4 Bft) 96,15 %
19.04.2018 12:33 20,7 C 12,2 C 42 % 1028,8 hPa 0,0 l/m 19,4 km/h (3 Bft) O-NO 65 1 min 0,000 mm 3,7 UV-I 759 W/m 7,3 C 17,2 C 24,1 km/h (4 Bft) 96,30 %
19.04.2018 12:34 20,7 C 12,2 C 42 % 1028,8 hPa 0,0 l/m 17,9 km/h (3 Bft) NO 40 1 min 0,000 mm 3,7 UV-I 758 W/m 7,3 C 17,5 C 22,5 km/h (4 Bft) 100,00 %
19.04.2018 12:35 20,7 C 12,2 C 42 % 1028,7 hPa 0,0 l/m 16,7 km/h (3 Bft) O-NO 68 1 min 0,000 mm 3,7 UV-I 759 W/m 7,3 C 17,7 C 20,9 km/h (4 Bft) 100,00 %
19.04.2018 12:36 20,6 C 12,2 C 42 % 1028,7 hPa 0,0 l/m 16,2 km/h (3 Bft) O 85 1 min 0,000 mm 3,7 UV-I 761 W/m 7,2 C 17,7 C 20,9 km/h (4 Bft) 97,56 %
19.04.2018 12:37 20,6 C 12,2 C 42 % 1028,7 hPa 0,0 l/m 18,0 km/h (3 Bft) O-SO 111 1 min 0,000 mm 3,7 UV-I 762 W/m 7,2 C 17,3 C 24,1 km/h (4 Bft) 95,83 %
19.04.2018 12:38 20,7 C 12,2 C 43 % 1028,7 hPa 0,0 l/m 19,1 km/h (3 Bft) O 95 1 min 0,000 mm 3,7 UV-I 761 W/m 7,7 C 17,3 C 24,1 km/h (4 Bft) 100,00 %
19.04.2018 12:39 20,8 C 12,2 C 42 % 1028,7 hPa 0,0 l/m 17,8 km/h (3 Bft) NO 39 1 min 0,000 mm 3,7 UV-I 761 W/m 7,4 C 17,6 C 29,0 km/h (5 Bft) 97,22 %
19.04.2018 12:40 20,9 C 12,2 C 45 % 1028,7 hPa 0,0 l/m 20,0 km/h (4 Bft) NO 49 1 min 0,000 mm 3,7 UV-I 758 W/m 8,5 C 17,4 C 22,5 km/h (4 Bft) 100,00 %
19.04.2018 12:41 20,9 C 12,2 C 42 % 1028,7 hPa 0,0 l/m 9,2 km/h (2 Bft) O-NO 69 1 min 0,000 mm 3,7 UV-I 759 W/m 7,5 C 19,9 C 16,1 km/h (3 Bft) 93,33 %
19.04.2018 12:42 20,9 C 12,2 C 45 % 1028,6 hPa 0,0 l/m 13,7 km/h (3 Bft) O-NO 63 1 min 0,000 mm 3,7 UV-I 759 W/m 8,5 C 18,6 C 19,3 km/h (3 Bft) 100,00 %
19.04.2018 12:43 21,1 C 12,2 C 47 % 1028,6 hPa 0,0 l/m 15,9 km/h (3 Bft) O-NO 63 1 min 0,000 mm 3,7 UV-I 759 W/m 9,3 C 18,4 C 24,1 km/h (4 Bft) 100,00 %
19.04.2018 12:44 21,1 C 12,2 C 38 % 1028,7 hPa 0,0 l/m 19,1 km/h (3 Bft) O 82 1 min 0,000 mm 3,7 UV-I 759 W/m 6,2 C 17,8 C 20,9 km/h (4 Bft) 92,31 %
19.04.2018 12:45 21,0 C 12,2 C 38 % 1028,6 hPa 0,0 l/m 16,7 km/h (3 Bft) O 89 1 min 0,000 mm 3,7 UV-I 762 W/m 6,1 C 18,1 C 22,5 km/h (4 Bft) 100,00 %
19.04.2018 12:46 21,0 C 12,2 C 40 % 1028,6 hPa 0,0 l/m 12,8 km/h (3 Bft) O 80 1 min 0,000 mm 3,7 UV-I 761 W/m 6,9 C 19,0 C 17,7 km/h (3 Bft) 100,00 %
19.04.2018 12:47 21,1 C 12,2 C 42 % 1028,6 hPa 0,0 l/m 14,5 km/h (3 Bft) O 94 1 min 0,000 mm 3,8 UV-I 762 W/m 7,7 C 18,7 C 16,1 km/h (3 Bft) 100,00 %
19.04.2018 12:48 21,1 C 12,2 C 43 % 1028,6 hPa 0,0 l/m 17,5 km/h (3 Bft) O-NO 68 1 min 0,000 mm 3,7 UV-I 763 W/m 8,0 C 18,1 C 24,1 km/h (4 Bft) 100,00 %
19.04.2018 12:49 21,1 C 12,2 C 42 % 1028,6 hPa 0,0 l/m 23,0 km/h (4 Bft) O-NO 67 1 min 0,000 mm 3,8 UV-I 764 W/m 7,7 C 17,2 C 27,4 km/h (4 Bft) 100,00 %
19.04.2018 12:50 21,0 C 12,2 C 40 % 1028,5 hPa 0,0 l/m 22,3 km/h (4 Bft) O-NO 69 1 min 0,000 mm 3,8 UV-I 764 W/m 6,9 C 17,1 C 25,7 km/h (4 Bft) 100,00 %
19.04.2018 12:51 20,9 C 12,2 C 40 % 1028,5 hPa 0,0 l/m 21,6 km/h (4 Bft) O-NO 67 1 min 0,000 mm 3,8 UV-I 763 W/m 6,8 C 17,1 C 25,7 km/h (4 Bft) 100,00 %
19.04.2018 12:52 20,9 C 12,2 C 41 % 1028,5 hPa 0,0 l/m 18,8 km/h (3 Bft) O 85 1 min 0,000 mm 3,8 UV-I 765 W/m 7,2 C 17,6 C 24,1 km/h (4 Bft) 100,00 %
19.04.2018 12:53 20,9 C 12,2 C 41 % 1028,5 hPa 0,0 l/m 19,8 km/h (3 Bft) O-NO 77 1 min 0,000 mm 3,8 UV-I 762 W/m 7,2 C 17,4 C 25,7 km/h (4 Bft) 100,00 %
19.04.2018 12:54 20,9 C 12,2 C 41 % 1028,5 hPa 0,0 l/m 17,1 km/h (3 Bft) O-NO 65 1 min 0,000 mm 3,8 UV-I 764 W/m 7,2 C 17,9 C 22,5 km/h (4 Bft) 100,00 %
19.04.2018 12:55 20,9 C 12,2 C 41 % 1028,5 hPa 0,0 l/m 18,5 km/h (3 Bft) O-NO 62 1 min 0,000 mm 3,7 UV-I 764 W/m 7,2 C 17,6 C 20,9 km/h (4 Bft) 100,00 %
19.04.2018 12:56 20,9 C 12,8 C 40 % 1028,5 hPa 0,0 l/m 14,4 km/h (3 Bft) O-NO 76 1 min 0,000 mm 3,8 UV-I 765 W/m 6,8 C 18,5 C 20,9 km/h (4 Bft) 100,00 %
19.04.2018 12:57 20,9 C 12,2 C 41 % 1028,5 hPa 0,0 l/m 15,0 km/h (3 Bft) O-NO 63 1 min 0,000 mm 3,8 UV-I 765 W/m 7,2 C 18,3 C 19,3 km/h (3 Bft) 96,15 %
19.04.2018 12:58 20,9 C 12,2 C 41 % 1028,4 hPa 0,0 l/m 15,9 km/h (3 Bft) O-NO 73 1 min 0,000 mm 3,8 UV-I 766 W/m 7,2 C 18,1 C 17,7 km/h (3 Bft) 100,00 %
19.04.2018 12:59 20,9 C 12,2 C 41 % 1028,4 hPa 0,0 l/m 13,1 km/h (3 Bft) O-NO 76 1 min 0,000 mm 3,8 UV-I 768 W/m 7,2 C 18,8 C 17,7 km/h (3 Bft) 100,00 %
19.04.2018 13:00 20,9 C 12,2 C 43 % 1028,4 hPa 0,0 l/m 15,8 km/h (3 Bft) O-NO 74 1 min 0,559 mm 3,8 UV-I 768 W/m 7,8 C 18,2 C 19,3 km/h (3 Bft) 100,00 %
19.04.2018 13:02 21,1 C 12,2 C 46 % 1028,3 hPa 0,0 l/m 17,3 km/h (3 Bft) O-NO 76 2 min 0,000 mm 3,8 UV-I 762 W/m 9,0 C 18,1 C 22,5 km/h (4 Bft) 100,00 %
19.04.2018 13:03 21,2 C 12,2 C 41 % 1028,4 hPa 0,0 l/m 17,0 km/h (3 Bft) O 95 1 min 0,000 mm 3,8 UV-I 759 W/m 7,4 C 18,3 C 19,3 km/h (3 Bft) 100,00 %
19.04.2018 13:04 21,2 C 12,2 C 42 % 1028,3 hPa 0,0 l/m 15,1 km/h (3 Bft) O-NO 76 1 min 0,000 mm 3,8 UV-I 765 W/m 7,8 C 18,7 C 22,5 km/h (4 Bft) 100,00 %
19.04.2018 13:05 21,2 C 12,2 C 44 % 1028,4 hPa 0,0 l/m 15,6 km/h (3 Bft) NO 51 1 min 0,000 mm 3,8 UV-I 759 W/m 8,5 C 18,6 C 19,3 km/h (3 Bft) 100,00 %
19.04.2018 13:06 21,3 C 12,2 C 44 % 1028,4 hPa 0,0 l/m 16,6 km/h (3 Bft) O-NO 65 1 min 0,000 mm 3,8 UV-I 758 W/m 8,5 C 18,5 C 22,5 km/h (4 Bft) 96,15 %
19.04.2018 13:07 21,4 C 12,2 C 43 % 1028,4 hPa 0,0 l/m 16,6 km/h (3 Bft) NO 38 1 min 0,000 mm 3,8 UV-I 762 W/m 8,3 C 18,6 C 20,9 km/h (4 Bft) 96,30 %
19.04.2018 13:08 21,6 C 12,2 C 43 % 1028,4 hPa 0,0 l/m 15,6 km/h (3 Bft) O-NO 67 1 min 0,000 mm 3,8 UV-I 763 W/m 8,5 C 19,1 C 20,9 km/h (4 Bft) 100,00 %
19.04.2018 13:09 21,6 C 12,2 C 39 % 1028,3 hPa 0,0 l/m 21,0 km/h (4 Bft) O-NO 67 1 min 0,000 mm 3,8 UV-I 763 W/m 7,0 C 18,1 C 25,7 km/h (4 Bft) 100,00 %
19.04.2018 13:10 21,6 C 12,2 C 37 % 1028,4 hPa 0,0 l/m 19,2 km/h (3 Bft) O-SO 113 1 min 0,000 mm 3,8 UV-I 763 W/m 6,3 C 18,4 C 24,1 km/h (4 Bft) 95,65 %
19.04.2018 13:11 21,5 C 12,2 C 37 % 1028,4 hPa 0,0 l/m 15,9 km/h (3 Bft) O 92 1 min 0,000 mm 3,8 UV-I 766 W/m 6,2 C 18,9 C 24,1 km/h (4 Bft) 100,00 %
19.04.2018 13:12 21,4 C 12,2 C 36 % 1028,4 hPa 0,0 l/m 13,2 km/h (3 Bft) O 88 1 min 0,000 mm 3,8 UV-I 765 W/m 5,7 C 19,3 C 20,9 km/h (4 Bft) 100,00 %
19.04.2018 13:13 21,3 C 12,2 C 39 % 1028,3 hPa 0,0 l/m 12,7 km/h (3 Bft) O-NO 71 1 min 0,000 mm 3,8 UV-I 764 W/m 6,8 C 19,4 C 17,7 km/h (3 Bft) 100,00 %
19.04.2018 13:14 21,4 C 12,2 C 40 % 1028,3 hPa 0,0 l/m 12,0 km/h (2 Bft) NO 51 1 min 0,000 mm 3,8 UV-I 761 W/m 7,2 C 19,6 C 17,7 km/h (3 Bft) 100,00 %
19.04.2018 13:15 21,4 C 12,2 C 41 % 1028,3 hPa 0,0 l/m 16,2 km/h (3 Bft) O-NO 66 1 min 0,000 mm 3,8 UV-I 763 W/m 7,6 C 18,7 C 20,9 km/h (4 Bft) 100,00 %
19.04.2018 13:16 21,6 C 12,2 C 43 % 1028,3 hPa 0,0 l/m 14,4 km/h (3 Bft) O-NO 68 1 min 0,000 mm 3,8 UV-I 759 W/m 8,5 C 19,3 C 19,3 km/h (3 Bft) 95,00 %
19.04.2018 13:17 21,8 C 12,2 C 41 % 1028,3 hPa 0,0 l/m 12,8 km/h (3 Bft) NO 51 1 min 0,000 mm 3,8 UV-I 759 W/m 8,0 C 19,9 C 16,1 km/h (3 Bft) 96,30 %
19.04.2018 13:18 21,8 C 12,2 C 40 % 1028,3 hPa 0,0 l/m 12,2 km/h (2 Bft) O 100 1 min 0,000 mm 3,8 UV-I 758 W/m 7,6 C 20,1 C 22,5 km/h (4 Bft) 100,00 %
19.04.2018 13:19 21,8 C 12,2 C 38 % 1028,3 hPa 0,0 l/m 17,6 km/h (3 Bft) O 80 1 min 0,000 mm 3,8 UV-I 761 W/m 6,8 C 18,9 C 20,9 km/h (4 Bft) 100,00 %
19.04.2018 13:20 21,8 C 12,2 C 35 % 1028,3 hPa 0,0 l/m 17,4 km/h (3 Bft) O-NO 57 1 min 0,000 mm 3,8 UV-I 763 W/m 5,7 C 19,0 C 22,5 km/h (4 Bft) 100,00 %
19.04.2018 13:21 21,7 C 12,2 C 36 % 1028,3 hPa 0,0 l/m 17,2 km/h (3 Bft) O-NO 73 1 min 0,000 mm 3,8 UV-I 763 W/m 6,0 C 18,9 C 20,9 km/h (4 Bft) 100,00 %
19.04.2018 13:22 21,7 C 12,2 C 37 % 1028,3 hPa 0,0 l/m 11,8 km/h (2 Bft) O 87 1 min 0,000 mm 3,8 UV-I 759 W/m 6,4 C 20,0 C 20,9 km/h (4 Bft) 96,15 %
19.04.2018 13:23 21,7 C 12,2 C 38 % 1028,2 hPa 0,0 l/m 19,8 km/h (3 Bft) NO 52 1 min 0,000 mm 3,8 UV-I 757 W/m 6,8 C 18,4 C 22,5 km/h (4 Bft) 100,00 %
19.04.2018 13:24 21,8 C 12,2 C 41 % 1028,2 hPa 0,0 l/m 17,2 km/h (3 Bft) NO 46 1 min 0,000 mm 3,8 UV-I 757 W/m 8,0 C 19,0 C 27,4 km/h (4 Bft) 96,55 %
19.04.2018 13:25 21,8 C 12,2 C 40 % 1028,2 hPa 0,0 l/m 18,3 km/h (3 Bft) NO 53 1 min 0,000 mm 3,8 UV-I 760 W/m 7,6 C 18,8 C 25,7 km/h (4 Bft) 100,00 %
19.04.2018 13:26 21,8 C 12,2 C 35 % 1028,2 hPa 0,0 l/m 15,7 km/h (3 Bft) NO 41 1 min 0,000 mm 3,7 UV-I 762 W/m 5,7 C 19,3 C 20,9 km/h (4 Bft) 100,00 %
19.04.2018 13:27 21,8 C 12,2 C 40 % 1028,2 hPa 0,0 l/m 17,3 km/h (3 Bft) NO 34 1 min 0,000 mm 3,8 UV-I 758 W/m 7,6 C 19,0 C 20,9 km/h (4 Bft) 100,00 %
19.04.2018 13:28 21,9 C 12,8 C 42 % 1028,2 hPa 0,0 l/m 17,3 km/h (3 Bft) NO 53 1 min 0,000 mm 3,7 UV-I 752 W/m 8,4 C 19,1 C 20,9 km/h (4 Bft) 100,00 %
19.04.2018 13:29 22,0 C 12,2 C 41 % 1028,1 hPa 0,0 l/m 19,9 km/h (4 Bft) O-NO 72 1 min 0,000 mm 3,7 UV-I 755 W/m 8,1 C 18,8 C 30,6 km/h (5 Bft) 100,00 %
19.04.2018 13:30 22,0 C 12,2 C 37 % 1028,2 hPa 0,0 l/m 21,4 km/h (4 Bft) O-NO 78 1 min 0,000 mm 3,7 UV-I 757 W/m 6,6 C 18,6 C 27,4 km/h (4 Bft) 100,00 %
19.04.2018 13:31 21,9 C 12,2 C 39 % 1028,1 hPa 0,0 l/m 20,0 km/h (4 Bft) NO 41 1 min 0,000 mm 3,7 UV-I 756 W/m 7,3 C 18,7 C 24,1 km/h (4 Bft) 100,00 %
19.04.2018 13:32 21,9 C 12,2 C 37 % 1028,1 hPa 0,0 l/m 17,2 km/h (3 Bft) O-NO 63 1 min 0,000 mm 3,7 UV-I 746 W/m 6,5 C 19,1 C 22,5 km/h (4 Bft) 100,00 %
19.04.2018 13:33 21,9 C 12,2 C 37 % 1028,1 hPa 0,0 l/m 16,7 km/h (3 Bft) O 92 1 min 0,000 mm 3,8 UV-I 758 W/m 6,5 C 19,2 C 20,9 km/h (4 Bft) 100,00 %
19.04.2018 13:34 21,9 C 12,2 C 37 % 1028,1 hPa 0,0 l/m 19,7 km/h (3 Bft) O-NO 69 1 min 0,000 mm 3,8 UV-I 755 W/m 6,5 C 18,7 C 24,1 km/h (4 Bft) 100,00 %
19.04.2018 13:35 21,9 C 12,2 C 38 % 1028,1 hPa 0,0 l/m 20,2 km/h (4 Bft) O-NO 74 1 min 0,000 mm 3,8 UV-I 758 W/m 6,9 C 18,6 C 24,1 km/h (4 Bft) 100,00 %
19.04.2018 13:36 21,9 C 12,2 C 37 % 1028,1 hPa 0,0 l/m 14,3 km/h (3 Bft) N-NO 26 1 min 0,000 mm 3,8 UV-I 757 W/m 6,5 C 19,7 C 16,1 km/h (3 Bft) 100,00 %
19.04.2018 13:37 22,1 C 12,2 C 42 % 1028,1 hPa 0,0 l/m 18,3 km/h (3 Bft) NO 51 1 min 0,000 mm 3,8 UV-I 757 W/m 8,6 C 19,2 C 24,1 km/h (4 Bft) 100,00 %
19.04.2018 13:38 22,2 C 12,2 C 38 % 1028,1 hPa 0,0 l/m 18,4 km/h (3 Bft) O 84 1 min 0,000 mm 3,7 UV-I 758 W/m 7,2 C 19,3 C 20,9 km/h (4 Bft) 100,00 %
19.04.2018 13:39 22,2 C 12,2 C 32 % 1028,0 hPa 0,0 l/m 19,0 km/h (3 Bft) O 86 1 min 0,000 mm 3,7 UV-I 756 W/m 4,7 C 19,2 C 25,7 km/h (4 Bft) 100,00 %
19.04.2018 13:40 22,2 C 12,2 C 31 % 1028,1 hPa 0,0 l/m 18,3 km/h (3 Bft) O 93 1 min 0,000 mm 3,8 UV-I 757 W/m 4,3 C 19,3 C 24,1 km/h (4 Bft) 100,00 %
19.04.2018 13:41 22,1 C 12,2 C 31 % 1028,1 hPa 0,0 l/m 17,2 km/h (3 Bft) O-NO 58 1 min 0,000 mm 3,7 UV-I 755 W/m 4,2 C 19,4 C 22,5 km/h (4 Bft) 100,00 %
19.04.2018 13:42 22,1 C 12,2 C 34 % 1028,1 hPa 0,0 l/m 14,8 km/h (3 Bft) O-NO 71 1 min 0,000 mm 3,7 UV-I 755 W/m 5,5 C 19,8 C 22,5 km/h (4 Bft) 96,30 %
19.04.2018 13:43 22,2 C 12,8 C 33 % 1028,1 hPa 0,0 l/m 19,9 km/h (4 Bft) O-NO 77 1 min 0,000 mm 3,7 UV-I 756 W/m 5,2 C 19,1 C 22,5 km/h (4 Bft) 100,00 %
19.04.2018 13:44 22,2 C 12,2 C 31 % 1028,1 hPa 0,0 l/m 21,0 km/h (4 Bft) O 101 1 min 0,000 mm 3,7 UV-I 756 W/m 4,3 C 18,9 C 27,4 km/h (4 Bft) 100,00 %
19.04.2018 13:45 22,1 C 12,2 C 30 % 1028,1 hPa 0,0 l/m 16,2 km/h (3 Bft) O 101 1 min 0,000 mm 3,7 UV-I 754 W/m 3,7 C 19,6 C 19,3 km/h (3 Bft) 96,67 %
19.04.2018 13:46 22,1 C 12,2 C 32 % 1028,1 hPa 0,0 l/m 13,6 km/h (3 Bft) O-SO 109 1 min 0,000 mm 3,7 UV-I 754 W/m 4,6 C 20,1 C 19,3 km/h (3 Bft) 100,00 %
19.04.2018 13:47 22,1 C 12,2 C 32 % 1028,0 hPa 0,0 l/m 17,6 km/h (3 Bft) O 86 1 min 0,000 mm 3,7 UV-I 754 W/m 4,6 C 19,3 C 25,7 km/h (4 Bft) 100,00 %
19.04.2018 13:48 22,1 C 12,2 C 32 % 1028,1 hPa 0,0 l/m 16,4 km/h (3 Bft) O 94 1 min 0,000 mm 3,7 UV-I 752 W/m 4,6 C 19,5 C 24,1 km/h (4 Bft) 100,00 %
19.04.2018 13:49 22,1 C 12,2 C 33 % 1028,1 hPa 0,0 l/m 14,3 km/h (3 Bft) O 84 1 min 0,000 mm 3,7 UV-I 752 W/m 5,1 C 19,9 C 22,5 km/h (4 Bft) 98,15 %
19.04.2018 13:50 22,2 C 12,8 C 36 % 1028,1 hPa 0,0 l/m 14,2 km/h (3 Bft) O-NO 71 1 min 0,000 mm 3,7 UV-I 752 W/m 6,4 C 20,1 C 17,7 km/h (3 Bft) 95,12 %
19.04.2018 13:51 22,3 C 12,2 C 35 % 1028,0 hPa 0,0 l/m 19,7 km/h (3 Bft) O-NO 76 1 min 0,000 mm 3,7 UV-I 752 W/m 6,1 C 19,2 C 25,7 km/h (4 Bft) 100,00 %
19.04.2018 13:52 22,3 C 12,8 C 32 % 1028,0 hPa 0,0 l/m 19,9 km/h (4 Bft) O 86 1 min 0,000 mm 3,7 UV-I 753 W/m 4,8 C 19,2 C 24,1 km/h (4 Bft) 95,65 %
19.04.2018 13:53 22,2 C 12,2 C 31 % 1028,0 hPa 0,0 l/m 18,2 km/h (3 Bft) O-NO 74 1 min 0,000 mm 3,7 UV-I 753 W/m 4,3 C 19,3 C 22,5 km/h (4 Bft) 100,00 %
19.04.2018 13:54 22,2 C 12,2 C 33 % 1028,0 hPa 0,0 l/m 18,0 km/h (3 Bft) O-NO 57 1 min 0,000 mm 3,7 UV-I 753 W/m 5,2 C 19,4 C 22,5 km/h (4 Bft) 95,65 %
19.04.2018 13:55 22,2 C 12,2 C 34 % 1028,0 hPa 0,0 l/m 16,1 km/h (3 Bft) O 81 1 min 0,000 mm 3,7 UV-I 750 W/m 5,6 C 19,7 C 20,9 km/h (4 Bft) 100,00 %
19.04.2018 13:56 22,3 C 12,2 C 34 % 1028,0 hPa 0,0 l/m 13,2 km/h (3 Bft) O-NO 69 1 min 0,000 mm 3,6 UV-I 739 W/m 5,7 C 20,4 C 20,9 km/h (4 Bft) 91,30 %
19.04.2018 13:57 22,3 C 12,2 C 34 % 1028,0 hPa 0,0 l/m 18,0 km/h (3 Bft) O 80 1 min 0,000 mm 3,6 UV-I 733 W/m 5,7 C 19,5 C 24,1 km/h (4 Bft) 100,00 %
19.04.2018 13:58 22,3 C 12,8 C 34 % 1028,0 hPa 0,0 l/m 20,7 km/h (4 Bft) O 86 1 min 0,000 mm 3,6 UV-I 739 W/m 5,7 C 19,1 C 29,0 km/h (5 Bft) 95,83 %
19.04.2018 13:59 22,3 C 12,2 C 34 % 1027,9 hPa 0,0 l/m 15,4 km/h (3 Bft) O-SO 105 1 min 0,000 mm 3,6 UV-I 744 W/m 5,7 C 20,0 C 27,4 km/h (4 Bft) 100,00 %
19.04.2018 14:00 22,3 C 12,2 C 34 % 1028,0 hPa 0,0 l/m 10,4 km/h (2 Bft) O-NO 78 1 min 0,000 mm 3,6 UV-I 745 W/m 5,7 C 21,1 C 14,5 km/h (3 Bft) 95,65 %
19.04.2018 14:02 22,4 C 12,2 C 34 % 1028,0 hPa 0,0 l/m 13,6 km/h (3 Bft) NO 55 2 min 0,609 mm 3,6 UV-I 747 W/m 5,8 C 20,4 C 20,9 km/h (4 Bft) 95,24 %
19.04.2018 14:03 22,4 C 12,2 C 34 % 1027,9 hPa 0,0 l/m 19,5 km/h (3 Bft) O-NO 77 1 min 0,000 mm 3,5 UV-I 736 W/m 5,8 C 19,4 C 24,1 km/h (4 Bft) 92,31 %
19.04.2018 14:04 22,4 C 12,2 C 33 % 1027,9 hPa 0,0 l/m 17,6 km/h (3 Bft) O-NO 76 1 min 0,000 mm 3,5 UV-I 724 W/m 5,3 C 19,7 C 24,1 km/h (4 Bft) 100,00 %
19.04.2018 14:05 22,4 C 12,2 C 36 % 1027,9 hPa 0,0 l/m 14,8 km/h (3 Bft) O 80 1 min 0,000 mm 3,5 UV-I 722 W/m 6,6 C 20,2 C 19,3 km/h (3 Bft) 85,71 %
19.04.2018 14:06 22,5 C 12,2 C 36 % 1027,9 hPa 0,0 l/m 16,2 km/h (3 Bft) NO 56 1 min 0,000 mm 3,5 UV-I 717 W/m 6,7 C 20,1 C 22,5 km/h (4 Bft) 100,00 %
19.04.2018 14:07 22,6 C 12,2 C 37 % 1027,8 hPa 0,0 l/m 17,4 km/h (3 Bft) NO 55 1 min 0,000 mm 3,5 UV-I 716 W/m 7,2 C 20,0 C 22,5 km/h (4 Bft) 91,67 %
19.04.2018 14:08 22,6 C 12,2 C 35 % 1027,8 hPa 0,0 l/m 23,6 km/h (4 Bft) O-NO 69 1 min 0,000 mm 3,4 UV-I 703 W/m 6,4 C 19,1 C 30,6 km/h (5 Bft) 97,14 %
19.04.2018 14:09 22,6 C 12,2 C 36 % 1027,8 hPa 0,0 l/m 21,2 km/h (4 Bft) NO 50 1 min 0,000 mm 3,4 UV-I 707 W/m 6,8 C 19,4 C 27,4 km/h (4 Bft) 93,10 %
19.04.2018 14:10 22,6 C 12,2 C 35 % 1027,8 hPa 0,0 l/m 16,4 km/h (3 Bft) O-NO 69 1 min 0,000 mm 3,4 UV-I 706 W/m 6,4 C 20,1 C 24,1 km/h (4 Bft) 92,59 %
19.04.2018 14:11 22,7 C 12,2 C 36 % 1027,9 hPa 0,0 l/m 14,5 km/h (3 Bft) O 86 1 min 0,000 mm 3,3 UV-I 696 W/m 6,9 C 20,6 C 17,7 km/h (3 Bft) 94,12 %
19.04.2018 14:12 22,7 C 12,8 C 34 % 1027,8 hPa 0,0 l/m 18,8 km/h (3 Bft) O-SO 103 1 min 0,000 mm 3,4 UV-I 705 W/m 6,0 C 19,9 C 29,0 km/h (5 Bft) 92,59 %
19.04.2018 14:13 22,6 C 12,8 C 34 % 1027,8 hPa 0,0 l/m 20,8 km/h (4 Bft) O 96 1 min 0,000 mm 3,4 UV-I 702 W/m 5,9 C 19,4 C 29,0 km/h (5 Bft) 100,00 %
19.04.2018 14:14 22,6 C 12,2 C 32 % 1027,8 hPa 0,0 l/m 24,1 km/h (4 Bft) O-NO 59 1 min 0,000 mm 3,5 UV-I 728 W/m 5,1 C 19,0 C 30,6 km/h (5 Bft) 88,89 %
19.04.2018 14:15 22,5 C 12,2 C 34 % 1027,8 hPa 0,0 l/m 18,4 km/h (3 Bft) O 98 1 min 0,000 mm 3,5 UV-I 730 W/m 5,9 C 19,7 C 22,5 km/h (4 Bft) 96,15 %
19.04.2018 14:16 22,5 C 12,2 C 33 % 1027,8 hPa 0,0 l/m 18,1 km/h (3 Bft) O-NO 66 1 min 0,000 mm 3,4 UV-I 726 W/m 5,4 C 19,7 C 25,7 km/h (4 Bft) 96,30 %
19.04.2018 14:17 22,4 C 12,2 C 33 % 1027,8 hPa 0,0 l/m 15,4 km/h (3 Bft) O-NO 64 1 min 0,000 mm 3,4 UV-I 724 W/m 5,3 C 20,1 C 20,9 km/h (4 Bft) 100,00 %
19.04.2018 14:18 22,5 C 12,2 C 34 % 1027,7 hPa 0,0 l/m 18,5 km/h (3 Bft) O-NO 58 1 min 0,000 mm 3,4 UV-I 725 W/m 5,9 C 19,7 C 24,1 km/h (4 Bft) 93,75 %
19.04.2018 14:19 22,4 C 12,2 C 33 % 1027,8 hPa 0,0 l/m 14,6 km/h (3 Bft) O-NO 57 1 min 0,000 mm 3,4 UV-I 723 W/m 5,3 C 20,2 C 19,3 km/h (3 Bft) 85,19 %
19.04.2018 14:20 22,6 C 12,2 C 36 % 1027,7 hPa 0,0 l/m 14,8 km/h (3 Bft) NO 53 1 min 0,000 mm 3,4 UV-I 721 W/m 6,8 C 20,4 C 22,5 km/h (4 Bft) 90,91 %
19.04.2018 14:21 22,7 C 12,8 C 35 % 1027,7 hPa 0,0 l/m 14,3 km/h (3 Bft) O-NO 67 1 min 0,000 mm 3,4 UV-I 717 W/m 6,4 C 20,7 C 22,5 km/h (4 Bft) 96,67 %
19.04.2018 14:22 22,7 C 12,2 C 34 % 1027,8 hPa 0,0 l/m 18,0 km/h (3 Bft) NO 56 1 min 0,000 mm 3,4 UV-I 717 W/m 6,0 C 20,0 C 24,1 km/h (4 Bft) 92,31 %
19.04.2018 14:23 22,8 C 12,2 C 35 % 1027,7 hPa 0,0 l/m 12,9 km/h (3 Bft) O 90 1 min 0,000 mm 3,4 UV-I 716 W/m 6,5 C 21,1 C 20,9 km/h (4 Bft) 92,59 %
19.04.2018 14:24 22,8 C 12,2 C 34 % 1027,7 hPa 0,0 l/m 17,2 km/h (3 Bft) O 101 1 min 0,000 mm 3,3 UV-I 713 W/m 6,1 C 20,3 C 24,1 km/h (4 Bft) 100,00 %
19.04.2018 14:25 22,8 C 12,8 C 35 % 1027,7 hPa 0,0 l/m 15,2 km/h (3 Bft) O 86 1 min 0,000 mm 3,3 UV-I 712 W/m 6,5 C 20,6 C 24,1 km/h (4 Bft) 92,86 %
19.04.2018 14:26 22,8 C 12,8 C 34 % 1027,6 hPa 0,0 l/m 19,8 km/h (3 Bft) O 96 1 min 0,000 mm 3,3 UV-I 710 W/m 6,1 C 19,9 C 25,7 km/h (4 Bft) 92,31 %
19.04.2018 14:27 22,8 C 12,2 C 34 % 1027,7 hPa 0,0 l/m 16,8 km/h (3 Bft) O-NO 58 1 min 0,000 mm 3,3 UV-I 707 W/m 6,1 C 20,3 C 24,1 km/h (4 Bft) 88,89 %
19.04.2018 14:28 22,9 C 12,2 C 35 % 1027,7 hPa 0,0 l/m 20,9 km/h (4 Bft) O-NO 70 1 min 0,000 mm 3,3 UV-I 702 W/m 6,6 C 19,8 C 27,4 km/h (4 Bft) 95,65 %
19.04.2018 14:29 22,9 C 12,2 C 37 % 1027,6 hPa 0,0 l/m 19,7 km/h (3 Bft) O-SO 108 1 min 0,000 mm 3,2 UV-I 701 W/m 7,4 C 20,0 C 24,1 km/h (4 Bft) 95,83 %
19.04.2018 14:30 22,9 C 12,2 C 35 % 1027,6 hPa 0,0 l/m 17,2 km/h (3 Bft) O-NO 59 1 min 0,000 mm 3,2 UV-I 700 W/m 6,6 C 20,4 C 24,1 km/h (4 Bft) 95,65 %
19.04.2018 14:31 22,9 C 12,2 C 34 % 1027,6 hPa 0,0 l/m 18,2 km/h (3 Bft) O-NO 61 1 min 0,000 mm 3,2 UV-I 698 W/m 6,2 C 20,2 C 24,1 km/h (4 Bft) 93,33 %
19.04.2018 14:32 22,9 C 12,2 C 34 % 1027,6 hPa 0,0 l/m 19,6 km/h (3 Bft) NO 55 1 min 0,000 mm 3,2 UV-I 698 W/m 6,2 C 20,0 C 25,7 km/h (4 Bft) 96,55 %
19.04.2018 14:33 22,8 C 12,2 C 34 % 1027,6 hPa 0,0 l/m 18,7 km/h (3 Bft) NO 38 1 min 0,000 mm 3,2 UV-I 697 W/m 6,1 C 20,0 C 25,7 km/h (4 Bft) 92,59 %
19.04.2018 14:34 22,8 C 12,2 C 37 % 1027,5 hPa 0,0 l/m 22,3 km/h (4 Bft) NO 42 1 min 0,000 mm 3,2 UV-I 697 W/m 7,3 C 19,5 C 27,4 km/h (4 Bft) 100,00 %
19.04.2018 14:35 22,8 C 12,2 C 37 % 1027,5 hPa 0,0 l/m 24,2 km/h (4 Bft) O-NO 65 1 min 0,000 mm 3,2 UV-I 696 W/m 7,3 C 19,3 C 29,0 km/h (5 Bft) 96,15 %
19.04.2018 14:36 22,9 C 12,2 C 35 % 1027,5 hPa 0,0 l/m 20,5 km/h (4 Bft) NO 42 1 min 0,000 mm 3,2 UV-I 694 W/m 6,6 C 19,9 C 24,1 km/h (4 Bft) 100,00 %
19.04.2018 14:37 22,9 C 12,2 C 38 % 1027,5 hPa 0,0 l/m 20,9 km/h (4 Bft) O-NO 65 1 min 0,000 mm 3,1 UV-I 693 W/m 7,8 C 19,8 C 25,7 km/h (4 Bft) 96,55 %
19.04.2018 14:38 22,9 C 12,2 C 36 % 1027,5 hPa 0,0 l/m 21,5 km/h (4 Bft) O-NO 57 1 min 0,000 mm 3,1 UV-I 687 W/m 7,0 C 19,7 C 25,7 km/h (4 Bft) 96,30 %
19.04.2018 14:39 23,0 C 12,2 C 36 % 1027,5 hPa 0,0 l/m 20,8 km/h (4 Bft) O-NO 58 1 min 0,000 mm 3,1 UV-I 690 W/m 7,1 C 20,0 C 25,7 km/h (4 Bft) 100,00 %
19.04.2018 14:40 23,0 C 12,2 C 35 % 1027,4 hPa 0,0 l/m 20,0 km/h (4 Bft) NO 40 1 min 0,000 mm 3,1 UV-I 685 W/m 6,7 C 20,1 C 24,1 km/h (4 Bft) 96,55 %
19.04.2018 14:41 23,1 C 12,8 C 35 % 1027,4 hPa 0,0 l/m 17,3 km/h (3 Bft) O 84 1 min 0,000 mm 3,1 UV-I 685 W/m 6,8 C 20,6 C 22,5 km/h (4 Bft) 91,30 %
19.04.2018 14:42 23,1 C 12,8 C 35 % 1027,4 hPa 0,0 l/m 15,9 km/h (3 Bft) O-NO 74 1 min 0,000 mm 3,1 UV-I 684 W/m 6,8 C 20,8 C 20,9 km/h (4 Bft) 91,67 %
19.04.2018 14:43 23,1 C 12,2 C 34 % 1027,4 hPa 0,0 l/m 18,2 km/h (3 Bft) O-NO 69 1 min 0,000 mm 3,1 UV-I 682 W/m 6,4 C 20,5 C 22,5 km/h (4 Bft) 100,00 %
19.04.2018 14:44 23,1 C 12,2 C 36 % 1027,4 hPa 0,0 l/m 22,9 km/h (4 Bft) O-NO 70 1 min 0,000 mm 3,1 UV-I 680 W/m 7,2 C 19,8 C 29,0 km/h (5 Bft) 94,44 %
19.04.2018 14:45 23,1 C 12,2 C 36 % 1027,4 hPa 0,0 l/m 20,2 km/h (4 Bft) O-NO 57 1 min 0,000 mm 3,1 UV-I 680 W/m 7,2 C 20,2 C 25,7 km/h (4 Bft) 96,88 %
19.04.2018 14:46 23,1 C 12,2 C 36 % 1027,4 hPa 0,0 l/m 16,7 km/h (3 Bft) NO 56 1 min 0,000 mm 3,1 UV-I 679 W/m 7,2 C 20,7 C 25,7 km/h (4 Bft) 100,00 %
19.04.2018 14:47 23,1 C 12,2 C 36 % 1027,3 hPa 0,0 l/m 17,8 km/h (3 Bft) NO 54 1 min 0,000 mm 3,0 UV-I 676 W/m 7,2 C 20,5 C 25,7 km/h (4 Bft) 96,15 %
19.04.2018 14:48 23,1 C 12,8 C 36 % 1027,3 hPa 0,0 l/m 18,6 km/h (3 Bft) O-NO 70 1 min 0,000 mm 3,0 UV-I 675 W/m 7,2 C 20,4 C 25,7 km/h (4 Bft) 100,00 %
19.04.2018 14:49 23,1 C 12,2 C 35 % 1027,3 hPa 0,0 l/m 21,6 km/h (4 Bft) O 80 1 min 0,000 mm 3,0 UV-I 675 W/m 6,8 C 20,0 C 27,4 km/h (4 Bft) 92,31 %
19.04.2018 14:50 23,0 C 12,2 C 37 % 1027,3 hPa 0,0 l/m 17,3 km/h (3 Bft) NO 50 1 min 0,000 mm 3,0 UV-I 671 W/m 7,5 C 20,5 C 22,5 km/h (4 Bft) 100,00 %
19.04.2018 14:51 22,9 C 12,2 C 35 % 1027,3 hPa 0,0 l/m 20,0 km/h (4 Bft) O-NO 71 1 min 0,000 mm 3,0 UV-I 670 W/m 6,6 C 20,0 C 25,7 km/h (4 Bft) 96,30 %
19.04.2018 14:53 22,9 C 12,2 C 35 % 1027,3 hPa 0,0 l/m 19,0 km/h (3 Bft) N-NO 33 2 min 0,000 mm 3,0 UV-I 668 W/m 6,6 C 20,1 C 27,4 km/h (4 Bft) 98,18 %
19.04.2018 14:54 23,0 C 12,2 C 37 % 1027,3 hPa 0,0 l/m 18,1 km/h (3 Bft) O-NO 78 1 min 0,000 mm 2,9 UV-I 665 W/m 7,5 C 20,4 C 24,1 km/h (4 Bft) 100,00 %
19.04.2018 14:55 23,0 C 12,2 C 35 % 1027,2 hPa 0,0 l/m 17,8 km/h (3 Bft) O 82 1 min 0,000 mm 2,9 UV-I 663 W/m 6,7 C 20,4 C 22,5 km/h (4 Bft) 95,83 %
19.04.2018 14:56 23,0 C 12,2 C 35 % 1027,3 hPa 0,0 l/m 15,1 km/h (3 Bft) O 82 1 min 0,000 mm 2,9 UV-I 663 W/m 6,7 C 20,9 C 17,7 km/h (3 Bft) 96,55 %
19.04.2018 14:57 23,0 C 12,8 C 36 % 1027,2 hPa 0,0 l/m 17,2 km/h (3 Bft) O 84 1 min 0,000 mm 2,9 UV-I 661 W/m 7,1 C 20,5 C 24,1 km/h (4 Bft) 100,00 %
19.04.2018 14:58 23,0 C 12,8 C 36 % 1027,1 hPa 0,0 l/m 19,0 km/h (3 Bft) O-NO 60 1 min 0,000 mm 2,9 UV-I 658 W/m 7,1 C 20,2 C 27,4 km/h (4 Bft) 100,00 %
19.04.2018 14:59 23,0 C 12,2 C 36 % 1027,1 hPa 0,0 l/m 18,4 km/h (3 Bft) NO 38 1 min 0,000 mm 2,9 UV-I 657 W/m 7,1 C 20,3 C 22,5 km/h (4 Bft) 96,30 %
19.04.2018 15:00 23,1 C 12,2 C 38 % 1027,1 hPa 0,0 l/m 22,9 km/h (4 Bft) N-NO 33 1 min 0,000 mm 2,8 UV-I 656 W/m 8,0 C 19,8 C 29,0 km/h (5 Bft) 93,10 %
19.04.2018 15:02 23,2 C 12,2 C 38 % 1027,1 hPa 0,0 l/m 23,9 km/h (4 Bft) O-NO 63 2 min 0,610 mm 2,8 UV-I 655 W/m 8,1 C 19,8 C 32,2 km/h (5 Bft) 97,56 %
19.04.2018 15:03 23,2 C 12,2 C 37 % 1027,1 hPa 0,0 l/m 19,2 km/h (3 Bft) O-NO 65 1 min 0,000 mm 2,8 UV-I 654 W/m 7,7 C 20,5 C 25,7 km/h (4 Bft) 100,00 %
19.04.2018 15:04 23,1 C 12,2 C 37 % 1027,1 hPa 0,0 l/m 23,3 km/h (4 Bft) O-NO 59 1 min 0,000 mm 2,8 UV-I 653 W/m 7,6 C 19,8 C 32,2 km/h (5 Bft) 95,65 %
19.04.2018 15:05 23,2 C 12,2 C 38 % 1027,1 hPa 0,0 l/m 21,5 km/h (4 Bft) NO 56 1 min 0,000 mm 2,8 UV-I 650 W/m 8,1 C 20,1 C 27,4 km/h (4 Bft) 100,00 %
19.04.2018 15:06 23,2 C 12,8 C 39 % 1027,1 hPa 0,0 l/m 20,8 km/h (4 Bft) NO 53 1 min 0,000 mm 2,8 UV-I 647 W/m 8,5 C 20,2 C 24,1 km/h (4 Bft) 100,00 %
19.04.2018 15:07 23,3 C 12,2 C 37 % 1027,0 hPa 0,0 l/m 21,0 km/h (4 Bft) N-NO 28 1 min 0,000 mm 2,8 UV-I 647 W/m 7,8 C 20,3 C 27,4 km/h (4 Bft) 100,00 %
19.04.2018 15:08 23,3 C 12,2 C 38 % 1027,0 hPa 0,0 l/m 21,3 km/h (4 Bft) O-NO 71 1 min 0,000 mm 2,8 UV-I 645 W/m 8,2 C 20,3 C 27,4 km/h (4 Bft) 100,00 %
19.04.2018 15:09 23,3 C 12,2 C 37 % 1027,1 hPa 0,0 l/m 17,7 km/h (3 Bft) O-NO 78 1 min 0,000 mm 2,7 UV-I 643 W/m 7,8 C 20,8 C 24,1 km/h (4 Bft) 96,55 %
19.04.2018 15:10 23,3 C 12,8 C 39 % 1026,9 hPa 0,0 l/m 15,2 km/h (3 Bft) NO 38 1 min 0,000 mm 2,7 UV-I 641 W/m 8,6 C 21,2 C 20,9 km/h (4 Bft) 100,00 %
19.04.2018 15:11 23,4 C 12,2 C 38 % 1027,0 hPa 0,0 l/m 18,3 km/h (3 Bft) O 80 1 min 0,000 mm 2,7 UV-I 638 W/m 8,3 C 20,8 C 22,5 km/h (4 Bft) 100,00 %
19.04.2018 15:12 23,3 C 12,8 C 35 % 1026,9 hPa 0,0 l/m 17,7 km/h (3 Bft) NO 41 1 min 0,000 mm 2,7 UV-I 638 W/m 7,0 C 20,8 C 24,1 km/h (4 Bft) 100,00 %
19.04.2018 15:13 23,3 C 12,2 C 37 % 1026,9 hPa 0,0 l/m 24,0 km/h (4 Bft) NO 55 1 min 0,000 mm 2,7 UV-I 637 W/m 7,8 C 20,0 C 35,4 km/h (5 Bft) 100,00 %
19.04.2018 15:14 23,3 C 12,2 C 37 % 1026,8 hPa 0,0 l/m 19,5 km/h (3 Bft) O 79 1 min 0,000 mm 2,7 UV-I 634 W/m 7,8 C 20,5 C 24,1 km/h (4 Bft) 100,00 %
19.04.2018 15:15 23,3 C 12,8 C 35 % 1026,9 hPa 0,0 l/m 16,0 km/h (3 Bft) O-NO 64 1 min 0,000 mm 2,6 UV-I 631 W/m 7,0 C 21,1 C 25,7 km/h (4 Bft) 100,00 %
19.04.2018 15:16 23,3 C 12,2 C 39 % 1026,8 hPa 0,0 l/m 20,2 km/h (4 Bft) NO 53 1 min 0,000 mm 2,6 UV-I 629 W/m 8,6 C 20,4 C 25,7 km/h (4 Bft) 100,00 %
19.04.2018 15:17 23,3 C 12,8 C 38 % 1026,8 hPa 0,0 l/m 22,5 km/h (4 Bft) NO 36 1 min 0,000 mm 2,6 UV-I 627 W/m 8,2 C 20,1 C 29,0 km/h (5 Bft) 100,00 %
19.04.2018 15:18 23,4 C 12,2 C 37 % 1026,8 hPa 0,0 l/m 22,7 km/h (4 Bft) O-NO 65 1 min 0,000 mm 2,6 UV-I 624 W/m 7,9 C 20,3 C 27,4 km/h (4 Bft) 100,00 %
19.04.2018 15:19 23,4 C 12,8 C 36 % 1026,8 hPa 0,0 l/m 18,4 km/h (3 Bft) NO 51 1 min 0,000 mm 2,6 UV-I 624 W/m 7,5 C 20,8 C 25,7 km/h (4 Bft) 100,00 %
19.04.2018 15:20 23,3 C 12,2 C 36 % 1026,8 hPa 0,0 l/m 19,6 km/h (3 Bft) NO 47 1 min 0,000 mm 2,6 UV-I 621 W/m 7,4 C 20,5 C 27,4 km/h (4 Bft) 100,00 %
19.04.2018 15:21 23,3 C 12,2 C 37 % 1026,8 hPa 0,0 l/m 21,1 km/h (4 Bft) N-NO 23 1 min 0,000 mm 2,6 UV-I 620 W/m 7,8 C 20,3 C 24,1 km/h (4 Bft) 100,00 %
19.04.2018 15:23 23,4 C 12,2 C 37 % 1026,7 hPa 0,0 l/m 21,7 km/h (4 Bft) NO 49 2 min 0,000 mm 2,5 UV-I 619 W/m 7,9 C 20,4 C 32,2 km/h (5 Bft) 100,00 %
19.04.2018 15:24 23,4 C 12,2 C 37 % 1026,7 hPa 0,0 l/m 18,1 km/h (3 Bft) NO 43 1 min 0,000 mm 2,5 UV-I 617 W/m 7,9 C 20,9 C 25,7 km/h (4 Bft) 100,00 %
19.04.2018 15:25 23,4 C 12,2 C 36 % 1026,7 hPa 0,0 l/m 16,1 km/h (3 Bft) NO 46 1 min 0,000 mm 2,5 UV-I 615 W/m 7,5 C 21,2 C 22,5 km/h (4 Bft) 100,00 %
19.04.2018 15:26 23,5 C 12,8 C 41 % 1026,7 hPa 0,0 l/m 17,4 km/h (3 Bft) NO 50 1 min 0,000 mm 2,5 UV-I 614 W/m 9,5 C 21,1 C 22,5 km/h (4 Bft) 100,00 %
19.04.2018 15:27 23,5 C 12,2 C 39 % 1026,7 hPa 0,0 l/m 19,4 km/h (3 Bft) NO 34 1 min 0,000 mm 2,5 UV-I 612 W/m 8,7 C 20,8 C 24,1 km/h (4 Bft) 92,59 %
19.04.2018 15:28 23,5 C 12,2 C 35 % 1026,7 hPa 0,0 l/m 20,5 km/h (4 Bft) O-NO 78 1 min 0,000 mm 2,5 UV-I 612 W/m 7,1 C 20,7 C 25,7 km/h (4 Bft) 100,00 %
19.04.2018 15:29 23,4 C 12,2 C 34 % 1026,7 hPa 0,0 l/m 16,1 km/h (3 Bft) O-NO 78 1 min 0,000 mm 2,5 UV-I 610 W/m 6,6 C 21,2 C 27,4 km/h (4 Bft) 100,00 %
19.04.2018 15:30 23,4 C 12,8 C 36 % 1026,7 hPa 0,0 l/m 17,4 km/h (3 Bft) O-NO 69 1 min 0,000 mm 2,4 UV-I 608 W/m 7,5 C 21,0 C 20,9 km/h (4 Bft) 100,00 %
19.04.2018 15:31 23,4 C 12,2 C 38 % 1026,7 hPa 0,0 l/m 16,8 km/h (3 Bft) O-NO 60 1 min 0,000 mm 2,4 UV-I 605 W/m 8,3 C 21,1 C 22,5 km/h (4 Bft) 96,15 %
19.04.2018 15:32 23,5 C 12,2 C 36 % 1026,7 hPa 0,0 l/m 17,6 km/h (3 Bft) O 100 1 min 0,000 mm 2,4 UV-I 605 W/m 7,6 C 21,1 C 22,5 km/h (4 Bft) 93,33 %
19.04.2018 15:33 23,4 C 12,2 C 35 % 1026,7 hPa 0,0 l/m 18,9 km/h (3 Bft) O-SO 117 1 min 0,000 mm 2,4 UV-I 604 W/m 7,1 C 20,8 C 24,1 km/h (4 Bft) 100,00 %
19.04.2018 15:34 23,4 C 12,8 C 35 % 1026,7 hPa 0,0 l/m 16,8 km/h (3 Bft) O 83 1 min 0,000 mm 2,4 UV-I 603 W/m 7,1 C 21,1 C 24,1 km/h (4 Bft) 100,00 %
19.04.2018 15:35 23,4 C 12,2 C 37 % 1026,6 hPa 0,0 l/m 18,6 km/h (3 Bft) O 101 1 min 0,000 mm 2,4 UV-I 601 W/m 7,9 C 20,8 C 24,1 km/h (4 Bft) 96,30 %
19.04.2018 15:36 23,3 C 12,2 C 35 % 1026,6 hPa 0,0 l/m 21,9 km/h (4 Bft) O-NO 76 1 min 0,000 mm 2,4 UV-I 601 W/m 7,0 C 20,2 C 25,7 km/h (4 Bft) 100,00 %
19.04.2018 15:37 23,4 C 12,2 C 37 % 1026,6 hPa 0,0 l/m 17,3 km/h (3 Bft) O-NO 67 1 min 0,000 mm 2,3 UV-I 597 W/m 7,9 C 21,0 C 22,5 km/h (4 Bft) 95,83 %
19.04.2018 15:38 23,4 C 12,2 C 37 % 1026,6 hPa 0,0 l/m 13,2 km/h (3 Bft) O-NO 76 1 min 0,000 mm 2,3 UV-I 593 W/m 7,9 C 21,7 C 17,7 km/h (3 Bft) 100,00 %
19.04.2018 15:39 23,4 C 12,2 C 39 % 1026,6 hPa 0,0 l/m 14,2 km/h (3 Bft) O-NO 77 1 min 0,000 mm 2,3 UV-I 590 W/m 8,6 C 21,5 C 19,3 km/h (3 Bft) 100,00 %
19.04.2018 15:40 23,6 C 12,8 C 38 % 1026,5 hPa 0,0 l/m 19,5 km/h (3 Bft) O-NO 58 1 min 0,000 mm 2,3 UV-I 587 W/m 8,4 C 20,9 C 22,5 km/h (4 Bft) 100,00 %
19.04.2018 15:41 23,6 C 12,2 C 36 % 1026,5 hPa 0,0 l/m 17,9 km/h (3 Bft) O-NO 62 1 min 0,000 mm 2,3 UV-I 585 W/m 7,6 C 21,2 C 22,5 km/h (4 Bft) 100,00 %
19.04.2018 15:42 23,7 C 12,2 C 38 % 1026,5 hPa 0,0 l/m 18,7 km/h (3 Bft) O 89 1 min 0,000 mm 2,2 UV-I 584 W/m 8,5 C 21,2 C 24,1 km/h (4 Bft) 100,00 %
19.04.2018 15:43 23,7 C 12,2 C 36 % 1026,5 hPa 0,0 l/m 20,5 km/h (4 Bft) O 94 1 min 0,000 mm 2,2 UV-I 581 W/m 7,7 C 20,9 C 29,0 km/h (5 Bft) 100,00 %
19.04.2018 15:44 23,6 C 12,2 C 34 % 1026,5 hPa 0,0 l/m 22,2 km/h (4 Bft) O 95 1 min 0,000 mm 2,2 UV-I 580 W/m 6,8 C 20,6 C 27,4 km/h (4 Bft) 100,00 %
19.04.2018 15:45 23,6 C 12,8 C 34 % 1026,4 hPa 0,0 l/m 20,9 km/h (4 Bft) O-NO 61 1 min 0,000 mm 2,2 UV-I 578 W/m 6,8 C 20,7 C 29,0 km/h (5 Bft) 100,00 %
19.04.2018 15:46 23,6 C 12,2 C 36 % 1026,4 hPa 0,0 l/m 17,4 km/h (3 Bft) NO 54 1 min 0,000 mm 2,2 UV-I 575 W/m 7,6 C 21,2 C 27,4 km/h (4 Bft) 100,00 %
19.04.2018 15:47 23,6 C 12,2 C 38 % 1026,4 hPa 0,0 l/m 24,0 km/h (4 Bft) NO 44 1 min 0,000 mm 2,2 UV-I 571 W/m 8,4 C 20,4 C 25,7 km/h (4 Bft) 100,00 %
19.04.2018 15:48 23,7 C 12,8 C 38 % 1026,3 hPa 0,0 l/m 20,1 km/h (4 Bft) NO 49 1 min 0,000 mm 2,2 UV-I 570 W/m 8,5 C 21,0 C 25,7 km/h (4 Bft) 100,00 %
19.04.2018 15:49 23,7 C 12,2 C 37 % 1026,3 hPa 0,0 l/m 17,0 km/h (3 Bft) NO 46 1 min 0,000 mm 2,2 UV-I 568 W/m 8,1 C 21,4 C 19,3 km/h (3 Bft) 100,00 %
19.04.2018 15:50 23,7 C 12,2 C 38 % 1026,4 hPa 0,0 l/m 18,0 km/h (3 Bft) O 86 1 min 0,000 mm 2,1 UV-I 565 W/m 8,5 C 21,3 C 24,1 km/h (4 Bft) 100,00 %
19.04.2018 15:51 23,7 C 12,2 C 36 % 1026,3 hPa 0,0 l/m 18,3 km/h (3 Bft) O-NO 73 1 min 0,000 mm 2,1 UV-I 564 W/m 7,7 C 21,2 C 22,5 km/h (4 Bft) 100,00 %
19.04.2018 15:52 23,7 C 12,8 C 38 % 1026,3 hPa 0,0 l/m 19,9 km/h (4 Bft) O 94 1 min 0,000 mm 2,1 UV-I 563 W/m 8,5 C 21,0 C 22,5 km/h (4 Bft) 100,00 %
19.04.2018 15:53 23,6 C 12,8 C 35 % 1026,3 hPa 0,0 l/m 20,8 km/h (4 Bft) O-NO 65 1 min 0,000 mm 2,1 UV-I 561 W/m 7,2 C 20,8 C 25,7 km/h (4 Bft) 100,00 %
19.04.2018 15:54 23,6 C 12,2 C 35 % 1026,3 hPa 0,0 l/m 17,9 km/h (3 Bft) O 92 1 min 0,000 mm 2,1 UV-I 558 W/m 7,2 C 21,2 C 22,5 km/h (4 Bft) 100,00 %
19.04.2018 15:55 23,6 C 12,2 C 36 % 1026,3 hPa 0,0 l/m 25,2 km/h (4 Bft) O 94 1 min 0,000 mm 2,1 UV-I 555 W/m 7,6 C 20,2 C 32,2 km/h (5 Bft) 97,98 %
19.04.2018 15:56 23,6 C 12,8 C 36 % 1026,3 hPa 0,0 l/m 18,5 km/h (3 Bft) O 96 1 min 0,000 mm 2,1 UV-I 554 W/m 7,6 C 21,1 C 27,4 km/h (4 Bft) 92,45 %
19.04.2018 15:58 23,6 C 12,2 C 36 % 1026,3 hPa 0,0 l/m 18,4 km/h (3 Bft) O 99 2 min 0,000 mm 2,0 UV-I 550 W/m 7,6 C 21,1 C 25,7 km/h (4 Bft) 98,00 %
19.04.2018 15:59 23,5 C 12,8 C 36 % 1026,3 hPa 0,0 l/m 19,2 km/h (3 Bft) O 96 1 min 0,000 mm 2,0 UV-I 547 W/m 7,6 C 20,8 C 22,5 km/h (4 Bft) 100,00 %
19.04.2018 16:00 23,5 C 12,2 C 37 % 1026,2 hPa 0,0 l/m 17,6 km/h (3 Bft) O 86 1 min 0,559 mm 2,0 UV-I 545 W/m 8,0 C 21,1 C 24,1 km/h (4 Bft) 95,83 %
19.04.2018 16:02 23,5 C 12,8 C 39 % 1026,2 hPa 0,0 l/m 19,8 km/h (3 Bft) O-NO 68 2 min 0,000 mm 2,0 UV-I 541 W/m 8,7 C 20,8 C 25,7 km/h (4 Bft) 94,74 %
19.04.2018 16:03 23,6 C 12,2 C 39 % 1026,3 hPa 0,0 l/m 18,9 km/h (3 Bft) O-NO 63 1 min 0,000 mm 1,9 UV-I 538 W/m 8,8 C 21,0 C 24,1 km/h (4 Bft) 96,88 %
19.04.2018 16:04 23,6 C 12,8 C 38 % 1026,2 hPa 0,0 l/m 18,4 km/h (3 Bft) O 82 1 min 0,000 mm 1,9 UV-I 534 W/m 8,4 C 21,1 C 20,9 km/h (4 Bft) 100,00 %
19.04.2018 16:05 23,6 C 12,2 C 37 % 1026,2 hPa 0,0 l/m 17,5 km/h (3 Bft) O 98 1 min 0,000 mm 1,9 UV-I 531 W/m 8,0 C 21,2 C 24,1 km/h (4 Bft) 88,46 %
19.04.2018 16:06 23,6 C 12,2 C 37 % 1026,2 hPa 0,0 l/m 16,0 km/h (3 Bft) NO 36 1 min 0,000 mm 1,9 UV-I 528 W/m 8,0 C 21,4 C 20,9 km/h (4 Bft) 100,00 %
19.04.2018 16:07 23,6 C 12,8 C 41 % 1026,2 hPa 0,0 l/m 21,7 km/h (4 Bft) NO 52 1 min 0,000 mm 1,9 UV-I 525 W/m 9,6 C 20,6 C 25,7 km/h (4 Bft) 93,10 %
19.04.2018 16:08 23,6 C 12,8 C 37 % 1026,2 hPa 0,0 l/m 18,4 km/h (3 Bft) NO 56 1 min 0,000 mm 1,9 UV-I 521 W/m 8,0 C 21,1 C 22,5 km/h (4 Bft) 96,30 %
19.04.2018 16:09 23,7 C 12,2 C 42 % 1026,2 hPa 0,0 l/m 23,4 km/h (4 Bft) NO 43 1 min 0,000 mm 1,8 UV-I 519 W/m 10,0 C 20,6 C 27,4 km/h (4 Bft) 100,00 %
19.04.2018 16:10 23,8 C 12,8 C 39 % 1026,2 hPa 0,0 l/m 20,8 km/h (4 Bft) O-NO 63 1 min 0,000 mm 1,8 UV-I 517 W/m 9,0 C 21,0 C 27,4 km/h (4 Bft) 96,55 %
19.04.2018 16:11 23,8 C 12,2 C 38 % 1026,2 hPa 0,0 l/m 17,2 km/h (3 Bft) NO 52 1 min 0,000 mm 1,8 UV-I 515 W/m 8,6 C 21,5 C 20,9 km/h (4 Bft) 100,00 %
19.04.2018 16:12 23,8 C 12,8 C 38 % 1026,2 hPa 0,0 l/m 17,5 km/h (3 Bft) O-NO 64 1 min 0,000 mm 1,8 UV-I 513 W/m 8,6 C 21,5 C 25,7 km/h (4 Bft) 92,31 %
19.04.2018 16:13 23,9 C 12,8 C 39 % 1026,2 hPa 0,0 l/m 21,6 km/h (4 Bft) O-NO 76 1 min 0,000 mm 1,8 UV-I 511 W/m 9,1 C 21,0 C 25,7 km/h (4 Bft) 100,00 %
19.04.2018 16:14 23,8 C 12,8 C 36 % 1026,2 hPa 0,0 l/m 15,9 km/h (3 Bft) O-NO 69 1 min 0,000 mm 1,8 UV-I 509 W/m 7,8 C 21,7 C 22,5 km/h (4 Bft) 92,86 %
19.04.2018 16:15 23,8 C 12,2 C 37 % 1026,2 hPa 0,0 l/m 21,4 km/h (4 Bft) O 96 1 min 0,000 mm 1,7 UV-I 508 W/m 8,2 C 20,9 C 27,4 km/h (4 Bft) 100,00 %
19.04.2018 16:16 23,7 C 12,2 C 38 % 1026,2 hPa 0,0 l/m 20,6 km/h (4 Bft) O-NO 78 1 min 0,000 mm 1,7 UV-I 504 W/m 8,5 C 20,9 C 27,4 km/h (4 Bft) 96,15 %
19.04.2018 16:17 23,6 C 12,8 C 38 % 1026,2 hPa 0,0 l/m 20,0 km/h (4 Bft) O 92 1 min 0,000 mm 1,7 UV-I 503 W/m 8,4 C 20,9 C 25,7 km/h (4 Bft) 94,44 %
19.04.2018 16:18 23,6 C 12,8 C 39 % 1026,2 hPa 0,0 l/m 20,5 km/h (4 Bft) O 98 1 min 0,000 mm 1,7 UV-I 500 W/m 8,8 C 20,8 C 25,7 km/h (4 Bft) 94,12 %
19.04.2018 16:19 23,6 C 12,2 C 38 % 1026,1 hPa 0,0 l/m 22,5 km/h (4 Bft) O-NO 78 1 min 0,000 mm 1,7 UV-I 497 W/m 8,4 C 20,5 C 27,4 km/h (4 Bft) 96,67 %
19.04.2018 16:20 23,6 C 12,2 C 37 % 1026,2 hPa 0,0 l/m 21,1 km/h (4 Bft) O-NO 71 1 min 0,000 mm 1,7 UV-I 495 W/m 8,0 C 20,7 C 25,7 km/h (4 Bft) 100,00 %
19.04.2018 16:21 23,6 C 12,2 C 38 % 1026,2 hPa 0,0 l/m 18,3 km/h (3 Bft) O 83 1 min 0,000 mm 1,7 UV-I 494 W/m 8,4 C 21,1 C 20,9 km/h (4 Bft) 93,33 %
19.04.2018 16:22 23,6 C 12,2 C 38 % 1026,1 hPa 0,0 l/m 18,9 km/h (3 Bft) O-NO 76 1 min 0,000 mm 1,6 UV-I 490 W/m 8,4 C 21,0 C 24,1 km/h (4 Bft) 100,00 %
19.04.2018 16:23 23,7 C 12,8 C 37 % 1026,1 hPa 0,0 l/m 19,9 km/h (4 Bft) NO 45 1 min 0,000 mm 1,6 UV-I 487 W/m 8,1 C 21,0 C 25,7 km/h (4 Bft) 94,12 %
19.04.2018 16:24 23,7 C 12,2 C 37 % 1026,1 hPa 0,0 l/m 14,1 km/h (3 Bft) O-NO 76 1 min 0,000 mm 1,6 UV-I 484 W/m 8,1 C 21,9 C 19,3 km/h (3 Bft) 97,37 %
19.04.2018 16:25 23,7 C 12,2 C 37 % 1026,1 hPa 0,0 l/m 20,9 km/h (4 Bft) O-NO 72 1 min 0,000 mm 1,6 UV-I 483 W/m 8,1 C 20,9 C 25,7 km/h (4 Bft) 100,00 %
19.04.2018 16:26 23,7 C 12,8 C 38 % 1026,1 hPa 0,0 l/m 16,2 km/h (3 Bft) NO 55 1 min 0,000 mm 1,6 UV-I 481 W/m 8,5 C 21,5 C 22,5 km/h (4 Bft) 95,65 %
19.04.2018 16:28 23,7 C 12,2 C 37 % 1026,0 hPa 0,0 l/m 13,1 km/h (3 Bft) N-NO 30 2 min 0,000 mm 1,6 UV-I 476 W/m 8,1 C 22,1 C 19,3 km/h (3 Bft) 97,62 %
19.04.2018 16:29 23,7 C 12,8 C 38 % 1026,0 hPa 0,0 l/m 15,1 km/h (3 Bft) O-NO 57 1 min 0,000 mm 1,5 UV-I 475 W/m 8,5 C 21,7 C 22,5 km/h (4 Bft) 100,00 %
19.04.2018 16:30 23,8 C 12,2 C 40 % 1026,0 hPa 0,0 l/m 15,1 km/h (3 Bft) NO 55 1 min 0,000 mm 1,5 UV-I 472 W/m 9,4 C 21,8 C 20,9 km/h (4 Bft) 100,00 %
19.04.2018 16:31 23,8 C 12,2 C 38 % 1026,0 hPa 0,0 l/m 16,9 km/h (3 Bft) O-NO 66 1 min 0,000 mm 1,5 UV-I 471 W/m 8,6 C 21,6 C 25,7 km/h (4 Bft) 96,15 %
19.04.2018 16:32 23,8 C 12,2 C 38 % 1026,0 hPa 0,0 l/m 16,0 km/h (3 Bft) NO 53 1 min 0,000 mm 1,5 UV-I 468 W/m 8,6 C 21,7 C 22,5 km/h (4 Bft) 92,59 %
19.04.2018 16:33 23,8 C 12,2 C 39 % 1026,0 hPa 0,0 l/m 18,7 km/h (3 Bft) O-NO 57 1 min 0,000 mm 1,5 UV-I 465 W/m 9,0 C 21,3 C 22,5 km/h (4 Bft) 100,00 %
19.04.2018 16:34 23,8 C 12,2 C 38 % 1025,9 hPa 0,0 l/m 18,7 km/h (3 Bft) O-NO 69 1 min 0,000 mm 1,5 UV-I 464 W/m 8,6 C 21,3 C 24,1 km/h (4 Bft) 100,00 %
19.04.2018 16:35 23,8 C 12,8 C 38 % 1026,0 hPa 0,0 l/m 12,7 km/h (3 Bft) O-SO 111 1 min 0,000 mm 1,4 UV-I 461 W/m 8,6 C 22,3 C 16,1 km/h (3 Bft) 100,00 %
19.04.2018 16:36 23,8 C 12,2 C 39 % 1026,0 hPa 0,0 l/m 16,7 km/h (3 Bft) O-SO 102 1 min 0,000 mm 1,4 UV-I 457 W/m 9,0 C 21,6 C 20,9 km/h (4 Bft) 100,00 %
19.04.2018 16:37 23,8 C 12,8 C 38 % 1026,0 hPa 0,0 l/m 14,0 km/h (3 Bft) O-NO 75 1 min 0,000 mm 1,4 UV-I 456 W/m 8,6 C 22,0 C 19,3 km/h (3 Bft) 91,30 %
19.04.2018 16:38 23,8 C 12,2 C 39 % 1026,0 hPa 0,0 l/m 17,8 km/h (3 Bft) O-NO 74 1 min 0,000 mm 1,4 UV-I 453 W/m 9,0 C 21,4 C 22,5 km/h (4 Bft) 100,00 %
19.04.2018 16:39 23,7 C 12,8 C 37 % 1026,0 hPa 0,0 l/m 18,5 km/h (3 Bft) O-NO 57 1 min 0,000 mm 1,4 UV-I 451 W/m 8,1 C 21,2 C 24,1 km/h (4 Bft) 100,00 %
19.04.2018 16:40 23,7 C 12,2 C 37 % 1026,0 hPa 0,0 l/m 23,8 km/h (4 Bft) O-NO 78 1 min 0,000 mm 1,4 UV-I 448 W/m 8,1 C 20,5 C 30,6 km/h (5 Bft) 100,00 %
19.04.2018 16:41 23,7 C 12,2 C 36 % 1026,0 hPa 0,0 l/m 22,0 km/h (4 Bft) O 84 1 min 0,000 mm 1,3 UV-I 446 W/m 7,7 C 20,7 C 27,4 km/h (4 Bft) 100,00 %
19.04.2018 16:42 23,7 C 12,2 C 37 % 1025,9 hPa 0,0 l/m 22,0 km/h (4 Bft) O-NO 67 1 min 0,000 mm 1,3 UV-I 444 W/m 8,1 C 20,7 C 27,4 km/h (4 Bft) 100,00 %
19.04.2018 16:43 23,7 C 12,2 C 37 % 1025,9 hPa 0,0 l/m 20,5 km/h (4 Bft) O 86 1 min 0,000 mm 1,3 UV-I 441 W/m 8,1 C 20,9 C 25,7 km/h (4 Bft) 96,15 %
19.04.2018 16:44 23,6 C 12,2 C 38 % 1026,0 hPa 0,0 l/m 16,6 km/h (3 Bft) O-NO 67 1 min 0,000 mm 1,3 UV-I 435 W/m 8,4 C 21,3 C 22,5 km/h (4 Bft) 100,00 %
19.04.2018 16:45 23,6 C 12,8 C 39 % 1025,9 hPa 0,0 l/m 17,9 km/h (3 Bft) O-NO 76 1 min 0,000 mm 1,3 UV-I 426 W/m 8,8 C 21,2 C 24,1 km/h (4 Bft) 100,00 %
19.04.2018 16:46 23,6 C 12,8 C 37 % 1026,0 hPa 0,0 l/m 22,0 km/h (4 Bft) O 86 1 min 0,000 mm 1,3 UV-I 433 W/m 8,0 C 20,6 C 27,4 km/h (4 Bft) 100,00 %
19.04.2018 16:47 23,6 C 12,8 C 38 % 1026,0 hPa 0,0 l/m 21,7 km/h (4 Bft) O 88 1 min 0,000 mm 1,3 UV-I 430 W/m 8,4 C 20,6 C 25,7 km/h (4 Bft) 96,67 %
19.04.2018 16:48 23,5 C 12,2 C 38 % 1025,8 hPa 0,0 l/m 22,4 km/h (4 Bft) O-NO 68 1 min 0,000 mm 1,3 UV-I 428 W/m 8,4 C 20,4 C 27,4 km/h (4 Bft) 100,00 %
19.04.2018 16:49 23,5 C 12,2 C 38 % 1025,9 hPa 0,0 l/m 17,7 km/h (3 Bft) O-SO 108 1 min 0,000 mm 1,2 UV-I 424 W/m 8,4 C 21,1 C 22,5 km/h (4 Bft) 100,00 %
19.04.2018 16:50 23,6 C 12,2 C 40 % 1025,9 hPa 0,0 l/m 19,2 km/h (3 Bft) O 89 1 min 0,000 mm 1,2 UV-I 423 W/m 9,2 C 21,0 C 22,5 km/h (4 Bft) 100,00 %
19.04.2018 16:51 23,6 C 12,8 C 38 % 1025,9 hPa 0,0 l/m 18,1 km/h (3 Bft) O 98 1 min 0,000 mm 1,2 UV-I 420 W/m 8,4 C 21,1 C 22,5 km/h (4 Bft) 94,44 %
19.04.2018 16:52 23,6 C 12,8 C 39 % 1025,9 hPa 0,0 l/m 19,5 km/h (3 Bft) O 94 1 min 0,000 mm 1,2 UV-I 417 W/m 8,8 C 20,9 C 25,7 km/h (4 Bft) 100,00 %
19.04.2018 16:53 23,6 C 12,2 C 38 % 1025,9 hPa 0,0 l/m 22,8 km/h (4 Bft) NO 46 1 min 0,000 mm 1,2 UV-I 414 W/m 8,4 C 20,5 C 29,0 km/h (5 Bft) 100,00 %
19.04.2018 16:54 23,6 C 12,2 C 39 % 1025,8 hPa 0,0 l/m 18,6 km/h (3 Bft) O 92 1 min 0,000 mm 1,2 UV-I 412 W/m 8,8 C 21,0 C 24,1 km/h (4 Bft) 96,88 %
19.04.2018 16:55 23,5 C 12,2 C 39 % 1025,9 hPa 0,0 l/m 20,9 km/h (4 Bft) O-NO 66 1 min 0,000 mm 1,2 UV-I 409 W/m 8,7 C 20,6 C 27,4 km/h (4 Bft) 100,00 %
19.04.2018 16:56 23,5 C 12,2 C 38 % 1025,8 hPa 0,0 l/m 22,7 km/h (4 Bft) O 94 1 min 0,000 mm 1,2 UV-I 407 W/m 8,4 C 20,4 C 29,0 km/h (5 Bft) 100,00 %
19.04.2018 16:57 23,5 C 12,2 C 39 % 1025,8 hPa 0,0 l/m 18,3 km/h (3 Bft) O 92 1 min 0,000 mm 1,1 UV-I 405 W/m 8,7 C 21,0 C 22,5 km/h (4 Bft) 100,00 %
19.04.2018 16:58 23,5 C 12,2 C 39 % 1025,8 hPa 0,0 l/m 18,4 km/h (3 Bft) O-NO 67 1 min 0,000 mm 1,1 UV-I 402 W/m 8,7 C 21,0 C 25,7 km/h (4 Bft) 97,14 %
19.04.2018 16:59 23,5 C 12,8 C 39 % 1025,8 hPa 0,0 l/m 15,4 km/h (3 Bft) O-SO 103 1 min 0,000 mm 1,1 UV-I 399 W/m 8,7 C 21,4 C 20,9 km/h (4 Bft) 100,00 %
19.04.2018 17:00 23,5 C 12,8 C 40 % 1025,8 hPa 0,0 l/m 17,4 km/h (3 Bft) O 93 1 min 0,000 mm 1,1 UV-I 397 W/m 9,1 C 21,1 C 20,9 km/h (4 Bft) 100,00 %
19.04.2018 17:02 23,6 C 12,2 C 40 % 1025,8 hPa 0,0 l/m 14,0 km/h (3 Bft) O-NO 74 2 min 0,457 mm 1,1 UV-I 391 W/m 9,2 C 21,8 C 20,9 km/h (4 Bft) 98,18 %
19.04.2018 17:03 23,6 C 12,2 C 40 % 1025,8 hPa 0,0 l/m 17,0 km/h (3 Bft) O-NO 65 1 min 0,000 mm 1,1 UV-I 387 W/m 9,2 C 21,3 C 20,9 km/h (4 Bft) 91,67 %
19.04.2018 17:04 23,6 C 12,8 C 42 % 1025,8 hPa 0,0 l/m 16,3 km/h (3 Bft) O 82 1 min 0,000 mm 1,0 UV-I 384 W/m 9,9 C 21,4 C 22,5 km/h (4 Bft) 96,30 %
19.04.2018 17:05 23,6 C 12,8 C 40 % 1025,8 hPa 0,0 l/m 14,3 km/h (3 Bft) O-NO 68 1 min 0,000 mm 1,0 UV-I 380 W/m 9,2 C 21,7 C 17,7 km/h (3 Bft) 100,00 %
19.04.2018 17:06 23,6 C 12,2 C 40 % 1025,8 hPa 0,0 l/m 16,9 km/h (3 Bft) O 89 1 min 0,000 mm 1,0 UV-I 379 W/m 9,2 C 21,3 C 22,5 km/h (4 Bft) 97,94 %
19.04.2018 17:07 23,6 C 12,2 C 39 % 1025,8 hPa 0,0 l/m 21,7 km/h (4 Bft) O-NO 70 1 min 0,000 mm 1,0 UV-I 376 W/m 8,8 C 20,6 C 29,0 km/h (5 Bft) 100,00 %
19.04.2018 17:08 23,6 C 12,2 C 39 % 1025,8 hPa 0,0 l/m 20,6 km/h (4 Bft) O 84 1 min 0,000 mm 1,0 UV-I 373 W/m 8,8 C 20,8 C 25,7 km/h (4 Bft) 100,00 %
19.04.2018 17:09 23,6 C 12,2 C 40 % 1025,8 hPa 0,0 l/m 12,2 km/h (2 Bft) O-NO 69 1 min 0,000 mm 1,0 UV-I 370 W/m 9,2 C 22,1 C 14,5 km/h (3 Bft) 95,00 %
19.04.2018 17:10 23,6 C 12,2 C 40 % 1025,8 hPa 0,0 l/m 12,4 km/h (3 Bft) O 96 1 min 0,000 mm 1,0 UV-I 367 W/m 9,2 C 22,1 C 16,1 km/h (3 Bft) 100,00 %
19.04.2018 17:11 23,6 C 12,8 C 40 % 1025,8 hPa 0,0 l/m 16,6 km/h (3 Bft) O 84 1 min 0,000 mm 1,0 UV-I 365 W/m 9,2 C 21,3 C 22,5 km/h (4 Bft) 100,00 %
19.04.2018 17:12 23,6 C 12,8 C 40 % 1025,8 hPa 0,0 l/m 16,7 km/h (3 Bft) O 82 1 min 0,000 mm 0,9 UV-I 362 W/m 9,2 C 21,3 C 19,3 km/h (3 Bft) 100,00 %
19.04.2018 17:13 23,6 C 12,2 C 40 % 1025,8 hPa 0,0 l/m 13,6 km/h (3 Bft) O-NO 77 1 min 0,000 mm 0,9 UV-I 359 W/m 9,2 C 21,9 C 19,3 km/h (3 Bft) 100,00 %
19.04.2018 17:14 23,6 C 12,2 C 40 % 1025,8 hPa 0,0 l/m 19,2 km/h (3 Bft) O-NO 74 1 min 0,000 mm 0,9 UV-I 358 W/m 9,2 C 21,0 C 25,7 km/h (4 Bft) 100,00 %
19.04.2018 17:15 23,6 C 12,2 C 39 % 1025,8 hPa 0,0 l/m 16,8 km/h (3 Bft) O-NO 63 1 min 0,000 mm 0,9 UV-I 354 W/m 8,8 C 21,3 C 20,9 km/h (4 Bft) 100,00 %
19.04.2018 17:16 23,6 C 12,2 C 41 % 1025,8 hPa 0,0 l/m 17,2 km/h (3 Bft) O-NO 59 1 min 0,000 mm 0,9 UV-I 352 W/m 9,6 C 21,3 C 24,1 km/h (4 Bft) 100,00 %
19.04.2018 17:17 23,5 C 12,2 C 40 % 1025,8 hPa 0,0 l/m 19,5 km/h (3 Bft) O 87 1 min 0,000 mm 0,9 UV-I 351 W/m 9,1 C 20,8 C 25,7 km/h (4 Bft) 96,55 %
19.04.2018 17:18 23,4 C 12,8 C 39 % 1025,8 hPa 0,0 l/m 21,0 km/h (4 Bft) O 82 1 min 0,000 mm 0,9 UV-I 349 W/m 8,6 C 20,5 C 29,0 km/h (5 Bft) 100,00 %
19.04.2018 17:19 23,4 C 12,8 C 39 % 1025,8 hPa 0,0 l/m 20,6 km/h (4 Bft) O-NO 70 1 min 0,000 mm 0,9 UV-I 346 W/m 8,6 C 20,5 C 24,1 km/h (4 Bft) 100,00 %
19.04.2018 17:20 23,4 C 12,2 C 39 % 1025,8 hPa 0,0 l/m 17,1 km/h (3 Bft) O-NO 73 1 min 0,000 mm 0,8 UV-I 345 W/m 8,6 C 21,0 C 20,9 km/h (4 Bft) 96,30 %
19.04.2018 17:21 23,4 C 12,2 C 40 % 1025,8 hPa 0,0 l/m 15,4 km/h (3 Bft) O-NO 62 1 min 0,000 mm 0,8 UV-I 341 W/m 9,0 C 21,3 C 20,9 km/h (4 Bft) 91,67 %
19.04.2018 17:22 23,4 C 12,2 C 39 % 1025,8 hPa 0,0 l/m 17,3 km/h (3 Bft) O 84 1 min 0,000 mm 0,8 UV-I 334 W/m 8,6 C 21,0 C 20,9 km/h (4 Bft) 100,00 %
19.04.2018 17:23 23,4 C 12,8 C 39 % 1025,8 hPa 0,0 l/m 18,8 km/h (3 Bft) O-NO 74 1 min 0,000 mm 0,8 UV-I 328 W/m 8,6 C 20,8 C 22,5 km/h (4 Bft) 100,00 %
19.04.2018 17:24 23,4 C 12,8 C 39 % 1025,8 hPa 0,0 l/m 18,8 km/h (3 Bft) O 80 1 min 0,000 mm 0,8 UV-I 330 W/m 8,6 C 20,8 C 25,7 km/h (4 Bft) 100,00 %
19.04.2018 17:25 23,3 C 12,2 C 39 % 1025,8 hPa 0,0 l/m 16,3 km/h (3 Bft) O-NO 65 1 min 0,000 mm 0,8 UV-I 329 W/m 8,6 C 21,0 C 20,9 km/h (4 Bft) 100,00 %
19.04.2018 17:26 23,3 C 12,8 C 39 % 1025,8 hPa 0,0 l/m 15,6 km/h (3 Bft) O-NO 62 1 min 0,000 mm 0,8 UV-I 327 W/m 8,6 C 21,1 C 20,9 km/h (4 Bft) 100,00 %
19.04.2018 17:27 23,3 C 12,2 C 40 % 1025,8 hPa 0,0 l/m 16,6 km/h (3 Bft) O-NO 72 1 min 0,000 mm 0,8 UV-I 325 W/m 8,9 C 21,0 C 20,9 km/h (4 Bft) 100,00 %
19.04.2018 17:28 23,3 C 12,2 C 39 % 1025,8 hPa 0,0 l/m 19,8 km/h (3 Bft) O 84 1 min 0,000 mm 0,8 UV-I 323 W/m 8,6 C 20,5 C 27,4 km/h (4 Bft) 100,00 %
19.04.2018 17:29 23,3 C 12,8 C 40 % 1025,8 hPa 0,0 l/m 17,5 km/h (3 Bft) O 93 1 min 0,000 mm 0,8 UV-I 321 W/m 8,9 C 20,8 C 22,5 km/h (4 Bft) 95,83 %
19.04.2018 17:30 23,3 C 12,2 C 39 % 1025,8 hPa 0,0 l/m 21,0 km/h (4 Bft) O 101 1 min 0,000 mm 0,7 UV-I 317 W/m 8,6 C 20,3 C 27,4 km/h (4 Bft) 100,00 %
19.04.2018 17:31 23,3 C 12,8 C 39 % 1025,8 hPa 0,0 l/m 20,2 km/h (4 Bft) O 81 1 min 0,000 mm 0,7 UV-I 314 W/m 8,6 C 20,4 C 27,4 km/h (4 Bft) 100,00 %
19.04.2018 17:32 23,3 C 12,8 C 39 % 1025,7 hPa 0,0 l/m 19,2 km/h (3 Bft) O-NO 71 1 min 0,000 mm 0,7 UV-I 312 W/m 8,6 C 20,6 C 22,5 km/h (4 Bft) 100,00 %
19.04.2018 17:33 23,3 C 12,8 C 39 % 1025,7 hPa 0,0 l/m 21,2 km/h (4 Bft) O-NO 76 1 min 0,000 mm 0,7 UV-I 311 W/m 8,6 C 20,3 C 25,7 km/h (4 Bft) 100,00 %
19.04.2018 17:34 23,3 C 12,8 C 39 % 1025,8 hPa 0,0 l/m 19,1 km/h (3 Bft) O 86 1 min 0,000 mm 0,7 UV-I 308 W/m 8,6 C 20,6 C 24,1 km/h (4 Bft) 97,99 %
19.04.2018 17:35 23,2 C 12,2 C 39 % 1025,8 hPa 0,0 l/m 17,5 km/h (3 Bft) O-NO 69 1 min 0,000 mm 0,7 UV-I 305 W/m 8,5 C 20,7 C 22,5 km/h (4 Bft) 97,73 %
19.04.2018 17:36 23,2 C 12,8 C 40 % 1025,7 hPa 0,0 l/m 19,2 km/h (3 Bft) O-NO 70 1 min 0,000 mm 0,7 UV-I 302 W/m 8,8 C 20,5 C 25,7 km/h (4 Bft) 100,00 %
19.04.2018 17:37 23,2 C 12,8 C 41 % 1025,7 hPa 0,0 l/m 17,8 km/h (3 Bft) O-NO 71 1 min 0,000 mm 0,7 UV-I 300 W/m 9,2 C 20,7 C 24,1 km/h (4 Bft) 100,00 %
19.04.2018 17:38 23,2 C 12,8 C 39 % 1025,7 hPa 0,0 l/m 21,3 km/h (4 Bft) O 82 1 min 0,000 mm 0,7 UV-I 296 W/m 8,5 C 20,2 C 27,4 km/h (4 Bft) 95,65 %
19.04.2018 17:39 23,2 C 12,8 C 39 % 1025,8 hPa 0,0 l/m 19,1 km/h (3 Bft) O 84 1 min 0,000 mm 0,6 UV-I 295 W/m 8,5 C 20,5 C 24,1 km/h (4 Bft) 100,00 %
19.04.2018 17:40 23,2 C 12,2 C 39 % 1025,7 hPa 0,0 l/m 15,9 km/h (3 Bft) O-SO 116 1 min 0,000 mm 0,6 UV-I 292 W/m 8,5 C 21,0 C 20,9 km/h (4 Bft) 100,00 %
19.04.2018 17:41 23,2 C 12,2 C 41 % 1025,7 hPa 0,0 l/m 17,3 km/h (3 Bft) O-NO 76 1 min 0,000 mm 0,6 UV-I 289 W/m 9,2 C 20,7 C 22,5 km/h (4 Bft) 100,00 %
19.04.2018 17:42 23,2 C 12,8 C 41 % 1025,7 hPa 0,0 l/m 14,6 km/h (3 Bft) O-NO 67 1 min 0,000 mm 0,6 UV-I 280 W/m 9,2 C 21,2 C 20,9 km/h (4 Bft) 100,00 %
19.04.2018 17:43 23,1 C 12,8 C 41 % 1025,7 hPa 0,0 l/m 16,8 km/h (3 Bft) NO 55 1 min 0,000 mm 0,6 UV-I 275 W/m 9,1 C 20,7 C 22,5 km/h (4 Bft) 100,00 %
19.04.2018 17:44 23,1 C 12,8 C 40 % 1025,7 hPa 0,0 l/m 18,5 km/h (3 Bft) O 86 1 min 0,000 mm 0,6 UV-I 278 W/m 8,8 C 20,4 C 22,5 km/h (4 Bft) 100,00 %
19.04.2018 17:45 23,2 C 12,2 C 39 % 1025,6 hPa 0,0 l/m 17,3 km/h (3 Bft) O 100 1 min 0,000 mm 0,6 UV-I 276 W/m 8,5 C 20,7 C 20,9 km/h (4 Bft) 100,00 %
19.04.2018 17:46 23,2 C 12,2 C 40 % 1025,7 hPa 0,0 l/m 17,7 km/h (3 Bft) O 86 1 min 0,000 mm 0,6 UV-I 273 W/m 8,8 C 20,7 C 22,5 km/h (4 Bft) 98,00 %
19.04.2018 17:48 23,2 C 12,8 C 40 % 1025,7 hPa 0,0 l/m 17,4 km/h (3 Bft) O-NO 63 2 min 0,000 mm 0,6 UV-I 268 W/m 8,8 C 20,7 C 24,1 km/h (4 Bft) 98,65 %
19.04.2018 17:49 23,2 C 12,2 C 41 % 1025,7 hPa 0,0 l/m 14,3 km/h (3 Bft) O-NO 57 1 min 0,000 mm 0,6 UV-I 265 W/m 9,2 C 21,3 C 19,3 km/h (3 Bft) 100,00 %
19.04.2018 17:50 23,2 C 12,8 C 41 % 1025,6 hPa 0,0 l/m 12,8 km/h (3 Bft) O 94 1 min 0,000 mm 0,5 UV-I 262 W/m 9,2 C 21,5 C 17,7 km/h (3 Bft) 100,00 %
19.04.2018 17:51 23,2 C 12,8 C 41 % 1025,6 hPa 0,0 l/m 14,4 km/h (3 Bft) O-SO 107 1 min 0,000 mm 0,5 UV-I 251 W/m 9,2 C 21,2 C 17,7 km/h (3 Bft) 94,12 %
19.04.2018 17:53 23,1 C 12,8 C 41 % 1025,6 hPa 0,0 l/m 15,3 km/h (3 Bft) O-NO 70 2 min 0,000 mm 0,5 UV-I 250 W/m 9,1 C 21,0 C 22,5 km/h (4 Bft) 97,62 %
19.04.2018 17:54 23,1 C 12,2 C 41 % 1025,6 hPa 0,0 l/m 13,1 km/h (3 Bft) O-SO 104 1 min 0,000 mm 0,5 UV-I 235 W/m 9,1 C 21,4 C 19,3 km/h (3 Bft) 96,55 %
19.04.2018 17:55 23,1 C 12,8 C 41 % 1025,6 hPa 0,0 l/m 17,4 km/h (3 Bft) O-NO 72 1 min 0,000 mm 0,5 UV-I 222 W/m 9,1 C 20,6 C 20,9 km/h (4 Bft) 96,15 %
19.04.2018 17:56 23,1 C 12,8 C 41 % 1025,6 hPa 0,0 l/m 17,2 km/h (3 Bft) O 82 1 min 0,000 mm 0,5 UV-I 218 W/m 9,1 C 20,6 C 24,1 km/h (4 Bft) 95,83 %
19.04.2018 17:57 22,9 C 12,2 C 40 % 1025,6 hPa 0,0 l/m 18,0 km/h (3 Bft) O-SO 103 1 min 0,000 mm 0,5 UV-I 221 W/m 8,6 C 20,3 C 22,5 km/h (4 Bft) 100,00 %
19.04.2018 17:58 22,9 C 12,8 C 40 % 1025,6 hPa 0,0 l/m 22,0 km/h (4 Bft) O-SO 123 1 min 0,000 mm 0,5 UV-I 235 W/m 8,6 C 19,7 C 30,6 km/h (5 Bft) 97,14 %
19.04.2018 17:59 22,9 C 12,2 C 39 % 1025,6 hPa 0,0 l/m 17,5 km/h (3 Bft) O 94 1 min 0,000 mm 0,5 UV-I 237 W/m 8,2 C 20,3 C 24,1 km/h (4 Bft) 100,00 %
19.04.2018 18:00 22,9 C 12,2 C 40 % 1025,6 hPa 0,0 l/m 15,0 km/h (3 Bft) O 94 1 min 0,000 mm 0,5 UV-I 231 W/m 8,6 C 20,8 C 19,3 km/h (3 Bft) 91,67 %
19.04.2018 18:02 22,8 C 12,2 C 39 % 1025,6 hPa 0,0 l/m 15,5 km/h (3 Bft) O 90 2 min 0,355 mm 0,3 UV-I 231 W/m 8,1 C 20,6 C 20,9 km/h (4 Bft) 98,00 %
19.04.2018 18:03 22,9 C 12,8 C 40 % 1025,6 hPa 0,0 l/m 18,2 km/h (3 Bft) O 100 1 min 0,000 mm 0,0 UV-I 232 W/m 8,6 C 20,2 C 22,5 km/h (4 Bft) 96,30 %
19.04.2018 18:04 22,8 C 12,8 C 39 % 1025,6 hPa 0,0 l/m 16,4 km/h (3 Bft) O-SO 103 1 min 0,000 mm 0,0 UV-I 230 W/m 8,1 C 20,4 C 22,5 km/h (4 Bft) 100,00 %
19.04.2018 18:05 22,8 C 12,2 C 40 % 1025,6 hPa 0,0 l/m 11,9 km/h (2 Bft) O 100 1 min 0,000 mm 0,0 UV-I 228 W/m 8,5 C 21,3 C 16,1 km/h (3 Bft) 96,67 %
19.04.2018 18:06 22,8 C 12,2 C 40 % 1025,5 hPa 0,0 l/m 12,2 km/h (2 Bft) O-SO 102 1 min 0,000 mm 0,0 UV-I 223 W/m 8,5 C 21,2 C 16,1 km/h (3 Bft) 100,00 %
19.04.2018 18:07 22,8 C 12,2 C 42 % 1025,6 hPa 0,0 l/m 13,4 km/h (3 Bft) O 96 1 min 0,000 mm 0,0 UV-I 216 W/m 9,2 C 21,0 C 17,7 km/h (3 Bft) 100,00 %
19.04.2018 18:08 22,7 C 12,2 C 41 % 1025,5 hPa 0,0 l/m 14,2 km/h (3 Bft) O 82 1 min 0,000 mm 0,0 UV-I 208 W/m 8,8 C 20,7 C 16,1 km/h (3 Bft) 98,00 %
19.04.2018 18:09 22,7 C 12,8 C 40 % 1025,5 hPa 0,0 l/m 14,6 km/h (3 Bft) O-SO 108 1 min 0,000 mm 0,0 UV-I 214 W/m 8,4 C 20,6 C 19,3 km/h (3 Bft) 96,61 %
19.04.2018 18:10 22,7 C 12,8 C 41 % 1025,5 hPa 0,0 l/m 17,2 km/h (3 Bft) O 85 1 min 0,000 mm 0,0 UV-I 213 W/m 8,8 C 20,1 C 20,9 km/h (4 Bft) 100,00 %
19.04.2018 18:11 22,7 C 12,8 C 40 % 1025,5 hPa 0,0 l/m 15,4 km/h (3 Bft) O-SO 104 1 min 0,000 mm 0,0 UV-I 212 W/m 8,4 C 20,4 C 20,9 km/h (4 Bft) 96,30 %
19.04.2018 18:12 22,7 C 12,8 C 40 % 1025,5 hPa 0,0 l/m 15,0 km/h (3 Bft) O-SO 115 1 min 0,000 mm 0,0 UV-I 210 W/m 8,4 C 20,5 C 20,9 km/h (4 Bft) 95,65 %
19.04.2018 18:13 22,7 C 12,8 C 40 % 1025,5 hPa 0,0 l/m 18,3 km/h (3 Bft) O 101 1 min 0,000 mm 0,0 UV-I 207 W/m 8,4 C 20,0 C 24,1 km/h (4 Bft) 100,00 %
19.04.2018 18:14 22,7 C 12,2 C 39 % 1025,5 hPa 0,0 l/m 17,4 km/h (3 Bft) O-SO 111 1 min 0,000 mm 0,0 UV-I 204 W/m 8,0 C 20,1 C 22,5 km/h (4 Bft) 92,31 %
19.04.2018 18:15 22,7 C 12,8 C 41 % 1025,5 hPa 0,0 l/m 15,7 km/h (3 Bft) O 92 1 min 0,000 mm 0,0 UV-I 199 W/m 8,8 C 20,4 C 22,5 km/h (4 Bft) 100,00 %
19.04.2018 18:16 22,7 C 12,8 C 40 % 1025,5 hPa 0,0 l/m 16,9 km/h (3 Bft) O-SO 107 1 min 0,000 mm 0,0 UV-I 196 W/m 8,4 C 20,2 C 22,5 km/h (4 Bft) 96,15 %
19.04.2018 18:17 22,7 C 12,8 C 40 % 1025,5 hPa 0,0 l/m 15,8 km/h (3 Bft) O 100 1 min 0,000 mm 0,0 UV-I 193 W/m 8,4 C 20,4 C 19,3 km/h (3 Bft) 100,00 %
19.04.2018 18:18 22,7 C 12,8 C 40 % 1025,5 hPa 0,0 l/m 15,9 km/h (3 Bft) O 83 1 min 0,000 mm 0,0 UV-I 192 W/m 8,4 C 20,4 C 20,9 km/h (4 Bft) 96,15 %
19.04.2018 18:19 22,7 C 12,2 C 41 % 1025,5 hPa 0,0 l/m 10,9 km/h (2 Bft) O-SO 105 1 min 0,000 mm 0,0 UV-I 190 W/m 8,8 C 21,4 C 19,3 km/h (3 Bft) 100,00 %
19.04.2018 18:20 22,6 C 12,2 C 41 % 1025,4 hPa 0,0 l/m 13,6 km/h (3 Bft) O 86 1 min 0,000 mm 0,0 UV-I 186 W/m 8,7 C 20,7 C 19,3 km/h (3 Bft) 92,59 %
19.04.2018 18:21 22,6 C 12,8 C 41 % 1025,4 hPa 0,0 l/m 14,9 km/h (3 Bft) O 92 1 min 0,000 mm 0,0 UV-I 181 W/m 8,7 C 20,4 C 20,9 km/h (4 Bft) 93,10 %
19.04.2018 18:23 22,6 C 12,8 C 41 % 1025,4 hPa 0,0 l/m 16,5 km/h (3 Bft) NO 53 2 min 0,000 mm 0,0 UV-I 175 W/m 8,7 C 20,1 C 22,5 km/h (4 Bft) 96,00 %
19.04.2018 18:24 22,6 C 12,2 C 41 % 1025,4 hPa 0,0 l/m 16,6 km/h (3 Bft) O 88 1 min 0,000 mm 0,0 UV-I 170 W/m 8,7 C 20,1 C 22,5 km/h (4 Bft) 100,00 %
19.04.2018 18:25 22,6 C 12,2 C 40 % 1025,4 hPa 0,0 l/m 21,2 km/h (4 Bft) O 95 1 min 0,000 mm 0,0 UV-I 163 W/m 8,3 C 19,4 C 27,4 km/h (4 Bft) 91,30 %
19.04.2018 18:26 22,6 C 12,8 C 40 % 1025,4 hPa 0,0 l/m 13,4 km/h (3 Bft) O-SO 107 1 min 0,000 mm 0,0 UV-I 170 W/m 8,3 C 20,7 C 17,7 km/h (3 Bft) 96,30 %
19.04.2018 18:27 22,6 C 12,2 C 40 % 1025,4 hPa 0,0 l/m 16,4 km/h (3 Bft) O 87 1 min 0,000 mm 0,0 UV-I 166 W/m 8,3 C 20,1 C 25,7 km/h (4 Bft) 96,15 %
19.04.2018 18:28 22,6 C 12,8 C 40 % 1025,4 hPa 0,0 l/m 17,4 km/h (3 Bft) O-SO 123 1 min 0,000 mm 0,0 UV-I 163 W/m 8,3 C 20,0 C 24,1 km/h (4 Bft) 100,00 %
19.04.2018 18:29 22,5 C 12,8 C 40 % 1025,4 hPa 0,0 l/m 15,9 km/h (3 Bft) O 95 1 min 0,000 mm 0,0 UV-I 163 W/m 8,2 C 20,1 C 22,5 km/h (4 Bft) 96,15 %
19.04.2018 18:30 22,5 C 12,2 C 40 % 1025,4 hPa 0,0 l/m 19,4 km/h (3 Bft) O 99 1 min 0,000 mm 0,0 UV-I 162 W/m 8,2 C 19,5 C 22,5 km/h (4 Bft) 100,00 %
19.04.2018 18:31 22,5 C 12,8 C 40 % 1025,4 hPa 0,0 l/m 18,0 km/h (3 Bft) O-NO 78 1 min 0,000 mm 0,0 UV-I 160 W/m 8,2 C 19,7 C 24,1 km/h (4 Bft) 95,65 %
19.04.2018 18:32 22,5 C 12,2 C 40 % 1025,4 hPa 0,0 l/m 17,7 km/h (3 Bft) O-SO 103 1 min 0,000 mm 0,0 UV-I 153 W/m 8,2 C 19,8 C 22,5 km/h (4 Bft) 96,30 %
19.04.2018 18:33 22,4 C 12,2 C 40 % 1025,4 hPa 0,0 l/m 15,8 km/h (3 Bft) O-SO 112 1 min 0,000 mm 0,0 UV-I 149 W/m 8,1 C 20,0 C 19,3 km/h (3 Bft) 100,00 %
19.04.2018 18:34 22,4 C 12,8 C 41 % 1025,4 hPa 0,0 l/m 16,9 km/h (3 Bft) O 101 1 min 0,000 mm 0,0 UV-I 152 W/m 8,5 C 19,8 C 22,5 km/h (4 Bft) 93,33 %
19.04.2018 18:35 22,4 C 12,8 C 41 % 1025,3 hPa 0,0 l/m 18,0 km/h (3 Bft) O-SO 106 1 min 0,000 mm 0,0 UV-I 151 W/m 8,5 C 19,6 C 22,5 km/h (4 Bft) 92,31 %
19.04.2018 18:36 22,4 C 12,8 C 41 % 1025,4 hPa 0,0 l/m 13,7 km/h (3 Bft) O-SO 105 1 min 0,000 mm 0,0 UV-I 149 W/m 8,5 C 20,4 C 16,1 km/h (3 Bft) 96,67 %
19.04.2018 18:37 22,4 C 12,8 C 41 % 1025,4 hPa 0,0 l/m 13,5 km/h (3 Bft) O-SO 107 1 min 0,000 mm 0,0 UV-I 144 W/m 8,5 C 20,5 C 17,7 km/h (3 Bft) 100,00 %
19.04.2018 18:38 22,3 C 12,2 C 42 % 1025,4 hPa 0,0 l/m 9,6 km/h (2 Bft) O-SO 102 1 min 0,000 mm 0,0 UV-I 138 W/m 8,8 C 21,3 C 12,9 km/h (3 Bft) 95,83 %
19.04.2018 18:39 22,3 C 12,8 C 42 % 1025,4 hPa 0,0 l/m 15,8 km/h (3 Bft) O 94 1 min 0,000 mm 0,0 UV-I 136 W/m 8,8 C 19,9 C 24,1 km/h (4 Bft) 100,00 %
19.04.2018 18:40 22,3 C 12,2 C 40 % 1025,3 hPa 0,0 l/m 16,9 km/h (3 Bft) O-SO 109 1 min 0,000 mm 0,0 UV-I 138 W/m 8,0 C 19,7 C 22,5 km/h (4 Bft) 95,65 %
19.04.2018 18:41 22,3 C 12,8 C 41 % 1025,3 hPa 0,0 l/m 15,8 km/h (3 Bft) O 98 1 min 0,000 mm 0,0 UV-I 137 W/m 8,4 C 19,9 C 20,9 km/h (4 Bft) 96,30 %
19.04.2018 18:42 22,3 C 12,8 C 41 % 1025,4 hPa 0,0 l/m 15,5 km/h (3 Bft) O 88 1 min 0,000 mm 0,0 UV-I 135 W/m 8,4 C 19,9 C 19,3 km/h (3 Bft) 100,00 %
19.04.2018 18:43 22,3 C 12,8 C 41 % 1025,4 hPa 0,0 l/m 10,7 km/h (2 Bft) O-SO 123 1 min 0,000 mm 0,0 UV-I 134 W/m 8,4 C 21,0 C 19,3 km/h (3 Bft) 100,00 %
19.04.2018 18:44 22,2 C 12,2 C 41 % 1025,3 hPa 0,0 l/m 15,5 km/h (3 Bft) O 101 1 min 0,000 mm 0,0 UV-I 130 W/m 8,3 C 19,8 C 19,3 km/h (3 Bft) 93,75 %
19.04.2018 18:45 22,2 C 12,8 C 41 % 1025,3 hPa 0,0 l/m 15,2 km/h (3 Bft) O 98 1 min 0,000 mm 0,0 UV-I 128 W/m 8,3 C 19,9 C 19,3 km/h (3 Bft) 96,30 %
19.04.2018 18:46 22,2 C 12,2 C 41 % 1025,3 hPa 0,0 l/m 13,9 km/h (3 Bft) SO 136 1 min 0,000 mm 0,0 UV-I 127 W/m 8,3 C 20,1 C 19,3 km/h (3 Bft) 100,00 %
19.04.2018 18:47 22,2 C 12,8 C 41 % 1025,3 hPa 0,0 l/m 9,0 km/h (2 Bft) O 92 1 min 0,000 mm 0,0 UV-I 122 W/m 8,3 C 21,4 C 12,9 km/h (3 Bft) 96,67 %
19.04.2018 18:48 22,2 C 12,8 C 42 % 1025,3 hPa 0,0 l/m 9,5 km/h (2 Bft) O 84 1 min 0,000 mm 0,0 UV-I 119 W/m 8,7 C 21,2 C 12,9 km/h (3 Bft) 97,94 %
19.04.2018 18:49 22,2 C 12,8 C 42 % 1025,3 hPa 0,0 l/m 10,6 km/h (2 Bft) O 97 1 min 0,000 mm 0,0 UV-I 118 W/m 8,7 C 20,9 C 14,5 km/h (3 Bft) 97,56 %
19.04.2018 18:50 22,2 C 12,8 C 41 % 1025,3 hPa 0,0 l/m 9,8 km/h (2 Bft) SO 138 1 min 0,000 mm 0,0 UV-I 115 W/m 8,3 C 21,1 C 12,9 km/h (3 Bft) 100,00 %
19.04.2018 18:51 22,1 C 12,2 C 44 % 1025,2 hPa 0,0 l/m 8,1 km/h (2 Bft) O-SO 103 1 min 0,000 mm 0,0 UV-I 115 W/m 9,3 C 21,5 C 11,3 km/h (2 Bft) 93,33 %
19.04.2018 18:52 22,1 C 12,8 C 43 % 1025,3 hPa 0,0 l/m 14,2 km/h (3 Bft) SO 135 1 min 0,000 mm 0,0 UV-I 114 W/m 8,9 C 20,0 C 19,3 km/h (3 Bft) 100,00 %
19.04.2018 18:53 22,1 C 12,8 C 43 % 1025,2 hPa 0,0 l/m 9,0 km/h (2 Bft) O-SO 108 1 min 0,000 mm 0,0 UV-I 108 W/m 8,9 C 21,2 C 17,7 km/h (3 Bft) 94,44 %
19.04.2018 18:54 22,1 C 12,2 C 43 % 1025,3 hPa 0,0 l/m 12,8 km/h (3 Bft) O 92 1 min 0,000 mm 0,0 UV-I 108 W/m 8,9 C 20,3 C 16,1 km/h (3 Bft) 97,14 %
19.04.2018 18:55 22,1 C 12,8 C 42 % 1025,2 hPa 0,0 l/m 14,8 km/h (3 Bft) O-SO 110 1 min 0,000 mm 0,0 UV-I 107 W/m 8,6 C 19,8 C 20,9 km/h (4 Bft) 100,00 %
19.04.2018 18:56 22,1 C 12,2 C 42 % 1025,2 hPa 0,0 l/m 13,3 km/h (3 Bft) O-SO 109 1 min 0,000 mm 0,0 UV-I 107 W/m 8,6 C 20,1 C 16,1 km/h (3 Bft) 91,30 %
19.04.2018 18:57 22,1 C 12,2 C 42 % 1025,3 hPa 0,0 l/m 12,9 km/h (3 Bft) O-SO 102 1 min 0,000 mm 0,0 UV-I 105 W/m 8,6 C 20,2 C 16,1 km/h (3 Bft) 100,00 %
19.04.2018 18:59 22,0 C 12,2 C 43 % 1025,2 hPa 0,0 l/m 10,8 km/h (2 Bft) O-SO 108 2 min 0,000 mm 0,0 UV-I 100 W/m 8,8 C 20,6 C 14,5 km/h (3 Bft) 97,37 %
19.04.2018 19:00 21,9 C 12,8 C 43 % 1025,2 hPa 0,0 l/m 11,3 km/h (2 Bft) O 101 1 min 0,000 mm 0,0 UV-I 98 W/m 8,7 C 20,4 C 16,1 km/h (3 Bft) 93,75 %
19.04.2018 19:01 21,9 C 12,8 C 43 % 1025,3 hPa 0,0 l/m 10,6 km/h (2 Bft) O 97 1 min 0,229 mm 0,0 UV-I 98 W/m 8,7 C 20,6 C 17,7 km/h (3 Bft) 96,97 %
19.04.2018 19:02 21,9 C 12,8 C 44 % 1025,2 hPa 0,0 l/m 10,1 km/h (2 Bft) O-SO 117 1 min 0,000 mm 0,0 UV-I 93 W/m 9,1 C 20,7 C 16,1 km/h (3 Bft) 96,30 %
19.04.2018 19:03 21,8 C 12,2 C 43 % 1025,3 hPa 0,0 l/m 11,9 km/h (2 Bft) O 101 1 min 0,000 mm 0,0 UV-I 91 W/m 8,7 C 20,1 C 14,5 km/h (3 Bft) 100,00 %
19.04.2018 19:04 21,8 C 12,8 C 43 % 1025,2 hPa 0,0 l/m 9,1 km/h (2 Bft) O-SO 108 1 min 0,000 mm 0,0 UV-I 89 W/m 8,7 C 20,9 C 11,3 km/h (2 Bft) 96,30 %
19.04.2018 19:05 21,8 C 12,2 C 44 % 1025,3 hPa 0,0 l/m 10,1 km/h (2 Bft) O-SO 113 1 min 0,000 mm 0,0 UV-I 88 W/m 9,0 C 20,6 C 12,9 km/h (3 Bft) 93,33 %
19.04.2018 19:06 21,7 C 12,8 C 44 % 1025,2 hPa 0,0 l/m 10,9 km/h (2 Bft) SO 130 1 min 0,000 mm 0,0 UV-I 86 W/m 8,9 C 20,3 C 14,5 km/h (3 Bft) 96,15 %
19.04.2018 19:07 21,7 C 12,8 C 44 % 1025,2 hPa 0,0 l/m 10,3 km/h (2 Bft) SO 126 1 min 0,000 mm 0,0 UV-I 83 W/m 8,9 C 20,4 C 14,5 km/h (3 Bft) 92,31 %
19.04.2018 19:08 21,6 C 12,2 C 45 % 1025,3 hPa 0,0 l/m 9,0 km/h (2 Bft) O 93 1 min 0,000 mm 0,0 UV-I 80 W/m 9,2 C 20,7 C 12,9 km/h (3 Bft) 100,00 %
19.04.2018 19:09 21,6 C 12,8 C 44 % 1025,3 hPa 0,0 l/m 10,1 km/h (2 Bft) O-SO 113 1 min 0,000 mm 0,0 UV-I 78 W/m 8,8 C 20,4 C 12,9 km/h (3 Bft) 96,15 %
19.04.2018 19:10 21,6 C 12,8 C 44 % 1025,3 hPa 0,0 l/m 9,1 km/h (2 Bft) O-SO 114 1 min 0,000 mm 0,0 UV-I 76 W/m 8,8 C 20,7 C 12,9 km/h (3 Bft) 100,00 %
19.04.2018 19:11 21,5 C 12,2 C 43 % 1025,3 hPa 0,0 l/m 12,5 km/h (3 Bft) O-SO 102 1 min 0,000 mm 0,0 UV-I 73 W/m 8,4 C 19,6 C 16,1 km/h (3 Bft) 95,65 %
19.04.2018 19:12 21,6 C 12,8 C 43 % 1025,3 hPa 0,0 l/m 9,6 km/h (2 Bft) O 84 1 min 0,000 mm 0,0 UV-I 70 W/m 8,5 C 20,5 C 12,9 km/h (3 Bft) 92,59 %
19.04.2018 19:13 21,6 C 12,8 C 43 % 1025,3 hPa 0,0 l/m 11,6 km/h (2 Bft) O-SO 109 1 min 0,000 mm 0,0 UV-I 69 W/m 8,5 C 20,0 C 16,1 km/h (3 Bft) 100,00 %
19.04.2018 19:14 21,6 C 12,8 C 44 % 1025,3 hPa 0,0 l/m 8,0 km/h (2 Bft) O 94 1 min 0,000 mm 0,0 UV-I 69 W/m 8,8 C 21,0 C 12,9 km/h (3 Bft) 96,55 %
19.04.2018 19:15 21,4 C 12,8 C 44 % 1025,3 hPa 0,0 l/m 5,4 km/h (1 Bft) O-SO 114 1 min 0,000 mm 0,0 UV-I 68 W/m 8,6 C 21,4 C 6,4 km/h (2 Bft) 96,55 %
19.04.2018 19:17 21,3 C 12,8 C 44 % 1025,3 hPa 0,0 l/m 9,4 km/h (2 Bft) O-SO 117 2 min 0,000 mm 0,0 UV-I 65 W/m 8,5 C 20,3 C 16,1 km/h (3 Bft) 97,62 %
19.04.2018 19:18 21,3 C 12,8 C 43 % 1025,3 hPa 0,0 l/m 10,5 km/h (2 Bft) O 89 1 min 0,000 mm 0,0 UV-I 62 W/m 8,2 C 19,9 C 12,9 km/h (3 Bft) 96,15 %
19.04.2018 19:19 21,4 C 12,2 C 43 % 1025,3 hPa 0,0 l/m 6,6 km/h (2 Bft) O 101 1 min 0,000 mm 0,0 UV-I 62 W/m 8,3 C 21,3 C 9,7 km/h (2 Bft) 100,00 %
19.04.2018 19:20 21,3 C 12,8 C 44 % 1025,3 hPa 0,0 l/m 9,7 km/h (2 Bft) O 90 1 min 0,000 mm 0,0 UV-I 62 W/m 8,5 C 20,2 C 16,1 km/h (3 Bft) 100,00 %
19.04.2018 19:25 21,1 C 12,2 C 45 % 1025,3 hPa 0,0 l/m 9,7 km/h (2 Bft) O 90 5 min 0,000 mm 0,0 UV-I 54 W/m 8,7 C 19,9 C 14,5 km/h (3 Bft) 100,00 %
19.04.2018 19:30 20,9 C 12,2 C 45 % 1025,4 hPa 0,0 l/m 9,7 km/h (2 Bft) O 90 5 min 0,000 mm 0,0 UV-I 44 W/m 8,5 C 19,7 C 12,9 km/h (3 Bft) 100,00 %
19.04.2018 19:35 20,7 C 12,8 C 46 % 1025,4 hPa 0,0 l/m 6,4 km/h (2 Bft) O 90 5 min 0,000 mm 0,0 UV-I 38 W/m 8,7 C 20,7 C 11,3 km/h (2 Bft) 98,25 %
19.04.2018 19:40 20,6 C 12,8 C 46 % 1025,5 hPa 0,0 l/m 6,4 km/h (2 Bft) O-SO 112 5 min 0,000 mm 0,0 UV-I 32 W/m 8,6 C 20,6 C 11,3 km/h (2 Bft) 100,00 %
19.04.2018 19:45 20,3 C 12,8 C 48 % 1025,5 hPa 0,0 l/m 4,8 km/h (1 Bft) O-SO 112 5 min 0,000 mm 0,0 UV-I 26 W/m 8,9 C 20,3 C 9,7 km/h (2 Bft) 98,25 %
19.04.2018 19:50 20,1 C 12,8 C 48 % 1025,6 hPa 0,0 l/m 6,4 km/h (2 Bft) O 90 0 min 0,000 mm 0,0 UV-I 18 W/m 8,7 C 20,1 C 11,3 km/h (2 Bft) 97,37 %
19.04.2018 19:55 20,1 C 12,8 C 49 % 1025,6 hPa 0,0 l/m 8,0 km/h (2 Bft) O-SO 112 0 min 0,000 mm 0,0 UV-I 13 W/m 9,0 C 19,5 C 12,9 km/h (3 Bft) 97,37 %
19.04.2018 20:00 19,9 C 12,8 C 50 % 1025,6 hPa 0,0 l/m 8,0 km/h (2 Bft) O-SO 112 0 min 0,102 mm 0,0 UV-I 10 W/m 9,2 C 19,2 C 12,9 km/h (3 Bft) 99,12 %
19.04.2018 20:05 19,7 C 12,8 C 51 % 1025,7 hPa 0,0 l/m 6,4 km/h (2 Bft) O-SO 112 0 min 0,000 mm 0,0 UV-I 7 W/m 9,3 C 19,7 C 12,9 km/h (3 Bft) 96,49 %
19.04.2018 20:10 19,7 C 12,8 C 51 % 1025,7 hPa 0,0 l/m 8,0 km/h (2 Bft) O-SO 112 0 min 0,000 mm 0,0 UV-I 6 W/m 9,3 C 19,0 C 16,1 km/h (3 Bft) 100,00 %
19.04.2018 20:15 19,4 C 12,8 C 51 % 1025,7 hPa 0,0 l/m 6,4 km/h (2 Bft) O-SO 112 0 min 0,000 mm 0,0 UV-I 5 W/m 9,0 C 19,4 C 11,3 km/h (2 Bft) 99,12 %
19.04.2018 20:20 19,4 C 12,8 C 51 % 1025,7 hPa 0,0 l/m 6,4 km/h (2 Bft) O-SO 112 0 min 0,000 mm 0,0 UV-I 0 W/m 9,0 C 19,4 C 11,3 km/h (2 Bft) 100,00 %
19.04.2018 20:25 19,3 C 12,8 C 52 % 1025,8 hPa 0,0 l/m 8,0 km/h (2 Bft) O-SO 112 0 min 0,000 mm 0,0 UV-I 0 W/m 9,2 C 18,6 C 14,5 km/h (3 Bft) 97,37 %
19.04.2018 20:30 19,2 C 12,8 C 52 % 1025,8 hPa 0,0 l/m 9,9 km/h (2 Bft) O-SO 102 0 min 0,000 mm 0,0 UV-I 3 W/m 9,1 C 17,8 C 12,9 km/h (3 Bft) 97,69 %
19.04.2018 20:31 19,2 C 12,8 C 52 % 1025,8 hPa 0,0 l/m 9,1 km/h (2 Bft) O-SO 103 0 min 0,000 mm 0,0 UV-I 0 W/m 9,1 C 18,1 C 12,9 km/h (3 Bft) 100,00 %
19.04.2018 20:32 19,2 C 12,8 C 51 % 1025,8 hPa 0,0 l/m 9,7 km/h (2 Bft) O-SO 106 0 min 0,000 mm 0,0 UV-I 0 W/m 8,8 C 17,9 C 14,5 km/h (3 Bft) 100,00 %
19.04.2018 20:33 19,2 C 12,8 C 52 % 1025,9 hPa 0,0 l/m 7,6 km/h (2 Bft) O-SO 106 0 min 0,000 mm 0,0 UV-I 0 W/m 9,1 C 18,7 C 12,9 km/h (3 Bft) 100,00 %
19.04.2018 20:34 19,2 C 12,8 C 51 % 1025,8 hPa 0,0 l/m 8,0 km/h (2 Bft) O 94 0 min 0,000 mm 0,0 UV-I 0 W/m 8,8 C 18,5 C 12,9 km/h (3 Bft) 100,00 %
19.04.2018 20:35 19,2 C 12,8 C 51 % 1025,9 hPa 0,0 l/m 10,0 km/h (2 Bft) O 92 0 min 0,000 mm 0,0 UV-I 0 W/m 8,8 C 17,8 C 12,9 km/h (3 Bft) 100,00 %
19.04.2018 20:36 19,2 C 12,8 C 51 % 1025,9 hPa 0,0 l/m 9,1 km/h (2 Bft) O 101 0 min 0,000 mm 0,0 UV-I 0 W/m 8,8 C 18,1 C 11,3 km/h (2 Bft) 100,00 %
19.04.2018 20:37 19,2 C 12,8 C 52 % 1025,9 hPa 0,0 l/m 7,8 km/h (2 Bft) O 92 0 min 0,000 mm 0,0 UV-I 0 W/m 9,1 C 18,6 C 11,3 km/h (2 Bft) 100,00 %
19.04.2018 20:38 19,2 C 12,8 C 51 % 1025,9 hPa 0,0 l/m 8,2 km/h (2 Bft) O-SO 105 0 min 0,000 mm 0,0 UV-I 0 W/m 8,8 C 18,4 C 12,9 km/h (3 Bft) 100,00 %
19.04.2018 20:39 19,2 C 12,8 C 51 % 1025,9 hPa 0,0 l/m 8,9 km/h (2 Bft) O-NO 71 0 min 0,000 mm 0,0 UV-I 0 W/m 8,8 C 18,2 C 12,9 km/h (3 Bft) 100,00 %
19.04.2018 20:40 19,1 C 12,8 C 51 % 1025,9 hPa 0,0 l/m 6,6 km/h (2 Bft) O 97 0 min 0,000 mm 0,0 UV-I 0 W/m 8,7 C 19,0 C 11,3 km/h (2 Bft) 100,00 %
19.04.2018 20:41 19,1 C 12,8 C 51 % 1025,9 hPa 0,0 l/m 7,2 km/h (2 Bft) O-SO 109 0 min 0,000 mm 0,0 UV-I 0 W/m 8,7 C 18,7 C 11,3 km/h (2 Bft) 96,15 %
19.04.2018 20:42 19,0 C 12,8 C 51 % 1025,9 hPa 0,0 l/m 9,1 km/h (2 Bft) O 89 0 min 0,000 mm 0,0 UV-I 0 W/m 8,6 C 17,9 C 11,3 km/h (2 Bft) 100,00 %
19.04.2018 20:43 18,9 C 12,8 C 52 % 1025,9 hPa 0,0 l/m 8,0 km/h (2 Bft) O-SO 109 0 min 0,000 mm 0,0 UV-I 0 W/m 8,8 C 18,2 C 11,3 km/h (2 Bft) 100,00 %
19.04.2018 20:44 18,9 C 12,8 C 51 % 1025,9 hPa 0,0 l/m 8,4 km/h (2 Bft) O 101 0 min 0,000 mm 0,0 UV-I 0 W/m 8,5 C 18,0 C 11,3 km/h (2 Bft) 100,00 %
19.04.2018 20:45 18,9 C 12,8 C 51 % 1026,0 hPa 0,0 l/m 9,4 km/h (2 Bft) O-SO 115 0 min 0,000 mm 0,0 UV-I 0 W/m 8,5 C 17,6 C 12,9 km/h (3 Bft) 100,00 %
19.04.2018 20:46 18,9 C 12,8 C 51 % 1026,0 hPa 0,0 l/m 8,6 km/h (2 Bft) O 96 0 min 0,000 mm 0,0 UV-I 0 W/m 8,5 C 18,0 C 11,3 km/h (2 Bft) 100,00 %
19.04.2018 20:47 18,9 C 12,8 C 51 % 1025,9 hPa 0,0 l/m 9,7 km/h (2 Bft) O-SO 110 0 min 0,000 mm 0,0 UV-I 0 W/m 8,5 C 17,5 C 12,9 km/h (3 Bft) 100,00 %
19.04.2018 20:48 18,9 C 12,8 C 51 % 1026,0 hPa 0,0 l/m 9,7 km/h (2 Bft) O 97 0 min 0,000 mm 0,0 UV-I 0 W/m 8,5 C 17,5 C 12,9 km/h (3 Bft) 100,00 %
19.04.2018 20:49 18,9 C 12,8 C 52 % 1026,0 hPa 0,0 l/m 8,5 km/h (2 Bft) O-SO 109 0 min 0,000 mm 0,0 UV-I 0 W/m 8,8 C 18,0 C 11,3 km/h (2 Bft) 100,00 %
19.04.2018 20:50 18,8 C 12,8 C 52 % 1026,0 hPa 0,0 l/m 7,4 km/h (2 Bft) O 86 0 min 0,000 mm 0,0 UV-I 0 W/m 8,7 C 18,4 C 11,3 km/h (2 Bft) 100,00 %
19.04.2018 20:51 18,8 C 12,8 C 52 % 1026,0 hPa 0,0 l/m 9,9 km/h (2 Bft) O 98 0 min 0,000 mm 0,0 UV-I 0 W/m 8,7 C 17,4 C 12,9 km/h (3 Bft) 91,67 %
19.04.2018 20:52 18,8 C 12,8 C 52 % 1026,0 hPa 0,0 l/m 8,7 km/h (2 Bft) O 101 0 min 0,000 mm 0,0 UV-I 0 W/m 8,7 C 17,8 C 11,3 km/h (2 Bft) 100,00 %
19.04.2018 20:53 18,7 C 12,8 C 52 % 1026,0 hPa 0,0 l/m 7,8 km/h (2 Bft) O 87 0 min 0,000 mm 0,0 UV-I 0 W/m 8,6 C 18,1 C 11,3 km/h (2 Bft) 100,00 %
19.04.2018 20:54 18,7 C 12,8 C 52 % 1026,0 hPa 0,0 l/m 6,8 km/h (2 Bft) O-SO 103 0 min 0,000 mm 0,0 UV-I 0 W/m 8,6 C 18,5 C 12,9 km/h (3 Bft) 100,00 %
19.04.2018 20:55 18,7 C 12,8 C 52 % 1026,0 hPa 0,0 l/m 8,0 km/h (2 Bft) O-SO 105 0 min 0,000 mm 0,0 UV-I 0 W/m 8,6 C 18,0 C 9,7 km/h (2 Bft) 100,00 %
19.04.2018 20:56 18,6 C 12,8 C 52 % 1026,0 hPa 0,0 l/m 6,9 km/h (2 Bft) O-SO 103 0 min 0,000 mm 0,0 UV-I 0 W/m 8,5 C 18,4 C 9,7 km/h (2 Bft) 100,00 %
19.04.2018 20:57 18,7 C 12,8 C 52 % 1026,0 hPa 0,0 l/m 7,5 km/h (2 Bft) O 94 0 min 0,000 mm 0,0 UV-I 0 W/m 8,6 C 18,2 C 11,3 km/h (2 Bft) 100,00 %
19.04.2018 20:58 18,7 C 12,8 C 52 % 1026,0 hPa 0,0 l/m 8,7 km/h (2 Bft) O 86 0 min 0,000 mm 0,0 UV-I 0 W/m 8,6 C 17,7 C 11,3 km/h (2 Bft) 100,00 %
19.04.2018 20:59 18,7 C 12,8 C 52 % 1026,0 hPa 0,0 l/m 9,2 km/h (2 Bft) O 93 0 min 0,000 mm 0,0 UV-I 0 W/m 8,6 C 17,5 C 11,3 km/h (2 Bft) 100,00 %
19.04.2018 21:00 18,7 C 12,8 C 52 % 1026,0 hPa 0,0 l/m 8,0 km/h (2 Bft) O 86 0 min 0,000 mm 0,0 UV-I 0 W/m 8,6 C 18,0 C 12,9 km/h (3 Bft) 100,00 %
19.04.2018 21:01 18,6 C 12,8 C 52 % 1026,0 hPa 0,0 l/m 7,4 km/h (2 Bft) O-SO 108 0 min 0,050 mm 0,0 UV-I 0 W/m 8,5 C 18,1 C 11,3 km/h (2 Bft) 95,83 %
19.04.2018 21:02 18,6 C 12,8 C 52 % 1026,0 hPa 0,0 l/m 7,0 km/h (2 Bft) O-SO 106 0 min 0,000 mm 0,0 UV-I 0 W/m 8,5 C 18,3 C 11,3 km/h (2 Bft) 100,00 %
19.04.2018 21:03 18,6 C 12,8 C 52 % 1026,0 hPa 0,0 l/m 5,5 km/h (1 Bft) O 96 0 min 0,000 mm 0,0 UV-I 0 W/m 8,5 C 18,6 C 6,4 km/h (2 Bft) 100,00 %
19.04.2018 21:04 18,6 C 12,8 C 52 % 1026,0 hPa 0,0 l/m 8,4 km/h (2 Bft) O 100 0 min 0,000 mm 0,0 UV-I 0 W/m 8,5 C 17,7 C 11,3 km/h (2 Bft) 100,00 %
19.04.2018 21:05 18,6 C 12,8 C 52 % 1026,1 hPa 0,0 l/m 7,3 km/h (2 Bft) O-SO 103 0 min 0,000 mm 0,0 UV-I 0 W/m 8,5 C 18,2 C 11,3 km/h (2 Bft) 100,00 %
19.04.2018 21:06 18,6 C 12,8 C 52 % 1026,0 hPa 0,0 l/m 5,6 km/h (1 Bft) O-SO 111 0 min 0,000 mm 0,0 UV-I 0 W/m 8,5 C 18,6 C 9,7 km/h (2 Bft) 97,56 %
19.04.2018 21:07 18,5 C 12,8 C 52 % 1026,1 hPa 0,0 l/m 6,5 km/h (2 Bft) O-SO 106 0 min 0,000 mm 0,0 UV-I 0 W/m 8,5 C 18,5 C 9,7 km/h (2 Bft) 100,00 %
19.04.2018 21:08 18,5 C 12,8 C 52 % 1026,0 hPa 0,0 l/m 6,1 km/h (2 Bft) O 100 0 min 0,000 mm 0,0 UV-I 0 W/m 8,5 C 18,5 C 9,7 km/h (2 Bft) 96,67 %
19.04.2018 21:09 18,5 C 12,8 C 52 % 1026,1 hPa 0,0 l/m 7,6 km/h (2 Bft) O-SO 109 0 min 0,000 mm 0,0 UV-I 0 W/m 8,5 C 18,0 C 9,7 km/h (2 Bft) 100,00 %
19.04.2018 21:10 18,5 C 12,8 C 52 % 1026,1 hPa 0,0 l/m 7,8 km/h (2 Bft) O-SO 102 0 min 0,000 mm 0,0 UV-I 0 W/m 8,5 C 17,9 C 11,3 km/h (2 Bft) 100,00 %
19.04.2018 21:11 18,4 C 12,8 C 52 % 1026,0 hPa 0,0 l/m 6,3 km/h (2 Bft) O 101 0 min 0,000 mm 0,0 UV-I 0 W/m 8,4 C 18,4 C 9,7 km/h (2 Bft) 100,00 %
19.04.2018 21:12 18,4 C 12,8 C 52 % 1026,1 hPa 0,0 l/m 7,6 km/h (2 Bft) O-SO 105 0 min 0,000 mm 0,0 UV-I 0 W/m 8,4 C 17,8 C 11,3 km/h (2 Bft) 100,00 %
19.04.2018 21:13 18,4 C 12,8 C 52 % 1026,1 hPa 0,0 l/m 6,5 km/h (2 Bft) O 94 0 min 0,000 mm 0,0 UV-I 0 W/m 8,4 C 18,4 C 12,9 km/h (3 Bft) 100,00 %
19.04.2018 21:14 18,4 C 12,8 C 52 % 1026,1 hPa 0,0 l/m 6,6 km/h (2 Bft) O-SO 114 0 min 0,000 mm 0,0 UV-I 0 W/m 8,4 C 18,3 C 11,3 km/h (2 Bft) 100,00 %
19.04.2018 21:15 18,4 C 12,8 C 53 % 1026,1 hPa 0,0 l/m 6,0 km/h (2 Bft) O-SO 105 0 min 0,000 mm 0,0 UV-I 0 W/m 8,6 C 18,4 C 9,7 km/h (2 Bft) 100,00 %
19.04.2018 21:16 18,4 C 12,8 C 52 % 1026,1 hPa 0,0 l/m 3,9 km/h (1 Bft) O 98 0 min 0,000 mm 0,0 UV-I 0 W/m 8,4 C 18,4 C 4,8 km/h (1 Bft) 100,00 %
19.04.2018 21:17 18,4 C 12,8 C 52 % 1026,1 hPa 0,0 l/m 5,5 km/h (1 Bft) O 96 0 min 0,000 mm 0,0 UV-I 0 W/m 8,4 C 18,4 C 9,7 km/h (2 Bft) 95,65 %
19.04.2018 21:18 18,3 C 12,8 C 52 % 1026,1 hPa 0,0 l/m 5,1 km/h (1 Bft) O-SO 104 0 min 0,000 mm 0,0 UV-I 0 W/m 8,3 C 18,3 C 6,4 km/h (2 Bft) 100,00 %
19.04.2018 21:19 18,3 C 12,8 C 52 % 1026,1 hPa 0,0 l/m 4,6 km/h (1 Bft) O 85 0 min 0,000 mm 0,0 UV-I 0 W/m 8,3 C 18,3 C 6,4 km/h (2 Bft) 97,96 %
19.04.2018 21:20 18,3 C 12,8 C 52 % 1026,1 hPa 0,0 l/m 5,5 km/h (1 Bft) O 93 0 min 0,000 mm 0,0 UV-I 0 W/m 8,3 C 18,3 C 6,4 km/h (2 Bft) 100,00 %
19.04.2018 21:21 18,3 C 12,8 C 52 % 1026,1 hPa 0,0 l/m 5,1 km/h (1 Bft) O 92 0 min 0,000 mm 0,0 UV-I 0 W/m 8,3 C 18,3 C 6,4 km/h (2 Bft) 100,00 %
19.04.2018 21:22 18,3 C 12,8 C 52 % 1026,1 hPa 0,0 l/m 5,1 km/h (1 Bft) O 94 0 min 0,000 mm 0,0 UV-I 0 W/m 8,3 C 18,3 C 6,4 km/h (2 Bft) 100,00 %
19.04.2018 21:23 18,3 C 12,8 C 52 % 1026,1 hPa 0,0 l/m 4,5 km/h (1 Bft) O 90 0 min 0,000 mm 0,0 UV-I 0 W/m 8,3 C 18,3 C 6,4 km/h (2 Bft) 100,00 %
19.04.2018 21:24 18,3 C 12,8 C 52 % 1026,1 hPa 0,0 l/m 4,7 km/h (1 Bft) O 90 0 min 0,000 mm 0,0 UV-I 0 W/m 8,3 C 18,3 C 6,4 km/h (2 Bft) 100,00 %
19.04.2018 21:25 18,3 C 12,8 C 52 % 1026,1 hPa 0,0 l/m 4,8 km/h (1 Bft) O 90 0 min 0,000 mm 0,0 UV-I 0 W/m 8,3 C 18,3 C 4,8 km/h (1 Bft) 100,00 %
19.04.2018 21:26 18,2 C 12,8 C 53 % 1026,1 hPa 0,0 l/m 4,2 km/h (1 Bft) O 90 0 min 0,000 mm 0,0 UV-I 0 W/m 8,5 C 18,2 C 6,4 km/h (2 Bft) 100,00 %
19.04.2018 21:28 18,0 C 12,8 C 53 % 1026,1 hPa 0,0 l/m 3,9 km/h (1 Bft) O 79 0 min 0,000 mm 0,0 UV-I 0 W/m 8,3 C 18,0 C 6,4 km/h (2 Bft) 100,00 %
19.04.2018 21:29 17,9 C 12,8 C 54 % 1026,1 hPa 0,0 l/m 4,1 km/h (1 Bft) O 79 0 min 0,000 mm 0,0 UV-I 0 W/m 8,5 C 17,9 C 4,8 km/h (1 Bft) 100,00 %
19.04.2018 21:30 17,7 C 12,8 C 54 % 1026,1 hPa 0,0 l/m 4,0 km/h (1 Bft) O 79 0 min 0,000 mm 0,0 UV-I 0 W/m 8,3 C 17,7 C 4,8 km/h (1 Bft) 100,00 %
19.04.2018 21:31 17,4 C 12,8 C 56 % 1026,1 hPa 0,0 l/m 4,4 km/h (1 Bft) O 79 0 min 0,000 mm 0,0 UV-I 0 W/m 8,5 C 17,4 C 4,8 km/h (1 Bft) 100,00 %
19.04.2018 21:32 17,3 C 12,8 C 56 % 1026,2 hPa 0,0 l/m 4,8 km/h (1 Bft) O 79 0 min 0,000 mm 0,0 UV-I 0 W/m 8,4 C 17,3 C 4,8 km/h (1 Bft) 100,00 %
19.04.2018 21:33 17,2 C 12,8 C 56 % 1026,2 hPa 0,0 l/m 5,1 km/h (1 Bft) O 79 0 min 0,000 mm 0,0 UV-I 0 W/m 8,3 C 17,2 C 6,4 km/h (2 Bft) 100,00 %
19.04.2018 21:34 17,2 C 12,8 C 56 % 1026,1 hPa 0,0 l/m 4,4 km/h (1 Bft) O 79 0 min 0,000 mm 0,0 UV-I 0 W/m 8,3 C 17,2 C 6,4 km/h (2 Bft) 100,00 %
19.04.2018 21:35 17,3 C 12,8 C 56 % 1026,2 hPa 0,0 l/m 4,8 km/h (1 Bft) O 79 0 min 0,000 mm 0,0 UV-I 0 W/m 8,4 C 17,3 C 6,4 km/h (2 Bft) 100,00 %
19.04.2018 21:36 17,3 C 12,8 C 56 % 1026,2 hPa 0,0 l/m 4,6 km/h (1 Bft) O 79 0 min 0,000 mm 0,0 UV-I 0 W/m 8,4 C 17,3 C 4,8 km/h (1 Bft) 100,00 %
19.04.2018 21:37 17,3 C 12,8 C 56 % 1026,2 hPa 0,0 l/m 4,7 km/h (1 Bft) O 79 0 min 0,000 mm 0,0 UV-I 0 W/m 8,4 C 17,3 C 4,8 km/h (1 Bft) 100,00 %
19.04.2018 21:38 17,3 C 12,8 C 56 % 1026,2 hPa 0,0 l/m 3,8 km/h (1 Bft) O 79 0 min 0,000 mm 0,0 UV-I 0 W/m 8,4 C 17,3 C 4,8 km/h (1 Bft) 100,00 %
19.04.2018 21:39 17,3 C 12,8 C 56 % 1026,2 hPa 0,0 l/m 4,4 km/h (1 Bft) O 79 0 min 0,000 mm 0,0 UV-I 0 W/m 8,4 C 17,3 C 4,8 km/h (1 Bft) 100,00 %
19.04.2018 21:40 17,3 C 12,8 C 56 % 1026,2 hPa 0,0 l/m 3,6 km/h (1 Bft) O 79 0 min 0,000 mm 0,0 UV-I 0 W/m 8,4 C 17,3 C 4,8 km/h (1 Bft) 100,00 %
19.04.2018 21:41 17,3 C 12,8 C 56 % 1026,2 hPa 0,0 l/m 3,6 km/h (1 Bft) O 79 0 min 0,000 mm 0,0 UV-I 0 W/m 8,4 C 17,3 C 4,8 km/h (1 Bft) 100,00 %
19.04.2018 21:42 17,3 C 12,8 C 56 % 1026,2 hPa 0,0 l/m 4,6 km/h (1 Bft) O 79 0 min 0,000 mm 0,0 UV-I 0 W/m 8,4 C 17,3 C 4,8 km/h (1 Bft) 95,83 %
19.04.2018 21:43 17,3 C 12,8 C 56 % 1026,3 hPa 0,0 l/m 3,6 km/h (1 Bft) O 79 0 min 0,000 mm 0,0 UV-I 0 W/m 8,4 C 17,3 C 4,8 km/h (1 Bft) 100,00 %
19.04.2018 21:44 17,3 C 12,8 C 56 % 1026,3 hPa 0,0 l/m 3,5 km/h (1 Bft) O 79 0 min 0,000 mm 0,0 UV-I 0 W/m 8,4 C 17,3 C 4,8 km/h (1 Bft) 100,00 %
19.04.2018 21:45 17,3 C 12,8 C 56 % 1026,2 hPa 0,0 l/m 3,8 km/h (1 Bft) O 79 0 min 0,000 mm 0,0 UV-I 0 W/m 8,4 C 17,3 C 4,8 km/h (1 Bft) 100,00 %
19.04.2018 21:46 17,3 C 12,8 C 56 % 1026,2 hPa 0,0 l/m 4,2 km/h (1 Bft) O 79 0 min 0,000 mm 0,0 UV-I 0 W/m 8,4 C 17,3 C 4,8 km/h (1 Bft) 95,83 %
19.04.2018 21:47 17,3 C 12,8 C 56 % 1026,2 hPa 0,0 l/m 3,5 km/h (1 Bft) O 79 0 min 0,000 mm 0,0 UV-I 0 W/m 8,4 C 17,3 C 4,8 km/h (1 Bft) 96,15 %
19.04.2018 21:48 17,3 C 12,8 C 56 % 1026,2 hPa 0,0 l/m 3,8 km/h (1 Bft) O 79 0 min 0,000 mm 0,0 UV-I 0 W/m 8,4 C 17,3 C 4,8 km/h (1 Bft) 100,00 %
19.04.2018 21:49 17,2 C 12,8 C 56 % 1026,3 hPa 0,0 l/m 4,6 km/h (1 Bft) O 79 0 min 0,000 mm 0,0 UV-I 0 W/m 8,3 C 17,2 C 4,8 km/h (1 Bft) 96,15 %
19.04.2018 21:50 17,2 C 12,8 C 56 % 1026,2 hPa 0,0 l/m 4,4 km/h (1 Bft) O 79 0 min 0,000 mm 0,0 UV-I 0 W/m 8,3 C 17,2 C 4,8 km/h (1 Bft) 100,00 %
19.04.2018 21:51 17,2 C 12,8 C 56 % 1026,2 hPa 0,0 l/m 4,4 km/h (1 Bft) O 79 0 min 0,000 mm 0,0 UV-I 0 W/m 8,3 C 17,2 C 4,8 km/h (1 Bft) 95,65 %
19.04.2018 21:52 17,2 C 12,8 C 57 % 1026,2 hPa 0,0 l/m 4,7 km/h (1 Bft) O 79 0 min 0,000 mm 0,0 UV-I 0 W/m 8,6 C 17,2 C 6,4 km/h (2 Bft) 95,83 %
19.04.2018 21:53 17,1 C 12,8 C 57 % 1026,2 hPa 0,0 l/m 4,8 km/h (1 Bft) O 79 0 min 0,000 mm 0,0 UV-I 0 W/m 8,5 C 17,1 C 4,8 km/h (1 Bft) 95,65 %
19.04.2018 21:54 17,1 C 12,8 C 57 % 1026,2 hPa 0,0 l/m 5,0 km/h (1 Bft) O 79 0 min 0,000 mm 0,0 UV-I 0 W/m 8,5 C 17,1 C 6,4 km/h (2 Bft) 95,83 %
19.04.2018 21:55 17,1 C 12,8 C 57 % 1026,2 hPa 0,0 l/m 4,9 km/h (1 Bft) O 80 0 min 0,000 mm 0,0 UV-I 0 W/m 8,5 C 17,1 C 6,4 km/h (2 Bft) 100,00 %
19.04.2018 21:56 16,9 C 12,8 C 59 % 1026,2 hPa 0,0 l/m 4,3 km/h (1 Bft) O 80 0 min 0,000 mm 0,0 UV-I 0 W/m 8,8 C 16,9 C 4,8 km/h (1 Bft) 95,83 %
19.04.2018 21:57 16,7 C 12,8 C 59 % 1026,2 hPa 0,0 l/m 3,9 km/h (1 Bft) O 80 0 min 0,000 mm 0,0 UV-I 0 W/m 8,6 C 16,7 C 4,8 km/h (1 Bft) 100,00 %
19.04.2018 21:58 16,4 C 12,8 C 60 % 1026,2 hPa 0,0 l/m 4,2 km/h (1 Bft) O 80 0 min 0,000 mm 0,0 UV-I 0 W/m 8,6 C 16,4 C 4,8 km/h (1 Bft) 93,33 %
19.04.2018 21:59 16,1 C 12,8 C 61 % 1026,2 hPa 0,0 l/m 4,3 km/h (1 Bft) O 80 0 min 0,000 mm 0,0 UV-I 0 W/m 8,6 C 16,1 C 4,8 km/h (1 Bft) 100,00 %
19.04.2018 22:00 15,8 C 12,8 C 63 % 1026,2 hPa 0,0 l/m 3,3 km/h (1 Bft) O 80 0 min 0,000 mm 0,0 UV-I 0 W/m 8,8 C 15,8 C 4,8 km/h (1 Bft) 95,65 %
19.04.2018 22:01 15,7 C 12,8 C 63 % 1026,2 hPa 0,0 l/m 3,8 km/h (1 Bft) O 84 0 min 0,051 mm 0,0 UV-I 0 W/m 8,7 C 15,7 C 4,8 km/h (1 Bft) 100,00 %
19.04.2018 22:02 15,5 C 12,8 C 64 % 1026,2 hPa 0,0 l/m 3,8 km/h (1 Bft) O 84 0 min 0,000 mm 0,0 UV-I 0 W/m 8,7 C 15,5 C 4,8 km/h (1 Bft) 92,31 %
19.04.2018 22:03 15,4 C 12,8 C 64 % 1026,2 hPa 0,0 l/m 3,1 km/h (1 Bft) O 84 0 min 0,000 mm 0,0 UV-I 0 W/m 8,6 C 15,4 C 4,8 km/h (1 Bft) 95,83 %
19.04.2018 22:04 15,5 C 12,8 C 63 % 1026,2 hPa 0,0 l/m 3,9 km/h (1 Bft) O 84 0 min 0,000 mm 0,0 UV-I 0 W/m 8,5 C 15,5 C 6,4 km/h (2 Bft) 100,00 %
19.04.2018 22:05 15,8 C 12,8 C 63 % 1026,2 hPa 0,0 l/m 4,1 km/h (1 Bft) O 91 0 min 0,000 mm 0,0 UV-I 0 W/m 8,8 C 15,8 C 6,4 km/h (2 Bft) 96,30 %
19.04.2018 22:06 16,1 C 12,8 C 61 % 1026,2 hPa 0,0 l/m 4,0 km/h (1 Bft) O 91 0 min 0,000 mm 0,0 UV-I 0 W/m 8,6 C 16,1 C 4,8 km/h (1 Bft) 95,65 %
19.04.2018 22:07 16,2 C 12,8 C 60 % 1026,2 hPa 0,0 l/m 3,9 km/h (1 Bft) O 91 0 min 0,000 mm 0,0 UV-I 0 W/m 8,4 C 16,2 C 4,8 km/h (1 Bft) 95,83 %
19.04.2018 22:08 16,1 C 12,8 C 61 % 1026,2 hPa 0,0 l/m 3,4 km/h (1 Bft) O 91 0 min 0,000 mm 0,0 UV-I 0 W/m 8,6 C 16,1 C 4,8 km/h (1 Bft) 100,00 %
19.04.2018 22:09 16,1 C 12,8 C 61 % 1026,2 hPa 0,0 l/m 2,6 km/h (1 Bft) O 91 0 min 0,000 mm 0,0 UV-I 0 W/m 8,6 C 16,1 C 3,2 km/h (1 Bft) 96,67 %
19.04.2018 22:10 15,8 C 12,8 C 62 % 1026,2 hPa 0,0 l/m 2,4 km/h (1 Bft) O 91 0 min 0,000 mm 0,0 UV-I 0 W/m 8,5 C 15,8 C 3,2 km/h (1 Bft) 100,00 %
19.04.2018 22:11 15,6 C 12,8 C 62 % 1026,2 hPa 0,0 l/m 1,9 km/h (1 Bft) O 91 0 min 0,000 mm 0,0 UV-I 0 W/m 8,3 C 15,6 C 3,2 km/h (1 Bft) 92,31 %
19.04.2018 22:12 15,4 C 12,8 C 64 % 1026,2 hPa 0,0 l/m 2,6 km/h (1 Bft) O 91 0 min 0,000 mm 0,0 UV-I 0 W/m 8,6 C 15,4 C 3,2 km/h (1 Bft) 91,67 %
19.04.2018 22:13 15,3 C 12,8 C 64 % 1026,2 hPa 0,0 l/m 3,4 km/h (1 Bft) O 91 0 min 0,000 mm 0,0 UV-I 0 W/m 8,5 C 15,3 C 4,8 km/h (1 Bft) 97,73 %
19.04.2018 22:14 15,3 C 12,8 C 63 % 1026,2 hPa 0,0 l/m 3,1 km/h (1 Bft) O 91 0 min 0,000 mm 0,0 UV-I 0 W/m 8,3 C 15,3 C 3,2 km/h (1 Bft) 95,65 %
19.04.2018 22:15 15,2 C 12,8 C 64 % 1026,2 hPa 0,0 l/m 2,3 km/h (1 Bft) O 91 0 min 0,000 mm 0,0 UV-I 0 W/m 8,4 C 15,2 C 3,2 km/h (1 Bft) 100,00 %
19.04.2018 22:16 15,2 C 12,8 C 64 % 1026,2 hPa 0,0 l/m 3,0 km/h (1 Bft) O 91 0 min 0,000 mm 0,0 UV-I 0 W/m 8,4 C 15,2 C 4,8 km/h (1 Bft) 95,65 %
19.04.2018 22:17 15,4 C 12,8 C 63 % 1026,2 hPa 0,0 l/m 2,7 km/h (1 Bft) O 91 0 min 0,000 mm 0,0 UV-I 0 W/m 8,4 C 15,4 C 3,2 km/h (1 Bft) 100,00 %
19.04.2018 22:18 15,7 C 12,8 C 63 % 1026,2 hPa 0,0 l/m 2,4 km/h (1 Bft) O 91 0 min 0,000 mm 0,0 UV-I 0 W/m 8,7 C 15,7 C 3,2 km/h (1 Bft) 96,88 %
19.04.2018 22:19 15,7 C 12,8 C 62 % 1026,2 hPa 0,0 l/m 2,4 km/h (1 Bft) O 91 0 min 0,000 mm 0,0 UV-I 0 W/m 8,4 C 15,7 C 3,2 km/h (1 Bft) 91,30 %
19.04.2018 22:20 15,6 C 12,8 C 63 % 1026,2 hPa 0,0 l/m 2,5 km/h (1 Bft) O 91 0 min 0,000 mm 0,0 UV-I 0 W/m 8,6 C 15,6 C 4,8 km/h (1 Bft) 95,83 %
19.04.2018 22:21 15,4 C 12,8 C 63 % 1026,2 hPa 0,0 l/m 2,3 km/h (1 Bft) O 91 0 min 0,000 mm 0,0 UV-I 0 W/m 8,4 C 15,4 C 3,2 km/h (1 Bft) 96,15 %
19.04.2018 22:22 15,2 C 12,8 C 64 % 1026,2 hPa 0,0 l/m 2,4 km/h (1 Bft) O 91 0 min 0,000 mm 0,0 UV-I 0 W/m 8,4 C 15,2 C 3,2 km/h (1 Bft) 97,96 %
19.04.2018 22:23 14,9 C 12,8 C 64 % 1026,2 hPa 0,0 l/m 3,4 km/h (1 Bft) O 91 0 min 0,000 mm 0,0 UV-I 0 W/m 8,2 C 14,9 C 4,8 km/h (1 Bft) 95,12 %
19.04.2018 22:24 14,8 C 12,8 C 65 % 1026,2 hPa 0,0 l/m 2,7 km/h (1 Bft) O 91 0 min 0,000 mm 0,0 UV-I 0 W/m 8,3 C 14,8 C 3,2 km/h (1 Bft) 100,00 %
19.04.2018 22:25 14,6 C 12,8 C 66 % 1026,2 hPa 0,0 l/m 2,8 km/h (1 Bft) O 91 0 min 0,000 mm 0,0 UV-I 0 W/m 8,3 C 14,6 C 4,8 km/h (1 Bft) 96,15 %
19.04.2018 22:26 14,4 C 12,8 C 67 % 1026,1 hPa 0,0 l/m 2,8 km/h (1 Bft) O 91 0 min 0,000 mm 0,0 UV-I 0 W/m 8,4 C 14,4 C 4,8 km/h (1 Bft) 95,83 %
19.04.2018 22:28 14,3 C 12,8 C 68 % 1026,2 hPa 0,0 l/m 3,2 km/h (1 Bft) O 92 0 min 0,000 mm 0,0 UV-I 0 W/m 8,5 C 14,3 C 6,4 km/h (2 Bft) 96,23 %
19.04.2018 22:29 14,3 C 12,8 C 67 % 1026,2 hPa 0,0 l/m 3,3 km/h (1 Bft) O 92 0 min 0,000 mm 0,0 UV-I 0 W/m 8,3 C 14,3 C 4,8 km/h (1 Bft) 100,00 %
19.04.2018 22:30 14,3 C 12,8 C 67 % 1026,2 hPa 0,0 l/m 3,1 km/h (1 Bft) O 92 0 min 0,000 mm 0,0 UV-I 0 W/m 8,3 C 14,3 C 4,8 km/h (1 Bft) 96,30 %
19.04.2018 22:31 14,4 C 12,8 C 67 % 1026,1 hPa 0,0 l/m 2,3 km/h (1 Bft) O 92 0 min 0,000 mm 0,0 UV-I 0 W/m 8,4 C 14,4 C 3,2 km/h (1 Bft) 100,00 %
19.04.2018 22:32 14,5 C 12,8 C 67 % 1026,2 hPa 0,0 l/m 2,5 km/h (1 Bft) O 92 0 min 0,000 mm 0,0 UV-I 0 W/m 8,4 C 14,5 C 3,2 km/h (1 Bft) 95,83 %
19.04.2018 22:33 14,5 C 12,8 C 66 % 1026,1 hPa 0,0 l/m 2,3 km/h (1 Bft) O 92 0 min 0,000 mm 0,0 UV-I 0 W/m 8,2 C 14,5 C 3,2 km/h (1 Bft) 100,00 %
19.04.2018 22:34 14,7 C 12,8 C 66 % 1026,1 hPa 0,0 l/m 2,3 km/h (1 Bft) O 92 0 min 0,000 mm 0,0 UV-I 0 W/m 8,4 C 14,7 C 3,2 km/h (1 Bft) 96,15 %
19.04.2018 22:35 15,1 C 12,8 C 65 % 1026,1 hPa 0,0 l/m 2,3 km/h (1 Bft) O 92 0 min 0,000 mm 0,0 UV-I 0 W/m 8,6 C 15,1 C 3,2 km/h (1 Bft) 100,00 %
19.04.2018 22:36 15,1 C 12,8 C 64 % 1026,1 hPa 0,0 l/m 2,1 km/h (1 Bft) O 92 0 min 0,000 mm 0,0 UV-I 0 W/m 8,3 C 15,1 C 3,2 km/h (1 Bft) 85,71 %
19.04.2018 22:37 15,0 C 12,8 C 65 % 1026,1 hPa 0,0 l/m 1,5 km/h (1 Bft) O 92 0 min 0,000 mm 0,0 UV-I 0 W/m 8,5 C 15,0 C 1,6 km/h (1 Bft) 100,00 %
19.04.2018 22:38 14,9 C 12,8 C 64 % 1026,1 hPa 0,0 l/m 1,0 km/h (0 Bft) O 92 0 min 0,000 mm 0,0 UV-I 0 W/m 8,2 C 14,9 C 1,6 km/h (1 Bft) 95,65 %
19.04.2018 22:39 14,8 C 12,8 C 65 % 1026,1 hPa 0,0 l/m 0,3 km/h (0 Bft) O 92 0 min 0,000 mm 0,0 UV-I 0 W/m 8,3 C 14,8 C 1,6 km/h (1 Bft) 100,00 %
19.04.2018 22:40 14,7 C 12,8 C 66 % 1026,1 hPa 0,0 l/m 1,0 km/h (0 Bft) O 92 0 min 0,000 mm 0,0 UV-I 0 W/m 8,4 C 14,7 C 1,6 km/h (1 Bft) 96,15 %
19.04.2018 22:41 14,7 C 12,8 C 65 % 1026,1 hPa 0,0 l/m 1,8 km/h (1 Bft) O 92 0 min 0,000 mm 0,0 UV-I 0 W/m 8,2 C 14,7 C 3,2 km/h (1 Bft) 96,30 %
19.04.2018 22:42 14,7 C 12,8 C 65 % 1026,1 hPa 0,0 l/m 2,1 km/h (1 Bft) O 92 0 min 0,000 mm 0,0 UV-I 0 W/m 8,2 C 14,7 C 3,2 km/h (1 Bft) 100,00 %
19.04.2018 22:43 14,7 C 12,8 C 65 % 1026,1 hPa 0,0 l/m 1,9 km/h (1 Bft) O 92 0 min 0,000 mm 0,0 UV-I 0 W/m 8,2 C 14,7 C 3,2 km/h (1 Bft) 97,62 %
19.04.2018 22:44 14,6 C 12,8 C 65 % 1026,1 hPa 0,0 l/m 2,1 km/h (1 Bft) O 92 0 min 0,000 mm 0,0 UV-I 0 W/m 8,1 C 14,6 C 3,2 km/h (1 Bft) 100,00 %
19.04.2018 22:45 14,5 C 12,8 C 65 % 1026,1 hPa 0,0 l/m 2,8 km/h (1 Bft) O 92 0 min 0,000 mm 0,0 UV-I 0 W/m 8,0 C 14,5 C 3,2 km/h (1 Bft) 97,95 %
19.04.2018 22:46 14,4 C 12,8 C 66 % 1026,1 hPa 0,0 l/m 3,5 km/h (1 Bft) O 91 0 min 0,000 mm 0,0 UV-I 0 W/m 8,1 C 14,4 C 4,8 km/h (1 Bft) 97,56 %
19.04.2018 22:47 14,3 C 12,8 C 66 % 1026,1 hPa 0,0 l/m 4,8 km/h (1 Bft) O-NO 73 0 min 0,000 mm 0,0 UV-I 0 W/m 8,0 C 14,3 C 4,8 km/h (1 Bft) 96,67 %
19.04.2018 22:48 14,2 C 12,8 C 67 % 1026,1 hPa 0,0 l/m 5,7 km/h (1 Bft) O-NO 60 0 min 0,000 mm 0,0 UV-I 0 W/m 8,2 C 14,2 C 6,4 km/h (2 Bft) 95,65 %
19.04.2018 22:49 14,1 C 12,8 C 68 % 1026,1 hPa 0,0 l/m 5,7 km/h (1 Bft) O-NO 60 0 min 0,000 mm 0,0 UV-I 0 W/m 8,3 C 14,1 C 6,4 km/h (2 Bft) 100,00 %
19.04.2018 22:50 14,1 C 12,8 C 68 % 1026,1 hPa 0,0 l/m 5,2 km/h (1 Bft) O-NO 60 0 min 0,000 mm 0,0 UV-I 0 W/m 8,3 C 14,1 C 6,4 km/h (2 Bft) 100,00 %
19.04.2018 22:51 14,2 C 12,8 C 68 % 1026,2 hPa 0,0 l/m 4,2 km/h (1 Bft) O-NO 60 0 min 0,000 mm 0,0 UV-I 0 W/m 8,4 C 14,2 C 4,8 km/h (1 Bft) 96,30 %
19.04.2018 22:53 14,6 C 12,8 C 67 % 1026,1 hPa 0,0 l/m 5,3 km/h (1 Bft) O-NO 60 0 min 0,000 mm 0,0 UV-I 0 W/m 8,5 C 14,6 C 6,4 km/h (2 Bft) 96,23 %
19.04.2018 22:54 14,7 C 12,8 C 66 % 1026,1 hPa 0,0 l/m 5,2 km/h (1 Bft) O-NO 60 0 min 0,000 mm 0,0 UV-I 0 W/m 8,4 C 14,7 C 6,4 km/h (2 Bft) 93,33 %
19.04.2018 22:55 14,8 C 12,8 C 66 % 1026,1 hPa 0,0 l/m 5,4 km/h (1 Bft) O-NO 60 0 min 0,000 mm 0,0 UV-I 0 W/m 8,5 C 14,8 C 6,4 km/h (2 Bft) 100,00 %
19.04.2018 22:56 14,9 C 12,8 C 65 % 1026,1 hPa 0,0 l/m 5,1 km/h (1 Bft) O-NO 60 0 min 0,000 mm 0,0 UV-I 0 W/m 8,4 C 14,9 C 6,4 km/h (2 Bft) 91,67 %
19.04.2018 22:58 15,2 C 12,8 C 64 % 1026,1 hPa 0,0 l/m 4,9 km/h (1 Bft) O-NO 60 0 min 0,000 mm 0,0 UV-I 0 W/m 8,4 C 15,2 C 6,4 km/h (2 Bft) 98,08 %
19.04.2018 22:59 15,3 C 12,8 C 64 % 1026,1 hPa 0,0 l/m 4,8 km/h (1 Bft) O-NO 60 0 min 0,000 mm 0,0 UV-I 0 W/m 8,5 C 15,3 C 4,8 km/h (1 Bft) 91,67 %
19.04.2018 23:00 15,3 C 12,8 C 64 % 1026,1 hPa 0,0 l/m 5,0 km/h (1 Bft) O-NO 60 0 min 0,000 mm 0,0 UV-I 0 W/m 8,5 C 15,3 C 6,4 km/h (2 Bft) 95,83 %
19.04.2018 23:02 15,6 C 12,8 C 63 % 1026,1 hPa 0,0 l/m 4,9 km/h (1 Bft) O-NO 60 0 min 0,026 mm 0,0 UV-I 0 W/m 8,6 C 15,6 C 6,4 km/h (2 Bft) 98,00 %
19.04.2018 23:03 15,6 C 12,8 C 63 % 1026,1 hPa 0,0 l/m 5,3 km/h (1 Bft) O-NO 60 0 min 0,000 mm 0,0 UV-I 0 W/m 8,6 C 15,6 C 6,4 km/h (2 Bft) 95,65 %
19.04.2018 23:04 15,6 C 12,8 C 63 % 1026,1 hPa 0,0 l/m 5,2 km/h (1 Bft) O-NO 60 0 min 0,000 mm 0,0 UV-I 0 W/m 8,6 C 15,6 C 6,4 km/h (2 Bft) 100,00 %
19.04.2018 23:05 15,5 C 12,8 C 63 % 1026,1 hPa 0,0 l/m 5,2 km/h (1 Bft) O-NO 60 0 min 0,000 mm 0,0 UV-I 0 W/m 8,5 C 15,5 C 6,4 km/h (2 Bft) 91,30 %
19.04.2018 23:06 15,4 C 12,8 C 63 % 1026,1 hPa 0,0 l/m 5,4 km/h (1 Bft) O-NO 60 0 min 0,000 mm 0,0 UV-I 0 W/m 8,4 C 15,4 C 6,4 km/h (2 Bft) 100,00 %
19.04.2018 23:07 15,4 C 12,8 C 63 % 1026,1 hPa 0,0 l/m 5,9 km/h (2 Bft) O-NO 60 0 min 0,000 mm 0,0 UV-I 0 W/m 8,4 C 15,4 C 6,4 km/h (2 Bft) 96,77 %
19.04.2018 23:08 15,3 C 12,8 C 64 % 1026,1 hPa 0,0 l/m 5,6 km/h (1 Bft) O-NO 60 0 min 0,000 mm 0,0 UV-I 0 W/m 8,5 C 15,3 C 6,4 km/h (2 Bft) 100,00 %
19.04.2018 23:09 15,4 C 12,8 C 64 % 1026,0 hPa 0,0 l/m 4,8 km/h (1 Bft) O-NO 60 0 min 0,000 mm 0,0 UV-I 0 W/m 8,6 C 15,4 C 6,4 km/h (2 Bft) 93,33 %
19.04.2018 23:10 15,3 C 12,8 C 64 % 1026,1 hPa 0,0 l/m 5,2 km/h (1 Bft) O-NO 60 0 min 0,000 mm 0,0 UV-I 0 W/m 8,5 C 15,3 C 6,4 km/h (2 Bft) 100,00 %
19.04.2018 23:11 15,3 C 12,8 C 64 % 1026,1 hPa 0,0 l/m 5,8 km/h (2 Bft) O-NO 60 0 min 0,000 mm 0,0 UV-I 0 W/m 8,5 C 15,3 C 6,4 km/h (2 Bft) 91,67 %
19.04.2018 23:12 15,3 C 12,8 C 64 % 1026,0 hPa 0,0 l/m 5,3 km/h (1 Bft) O-NO 60 0 min 0,000 mm 0,0 UV-I 0 W/m 8,5 C 15,3 C 6,4 km/h (2 Bft) 91,30 %
19.04.2018 23:13 15,3 C 12,8 C 64 % 1026,1 hPa 0,0 l/m 5,4 km/h (1 Bft) O-NO 60 0 min 0,000 mm 0,0 UV-I 0 W/m 8,5 C 15,3 C 6,4 km/h (2 Bft) 100,00 %
19.04.2018 23:14 15,3 C 12,8 C 64 % 1026,1 hPa 0,0 l/m 5,2 km/h (1 Bft) O-NO 60 0 min 0,000 mm 0,0 UV-I 0 W/m 8,5 C 15,3 C 6,4 km/h (2 Bft) 96,15 %
19.04.2018 23:15 15,3 C 12,8 C 64 % 1026,1 hPa 0,0 l/m 4,8 km/h (1 Bft) O-NO 60 0 min 0,000 mm 0,0 UV-I 0 W/m 8,5 C 15,3 C 6,4 km/h (2 Bft) 100,00 %
19.04.2018 23:16 15,3 C 12,8 C 64 % 1026,1 hPa 0,0 l/m 4,5 km/h (1 Bft) O-NO 60 0 min 0,000 mm 0,0 UV-I 0 W/m 8,5 C 15,3 C 4,8 km/h (1 Bft) 95,65 %
19.04.2018 23:17 15,3 C 12,8 C 64 % 1026,1 hPa 0,0 l/m 4,5 km/h (1 Bft) O-NO 60 0 min 0,000 mm 0,0 UV-I 0 W/m 8,5 C 15,3 C 4,8 km/h (1 Bft) 100,00 %
19.04.2018 23:18 15,3 C 12,8 C 64 % 1026,0 hPa 0,0 l/m 4,6 km/h (1 Bft) O-NO 60 0 min 0,000 mm 0,0 UV-I 0 W/m 8,5 C 15,3 C 4,8 km/h (1 Bft) 96,15 %
19.04.2018 23:19 15,3 C 12,8 C 64 % 1026,0 hPa 0,0 l/m 3,9 km/h (1 Bft) O-NO 60 0 min 0,000 mm 0,0 UV-I 0 W/m 8,5 C 15,3 C 4,8 km/h (1 Bft) 100,00 %
19.04.2018 23:20 15,4 C 12,8 C 64 % 1026,0 hPa 0,0 l/m 3,8 km/h (1 Bft) O-NO 60 0 min 0,000 mm 0,0 UV-I 0 W/m 8,6 C 15,4 C 4,8 km/h (1 Bft) 95,65 %
19.04.2018 23:21 15,4 C 12,8 C 64 % 1026,0 hPa 0,0 l/m 4,7 km/h (1 Bft) O-NO 60 0 min 0,000 mm 0,0 UV-I 0 W/m 8,6 C 15,4 C 6,4 km/h (2 Bft) 100,00 %
19.04.2018 23:23 15,4 C 12,8 C 63 % 1026,1 hPa 0,0 l/m 4,8 km/h (1 Bft) O-NO 60 0 min 0,000 mm 0,0 UV-I 0 W/m 8,4 C 15,4 C 4,8 km/h (1 Bft) 96,00 %
19.04.2018 23:24 15,4 C 12,8 C 63 % 1026,1 hPa 0,0 l/m 3,8 km/h (1 Bft) O-NO 60 0 min 0,000 mm 0,0 UV-I 0 W/m 8,4 C 15,4 C 4,8 km/h (1 Bft) 100,00 %
19.04.2018 23:25 15,4 C 12,8 C 63 % 1026,1 hPa 0,0 l/m 3,5 km/h (1 Bft) O-NO 60 0 min 0,000 mm 0,0 UV-I 0 W/m 8,4 C 15,4 C 4,8 km/h (1 Bft) 92,59 %
19.04.2018 23:26 15,4 C 12,8 C 63 % 1026,1 hPa 0,0 l/m 3,0 km/h (1 Bft) O-NO 60 0 min 0,000 mm 0,0 UV-I 0 W/m 8,4 C 15,4 C 3,2 km/h (1 Bft) 100,00 %
19.04.2018 23:27 15,4 C 12,8 C 63 % 1026,1 hPa 0,0 l/m 2,9 km/h (1 Bft) O-NO 60 0 min 0,000 mm 0,0 UV-I 0 W/m 8,4 C 15,4 C 4,8 km/h (1 Bft) 93,33 %
19.04.2018 23:28 15,4 C 12,8 C 63 % 1026,1 hPa 0,0 l/m 2,8 km/h (1 Bft) O-NO 60 0 min 0,000 mm 0,0 UV-I 0 W/m 8,4 C 15,4 C 3,2 km/h (1 Bft) 100,00 %
19.04.2018 23:29 15,5 C 12,8 C 63 % 1026,1 hPa 0,0 l/m 3,1 km/h (1 Bft) O-NO 60 0 min 0,000 mm 0,0 UV-I 0 W/m 8,5 C 15,5 C 3,2 km/h (1 Bft) 100,00 %
19.04.2018 23:30 15,4 C 12,8 C 63 % 1026,0 hPa 0,0 l/m 3,6 km/h (1 Bft) O-NO 60 0 min 0,000 mm 0,0 UV-I 0 W/m 8,4 C 15,4 C 4,8 km/h (1 Bft) 100,00 %
19.04.2018 23:31 15,4 C 12,8 C 63 % 1026,1 hPa 0,0 l/m 3,6 km/h (1 Bft) O-NO 60 0 min 0,000 mm 0,0 UV-I 0 W/m 8,4 C 15,4 C 4,8 km/h (1 Bft) 100,00 %
19.04.2018 23:32 15,4 C 12,8 C 63 % 1026,0 hPa 0,0 l/m 4,5 km/h (1 Bft) O-NO 60 0 min 0,000 mm 0,0 UV-I 0 W/m 8,4 C 15,4 C 4,8 km/h (1 Bft) 100,00 %
19.04.2018 23:33 15,3 C 12,8 C 63 % 1026,1 hPa 0,0 l/m 3,6 km/h (1 Bft) O-NO 60 0 min 0,000 mm 0,0 UV-I 0 W/m 8,3 C 15,3 C 4,8 km/h (1 Bft) 96,15 %
19.04.2018 23:34 15,2 C 12,8 C 64 % 1026,1 hPa 0,0 l/m 3,9 km/h (1 Bft) O-NO 60 0 min 0,000 mm 0,0 UV-I 0 W/m 8,4 C 15,2 C 4,8 km/h (1 Bft) 100,00 %
19.04.2018 23:35 15,2 C 12,8 C 64 % 1026,1 hPa 0,0 l/m 3,5 km/h (1 Bft) O-NO 60 0 min 0,000 mm 0,0 UV-I 0 W/m 8,4 C 15,2 C 4,8 km/h (1 Bft) 100,00 %
19.04.2018 23:36 15,2 C 12,8 C 64 % 1026,1 hPa 0,0 l/m 3,6 km/h (1 Bft) O-NO 60 0 min 0,000 mm 0,0 UV-I 0 W/m 8,4 C 15,2 C 4,8 km/h (1 Bft) 100,00 %
19.04.2018 23:37 15,2 C 12,8 C 64 % 1026,1 hPa 0,0 l/m 3,4 km/h (1 Bft) O-NO 60 0 min 0,000 mm 0,0 UV-I 0 W/m 8,4 C 15,2 C 4,8 km/h (1 Bft) 95,65 %
19.04.2018 23:38 15,2 C 12,8 C 64 % 1026,1 hPa 0,0 l/m 3,6 km/h (1 Bft) O-NO 60 0 min 0,000 mm 0,0 UV-I 0 W/m 8,4 C 15,2 C 4,8 km/h (1 Bft) 100,00 %
19.04.2018 23:39 15,3 C 12,8 C 64 % 1026,1 hPa 0,0 l/m 3,4 km/h (1 Bft) O-NO 60 0 min 0,000 mm 0,0 UV-I 0 W/m 8,5 C 15,3 C 4,8 km/h (1 Bft) 100,00 %
19.04.2018 23:40 15,3 C 12,8 C 64 % 1026,1 hPa 0,0 l/m 3,4 km/h (1 Bft) O-NO 60 0 min 0,000 mm 0,0 UV-I 0 W/m 8,5 C 15,3 C 4,8 km/h (1 Bft) 100,00 %
19.04.2018 23:41 15,3 C 12,8 C 63 % 1026,0 hPa 0,0 l/m 3,5 km/h (1 Bft) O-NO 60 0 min 0,000 mm 0,0 UV-I 0 W/m 8,3 C 15,3 C 4,8 km/h (1 Bft) 90,91 %
19.04.2018 23:42 15,4 C 12,8 C 63 % 1026,0 hPa 0,0 l/m 3,3 km/h (1 Bft) O-NO 60 0 min 0,000 mm 0,0 UV-I 0 W/m 8,4 C 15,4 C 4,8 km/h (1 Bft) 96,30 %
19.04.2018 23:43 15,3 C 12,8 C 63 % 1026,0 hPa 0,0 l/m 3,6 km/h (1 Bft) O-NO 60 0 min 0,000 mm 0,0 UV-I 0 W/m 8,3 C 15,3 C 4,8 km/h (1 Bft) 100,00 %
19.04.2018 23:44 15,3 C 12,8 C 64 % 1026,0 hPa 0,0 l/m 3,1 km/h (1 Bft) O-NO 60 0 min 0,000 mm 0,0 UV-I 0 W/m 8,5 C 15,3 C 4,8 km/h (1 Bft) 96,30 %
19.04.2018 23:45 15,3 C 12,8 C 64 % 1026,1 hPa 0,0 l/m 4,0 km/h (1 Bft) O-NO 60 0 min 0,000 mm 0,0 UV-I 0 W/m 8,5 C 15,3 C 4,8 km/h (1 Bft) 95,65 %
19.04.2018 23:46 15,3 C 12,8 C 64 % 1026,1 hPa 0,0 l/m 3,5 km/h (1 Bft) O-NO 60 0 min 0,000 mm 0,0 UV-I 0 W/m 8,5 C 15,3 C 4,8 km/h (1 Bft) 100,00 %
19.04.2018 23:48 15,2 C 12,8 C 64 % 1026,1 hPa 0,0 l/m 3,1 km/h (1 Bft) O-NO 60 0 min 0,000 mm 0,0 UV-I 0 W/m 8,4 C 15,2 C 4,8 km/h (1 Bft) 98,11 %
19.04.2018 23:49 15,2 C 12,8 C 64 % 1026,1 hPa 0,0 l/m 3,1 km/h (1 Bft) O-NO 60 0 min 0,000 mm 0,0 UV-I 0 W/m 8,4 C 15,2 C 3,2 km/h (1 Bft) 100,00 %
19.04.2018 23:50 15,2 C 12,8 C 64 % 1026,1 hPa 0,0 l/m 2,7 km/h (1 Bft) O-NO 60 0 min 0,000 mm 0,0 UV-I 0 W/m 8,4 C 15,2 C 3,2 km/h (1 Bft) 100,00 %
19.04.2018 23:51 15,3 C 12,8 C 64 % 1026,1 hPa 0,0 l/m 2,7 km/h (1 Bft) O-NO 60 0 min 0,000 mm 0,0 UV-I 0 W/m 8,5 C 15,3 C 3,2 km/h (1 Bft) 100,00 %
19.04.2018 23:52 15,3 C 12,8 C 64 % 1026,0 hPa 0,0 l/m 2,8 km/h (1 Bft) O-NO 60 0 min 0,000 mm 0,0 UV-I 0 W/m 8,5 C 15,3 C 4,8 km/h (1 Bft) 100,00 %
19.04.2018 23:53 15,2 C 12,8 C 64 % 1026,1 hPa 0,0 l/m 2,0 km/h (1 Bft) O-NO 60 0 min 0,000 mm 0,0 UV-I 0 W/m 8,4 C 15,2 C 3,2 km/h (1 Bft) 100,00 %
19.04.2018 23:54 15,1 C 12,8 C 64 % 1026,1 hPa 0,0 l/m 2,1 km/h (1 Bft) O-NO 60 0 min 0,000 mm 0,0 UV-I 0 W/m 8,3 C 15,1 C 3,2 km/h (1 Bft) 100,00 %
19.04.2018 23:55 15,1 C 12,8 C 64 % 1026,1 hPa 0,0 l/m 1,8 km/h (1 Bft) O-NO 60 0 min 0,000 mm 0,0 UV-I 0 W/m 8,3 C 15,1 C 3,2 km/h (1 Bft) 100,00 %
19.04.2018 23:56 15,1 C 12,8 C 64 % 1026,1 hPa 0,0 l/m 2,1 km/h (1 Bft) O-NO 60 0 min 0,000 mm 0,0 UV-I 0 W/m 8,3 C 15,1 C 3,2 km/h (1 Bft) 100,00 %
19.04.2018 23:57 15,1 C 12,8 C 65 % 1026,1 hPa 0,0 l/m 2,1 km/h (1 Bft) O-NO 60 0 min 0,000 mm 0,0 UV-I 0 W/m 8,6 C 15,1 C 3,2 km/h (1 Bft) 95,83 %
19.04.2018 23:58 15,1 C 12,8 C 64 % 1026,1 hPa 0,0 l/m 2,5 km/h (1 Bft) O-NO 60 0 min 0,000 mm 0,0 UV-I 0 W/m 8,3 C 15,1 C 3,2 km/h (1 Bft) 100,00 %
19.04.2018 23:59 15,1 C 12,8 C 64 % 1026,1 hPa 0,0 l/m 2,1 km/h (1 Bft) O-NO 60 0 min 0,000 mm 0,0 UV-I 0 W/m 8,3 C 15,1 C 3,2 km/h (1 Bft) 100,00 %
_ Min-Zeit 05:25 00:00 13:45 18:51 - 01:13 - - - - - - 13:45 05:25 01:13 14:19
Minimum _ 6,0 C 12,2 C 30 % 1025,2 hPa - 0,0 km/h (0 Bft) - - - - - - 3,7 C 6,0 C 0,0 km/h (0 Bft) 85,19 %
_ Max-Zeit 16:13 12:22 07:00 00:49 00:00 15:55 - - 19:25 15:02 12:47 12:59 12:07 16:35 15:13 00:00
Maximum _ 23,9 C 12,8 C 90 % 1030,1 hPa 0,0 l/m 25,2 km/h
O (4 Bft)
- - 5 min 0,610 mm 3,8 UV-I 768 W/m 11,5 C 22,3 C 35,4 km/h
O-NO (5 Bft)
100,00 %
Durchschnitt _ 15,5 C 12,4 C 62 % 1028,1 hPa #0,0 l/m 8,9 km/h (2 Bft) O-NO - #13:15 h #5,055 mm 2,3 UV-I 423 W/m 7,5 C 14,4 C 12,0 km/h (2 Bft) 98,06 %